<?xml version="1.0" encoding="UTF-8" standalone="no" ?>
<gpx xmlns="http://www.topografix.com/GPX/1/1" creator="www.cicloide.com" version="1.1" xmlns:xsi="http://www.w3.org/2001/XMLSchema-instance" xsi:schemaLocation="http://www.topografix.com/GPX/1/1 http://www.topografix.com/GPX/1/1/gpx.xsd">
  <trk>
    <name>www.cicloide.com 18692</name>
    <desc>www.cicloide.com 18692</desc>
    <trkseg>
      <trkpt lat="41.606376453" lon="2.540391375">
        <ele>144.34</ele>
        <time>2014-06-29T07:39:40Z</time>
      </trkpt>
      <trkpt lat="41.606515760" lon="2.540488688">
        <ele>144.34</ele>
        <time>2014-06-29T07:39:48Z</time>
      </trkpt>
      <trkpt lat="41.606592706" lon="2.540548200">
        <ele>144.34</ele>
        <time>2014-06-29T07:39:54Z</time>
      </trkpt>
      <trkpt lat="41.606707874" lon="2.540624811">
        <ele>144.82</ele>
        <time>2014-06-29T07:40:02Z</time>
      </trkpt>
      <trkpt lat="41.606885235" lon="2.540706953">
        <ele>145.30</ele>
        <time>2014-06-29T07:40:15Z</time>
      </trkpt>
      <trkpt lat="41.607048263" lon="2.540761352">
        <ele>146.26</ele>
        <time>2014-06-29T07:40:27Z</time>
      </trkpt>
      <trkpt lat="41.607078019" lon="2.540771829">
        <ele>146.26</ele>
        <time>2014-06-29T07:40:29Z</time>
      </trkpt>
      <trkpt lat="41.607212380" lon="2.540812565">
        <ele>146.26</ele>
        <time>2014-06-29T07:40:38Z</time>
      </trkpt>
      <trkpt lat="41.607378594" lon="2.540854391">
        <ele>146.74</ele>
        <time>2014-06-29T07:40:45Z</time>
      </trkpt>
      <trkpt lat="41.607554949" lon="2.540867970">
        <ele>147.22</ele>
        <time>2014-06-29T07:40:52Z</time>
      </trkpt>
      <trkpt lat="41.607701967" lon="2.540852882">
        <ele>147.70</ele>
        <time>2014-06-29T07:40:59Z</time>
      </trkpt>
      <trkpt lat="41.607899529" lon="2.540827401">
        <ele>148.18</ele>
        <time>2014-06-29T07:41:07Z</time>
      </trkpt>
      <trkpt lat="41.608125840" lon="2.540809967">
        <ele>149.14</ele>
        <time>2014-06-29T07:41:15Z</time>
      </trkpt>
      <trkpt lat="41.608329185" lon="2.540775769">
        <ele>149.62</ele>
        <time>2014-06-29T07:41:23Z</time>
      </trkpt>
      <trkpt lat="41.608470253" lon="2.540755736">
        <ele>150.10</ele>
        <time>2014-06-29T07:41:29Z</time>
      </trkpt>
      <trkpt lat="41.608678711" lon="2.540647945">
        <ele>150.58</ele>
        <time>2014-06-29T07:41:35Z</time>
      </trkpt>
      <trkpt lat="41.608866549" lon="2.540639646">
        <ele>151.54</ele>
        <time>2014-06-29T07:41:42Z</time>
      </trkpt>
      <trkpt lat="41.609128316" lon="2.540596983">
        <ele>152.51</ele>
        <time>2014-06-29T07:41:52Z</time>
      </trkpt>
      <trkpt lat="41.609300396" lon="2.540571837">
        <ele>152.99</ele>
        <time>2014-06-29T07:41:59Z</time>
      </trkpt>
      <trkpt lat="41.609488654" lon="2.540563623">
        <ele>153.47</ele>
        <time>2014-06-29T07:42:07Z</time>
      </trkpt>
      <trkpt lat="41.609666099" lon="2.540538142">
        <ele>153.95</ele>
        <time>2014-06-29T07:42:14Z</time>
      </trkpt>
      <trkpt lat="41.609838179" lon="2.540500423">
        <ele>154.91</ele>
        <time>2014-06-29T07:42:21Z</time>
      </trkpt>
      <trkpt lat="41.610026856" lon="2.540428255">
        <ele>155.39</ele>
        <time>2014-06-29T07:42:29Z</time>
      </trkpt>
      <trkpt lat="41.610198014" lon="2.540332534">
        <ele>155.87</ele>
        <time>2014-06-29T07:42:37Z</time>
      </trkpt>
      <trkpt lat="41.610354588" lon="2.540248798">
        <ele>156.35</ele>
        <time>2014-06-29T07:42:44Z</time>
      </trkpt>
      <trkpt lat="41.610569333" lon="2.540134218">
        <ele>157.31</ele>
        <time>2014-06-29T07:42:53Z</time>
      </trkpt>
      <trkpt lat="41.610767565" lon="2.540037239">
        <ele>157.79</ele>
        <time>2014-06-29T07:43:01Z</time>
      </trkpt>
      <trkpt lat="41.610970993" lon="2.539936824">
        <ele>158.27</ele>
        <time>2014-06-29T07:43:10Z</time>
      </trkpt>
      <trkpt lat="41.611102422" lon="2.539870355">
        <ele>158.75</ele>
        <time>2014-06-29T07:43:16Z</time>
      </trkpt>
      <trkpt lat="41.611249943" lon="2.539778657">
        <ele>158.75</ele>
        <time>2014-06-29T07:43:23Z</time>
      </trkpt>
      <trkpt lat="41.611382545" lon="2.539696012">
        <ele>160.20</ele>
        <time>2014-06-29T07:43:29Z</time>
      </trkpt>
      <trkpt lat="41.611540963" lon="2.539564332">
        <ele>160.68</ele>
        <time>2014-06-29T07:43:36Z</time>
      </trkpt>
      <trkpt lat="41.611677839" lon="2.539416392">
        <ele>161.16</ele>
        <time>2014-06-29T07:43:43Z</time>
      </trkpt>
      <trkpt lat="41.611824020" lon="2.539224781">
        <ele>161.64</ele>
        <time>2014-06-29T07:43:51Z</time>
      </trkpt>
      <trkpt lat="41.611950167" lon="2.539052785">
        <ele>162.12</ele>
        <time>2014-06-29T07:43:58Z</time>
      </trkpt>
      <trkpt lat="41.612068268" lon="2.538869053">
        <ele>163.08</ele>
        <time>2014-06-29T07:44:05Z</time>
      </trkpt>
      <trkpt lat="41.612146136" lon="2.538722118">
        <ele>163.56</ele>
        <time>2014-06-29T07:44:11Z</time>
      </trkpt>
      <trkpt lat="41.612316708" lon="2.538434116">
        <ele>164.52</ele>
        <time>2014-06-29T07:44:21Z</time>
      </trkpt>
      <trkpt lat="41.612501026" lon="2.538183833">
        <ele>165.48</ele>
        <time>2014-06-29T07:44:31Z</time>
      </trkpt>
      <trkpt lat="41.612649218" lon="2.538007561">
        <ele>165.96</ele>
        <time>2014-06-29T07:44:39Z</time>
      </trkpt>
      <trkpt lat="41.612879301" lon="2.537779071">
        <ele>166.93</ele>
        <time>2014-06-29T07:44:51Z</time>
      </trkpt>
      <trkpt lat="41.613038977" lon="2.537604308">
        <ele>167.89</ele>
        <time>2014-06-29T07:44:58Z</time>
      </trkpt>
      <trkpt lat="41.613221534" lon="2.537400376">
        <ele>167.89</ele>
        <time>2014-06-29T07:45:07Z</time>
      </trkpt>
      <trkpt lat="41.613377941" lon="2.537222009">
        <ele>168.85</ele>
        <time>2014-06-29T07:45:15Z</time>
      </trkpt>
      <trkpt lat="41.613506603" lon="2.537055042">
        <ele>169.33</ele>
        <time>2014-06-29T07:45:21Z</time>
      </trkpt>
      <trkpt lat="41.613626967" lon="2.536813643">
        <ele>169.81</ele>
        <time>2014-06-29T07:45:29Z</time>
      </trkpt>
      <trkpt lat="41.613706595" lon="2.536477193">
        <ele>171.25</ele>
        <time>2014-06-29T07:45:39Z</time>
      </trkpt>
      <trkpt lat="41.613819248" lon="2.536208470">
        <ele>171.73</ele>
        <time>2014-06-29T07:45:47Z</time>
      </trkpt>
      <trkpt lat="41.613923603" lon="2.535911415">
        <ele>173.17</ele>
        <time>2014-06-29T07:45:56Z</time>
      </trkpt>
      <trkpt lat="41.614057881" lon="2.535497265">
        <ele>174.14</ele>
        <time>2014-06-29T07:46:08Z</time>
      </trkpt>
      <trkpt lat="41.614162152" lon="2.535158133">
        <ele>175.10</ele>
        <time>2014-06-29T07:46:18Z</time>
      </trkpt>
      <trkpt lat="41.614261142" lon="2.534831491">
        <ele>176.06</ele>
        <time>2014-06-29T07:46:28Z</time>
      </trkpt>
      <trkpt lat="41.614388128" lon="2.534457490">
        <ele>177.98</ele>
        <time>2014-06-29T07:46:40Z</time>
      </trkpt>
      <trkpt lat="41.614484939" lon="2.534147108">
        <ele>179.42</ele>
        <time>2014-06-29T07:46:50Z</time>
      </trkpt>
      <trkpt lat="41.614583258" lon="2.533837313">
        <ele>180.38</ele>
        <time>2014-06-29T07:47:00Z</time>
      </trkpt>
      <trkpt lat="41.614683590" lon="2.533491057">
        <ele>181.35</ele>
        <time>2014-06-29T07:47:10Z</time>
      </trkpt>
      <trkpt lat="41.614769337" lon="2.533229290">
        <ele>181.83</ele>
        <time>2014-06-29T07:47:18Z</time>
      </trkpt>
      <trkpt lat="41.614861538" lon="2.532924608">
        <ele>182.79</ele>
        <time>2014-06-29T07:47:27Z</time>
      </trkpt>
      <trkpt lat="41.614956253" lon="2.532620512">
        <ele>183.75</ele>
        <time>2014-06-29T07:47:37Z</time>
      </trkpt>
      <trkpt lat="41.615043090" lon="2.532308538">
        <ele>184.71</ele>
        <time>2014-06-29T07:47:47Z</time>
      </trkpt>
      <trkpt lat="41.615097237" lon="2.531963036">
        <ele>185.19</ele>
        <time>2014-06-29T07:47:57Z</time>
      </trkpt>
      <trkpt lat="41.615127495" lon="2.531681907">
        <ele>185.67</ele>
        <time>2014-06-29T07:48:05Z</time>
      </trkpt>
      <trkpt lat="41.615139565" lon="2.531352833">
        <ele>186.63</ele>
        <time>2014-06-29T07:48:14Z</time>
      </trkpt>
      <trkpt lat="41.615149121" lon="2.531002386">
        <ele>187.11</ele>
        <time>2014-06-29T07:48:23Z</time>
      </trkpt>
      <trkpt lat="41.615197317" lon="2.530659314">
        <ele>188.08</ele>
        <time>2014-06-29T07:48:33Z</time>
      </trkpt>
      <trkpt lat="41.615202178" lon="2.530338204">
        <ele>189.04</ele>
        <time>2014-06-29T07:48:42Z</time>
      </trkpt>
      <trkpt lat="41.615202346" lon="2.530104097">
        <ele>190.00</ele>
        <time>2014-06-29T07:48:49Z</time>
      </trkpt>
      <trkpt lat="41.615224306" lon="2.529733366">
        <ele>190.96</ele>
        <time>2014-06-29T07:48:59Z</time>
      </trkpt>
      <trkpt lat="41.615239561" lon="2.529457182">
        <ele>191.92</ele>
        <time>2014-06-29T07:49:07Z</time>
      </trkpt>
      <trkpt lat="41.615246267" lon="2.529136658">
        <ele>193.36</ele>
        <time>2014-06-29T07:49:16Z</time>
      </trkpt>
      <trkpt lat="41.615277196" lon="2.528903809">
        <ele>193.36</ele>
        <time>2014-06-29T07:49:22Z</time>
      </trkpt>
      <trkpt lat="41.615348945" lon="2.528525785">
        <ele>194.32</ele>
        <time>2014-06-29T07:49:32Z</time>
      </trkpt>
      <trkpt lat="41.615429495" lon="2.528148683">
        <ele>195.28</ele>
        <time>2014-06-29T07:49:43Z</time>
      </trkpt>
      <trkpt lat="41.615486241" lon="2.527852969">
        <ele>195.77</ele>
        <time>2014-06-29T07:49:51Z</time>
      </trkpt>
      <trkpt lat="41.615549524" lon="2.527529596">
        <ele>196.73</ele>
        <time>2014-06-29T07:50:00Z</time>
      </trkpt>
      <trkpt lat="41.615614400" lon="2.527210245">
        <ele>197.69</ele>
        <time>2014-06-29T07:50:09Z</time>
      </trkpt>
      <trkpt lat="41.615639127" lon="2.526915621">
        <ele>199.13</ele>
        <time>2014-06-29T07:50:18Z</time>
      </trkpt>
      <trkpt lat="41.615644407" lon="2.526687466">
        <ele>200.57</ele>
        <time>2014-06-29T07:50:25Z</time>
      </trkpt>
      <trkpt lat="41.615626554" lon="2.526465010">
        <ele>201.05</ele>
        <time>2014-06-29T07:50:31Z</time>
      </trkpt>
      <trkpt lat="41.615595457" lon="2.526172230">
        <ele>202.01</ele>
        <time>2014-06-29T07:50:39Z</time>
      </trkpt>
      <trkpt lat="41.615574754" lon="2.525846509">
        <ele>202.98</ele>
        <time>2014-06-29T07:50:48Z</time>
      </trkpt>
      <trkpt lat="41.615567545" lon="2.525504192">
        <ele>203.94</ele>
        <time>2014-06-29T07:50:57Z</time>
      </trkpt>
      <trkpt lat="41.615573329" lon="2.525115524">
        <ele>204.90</ele>
        <time>2014-06-29T07:51:07Z</time>
      </trkpt>
      <trkpt lat="41.615592356" lon="2.524808746">
        <ele>205.86</ele>
        <time>2014-06-29T07:51:16Z</time>
      </trkpt>
      <trkpt lat="41.615623704" lon="2.524528204">
        <ele>206.82</ele>
        <time>2014-06-29T07:51:24Z</time>
      </trkpt>
      <trkpt lat="41.615660920" lon="2.524229221">
        <ele>207.78</ele>
        <time>2014-06-29T07:51:32Z</time>
      </trkpt>
      <trkpt lat="41.615674247" lon="2.523947841">
        <ele>209.70</ele>
        <time>2014-06-29T07:51:40Z</time>
      </trkpt>
      <trkpt lat="41.615695118" lon="2.523667131">
        <ele>210.19</ele>
        <time>2014-06-29T07:51:48Z</time>
      </trkpt>
      <trkpt lat="41.615714648" lon="2.523368064">
        <ele>210.67</ele>
        <time>2014-06-29T07:51:56Z</time>
      </trkpt>
      <trkpt lat="41.615744990" lon="2.523076039">
        <ele>211.63</ele>
        <time>2014-06-29T07:52:04Z</time>
      </trkpt>
      <trkpt lat="41.615779524" lon="2.522825001">
        <ele>212.11</ele>
        <time>2014-06-29T07:52:11Z</time>
      </trkpt>
      <trkpt lat="41.615807435" lon="2.522566000">
        <ele>213.07</ele>
        <time>2014-06-29T07:52:18Z</time>
      </trkpt>
      <trkpt lat="41.615819254" lon="2.522309849">
        <ele>214.51</ele>
        <time>2014-06-29T07:52:25Z</time>
      </trkpt>
      <trkpt lat="41.615864265" lon="2.521948254">
        <ele>214.99</ele>
        <time>2014-06-29T07:52:35Z</time>
      </trkpt>
      <trkpt lat="41.615899050" lon="2.521691265">
        <ele>215.95</ele>
        <time>2014-06-29T07:52:42Z</time>
      </trkpt>
      <trkpt lat="41.615957891" lon="2.521435365">
        <ele>215.47</ele>
        <time>2014-06-29T07:52:48Z</time>
      </trkpt>
      <trkpt lat="41.615995274" lon="2.521191200">
        <ele>216.43</ele>
        <time>2014-06-29T07:52:55Z</time>
      </trkpt>
      <trkpt lat="41.616053528" lon="2.520957178">
        <ele>216.91</ele>
        <time>2014-06-29T07:53:01Z</time>
      </trkpt>
      <trkpt lat="41.616111279" lon="2.520734554">
        <ele>216.91</ele>
        <time>2014-06-29T07:53:08Z</time>
      </trkpt>
      <trkpt lat="41.616229045" lon="2.520393578">
        <ele>217.88</ele>
        <time>2014-06-29T07:53:17Z</time>
      </trkpt>
      <trkpt lat="41.616332562" lon="2.520035336">
        <ele>218.36</ele>
        <time>2014-06-29T07:53:27Z</time>
      </trkpt>
      <trkpt lat="41.616401126" lon="2.519807097">
        <ele>219.32</ele>
        <time>2014-06-29T07:53:34Z</time>
      </trkpt>
      <trkpt lat="41.616486286" lon="2.519481124">
        <ele>219.80</ele>
        <time>2014-06-29T07:53:44Z</time>
      </trkpt>
      <trkpt lat="41.616540433" lon="2.519241821">
        <ele>220.28</ele>
        <time>2014-06-29T07:53:51Z</time>
      </trkpt>
      <trkpt lat="41.616591227" lon="2.519008637">
        <ele>220.76</ele>
        <time>2014-06-29T07:53:57Z</time>
      </trkpt>
      <trkpt lat="41.616628610" lon="2.518663218">
        <ele>221.24</ele>
        <time>2014-06-29T07:54:06Z</time>
      </trkpt>
      <trkpt lat="41.616648895" lon="2.518438248">
        <ele>222.20</ele>
        <time>2014-06-29T07:54:13Z</time>
      </trkpt>
      <trkpt lat="41.616657025" lon="2.518222582">
        <ele>222.68</ele>
        <time>2014-06-29T07:54:19Z</time>
      </trkpt>
      <trkpt lat="41.616657780" lon="2.517945727">
        <ele>223.64</ele>
        <time>2014-06-29T07:54:27Z</time>
      </trkpt>
      <trkpt lat="41.616613607" lon="2.517753530">
        <ele>224.61</ele>
        <time>2014-06-29T07:54:33Z</time>
      </trkpt>
      <trkpt lat="41.616525262" lon="2.517532416">
        <ele>225.09</ele>
        <time>2014-06-29T07:54:40Z</time>
      </trkpt>
      <trkpt lat="41.616477652" lon="2.517286994">
        <ele>225.09</ele>
        <time>2014-06-29T07:54:47Z</time>
      </trkpt>
      <trkpt lat="41.616459296" lon="2.517058252">
        <ele>225.09</ele>
        <time>2014-06-29T07:54:53Z</time>
      </trkpt>
      <trkpt lat="41.616459464" lon="2.517017599">
        <ele>225.09</ele>
        <time>2014-06-29T07:54:54Z</time>
      </trkpt>
      <trkpt lat="41.616574631" lon="2.516736889">
        <ele>224.61</ele>
        <time>2014-06-29T07:55:03Z</time>
      </trkpt>
      <trkpt lat="41.616591060" lon="2.516535975">
        <ele>225.57</ele>
        <time>2014-06-29T07:55:09Z</time>
      </trkpt>
      <trkpt lat="41.616511264" lon="2.516267419">
        <ele>225.57</ele>
        <time>2014-06-29T07:55:16Z</time>
      </trkpt>
      <trkpt lat="41.616431803" lon="2.516022835">
        <ele>226.05</ele>
        <time>2014-06-29T07:55:24Z</time>
      </trkpt>
      <trkpt lat="41.616419901" lon="2.515796356">
        <ele>226.05</ele>
        <time>2014-06-29T07:55:31Z</time>
      </trkpt>
      <trkpt lat="41.616431300" lon="2.515525872">
        <ele>226.53</ele>
        <time>2014-06-29T07:55:38Z</time>
      </trkpt>
      <trkpt lat="41.616489974" lon="2.515275840">
        <ele>227.01</ele>
        <time>2014-06-29T07:55:46Z</time>
      </trkpt>
      <trkpt lat="41.616570440" lon="2.515089259">
        <ele>227.49</ele>
        <time>2014-06-29T07:55:53Z</time>
      </trkpt>
      <trkpt lat="41.616640848" lon="2.514897900">
        <ele>228.45</ele>
        <time>2014-06-29T07:55:59Z</time>
      </trkpt>
      <trkpt lat="41.616660713" lon="2.514772423">
        <ele>229.41</ele>
        <time>2014-06-29T07:56:04Z</time>
      </trkpt>
      <trkpt lat="41.616673873" lon="2.514741158">
        <ele>229.41</ele>
        <time>2014-06-29T07:56:06Z</time>
      </trkpt>
      <trkpt lat="41.616760206" lon="2.514678965">
        <ele>230.37</ele>
        <time>2014-06-29T07:56:13Z</time>
      </trkpt>
      <trkpt lat="41.616844193" lon="2.514586596">
        <ele>229.41</ele>
        <time>2014-06-29T07:56:18Z</time>
      </trkpt>
      <trkpt lat="41.616874871" lon="2.514362296">
        <ele>230.37</ele>
        <time>2014-06-29T07:56:24Z</time>
      </trkpt>
      <trkpt lat="41.616899681" lon="2.514067505">
        <ele>230.85</ele>
        <time>2014-06-29T07:56:32Z</time>
      </trkpt>
      <trkpt lat="41.616900184" lon="2.513770366">
        <ele>231.81</ele>
        <time>2014-06-29T07:56:41Z</time>
      </trkpt>
      <trkpt lat="41.616899597" lon="2.513550760">
        <ele>232.30</ele>
        <time>2014-06-29T07:56:48Z</time>
      </trkpt>
      <trkpt lat="41.616896915" lon="2.513324700">
        <ele>232.78</ele>
        <time>2014-06-29T07:56:55Z</time>
      </trkpt>
      <trkpt lat="41.616888533" lon="2.513062095">
        <ele>233.74</ele>
        <time>2014-06-29T07:57:02Z</time>
      </trkpt>
      <trkpt lat="41.616868417" lon="2.512819942">
        <ele>234.22</ele>
        <time>2014-06-29T07:57:09Z</time>
      </trkpt>
      <trkpt lat="41.616824998" lon="2.512506710">
        <ele>234.70</ele>
        <time>2014-06-29T07:57:18Z</time>
      </trkpt>
      <trkpt lat="41.616719051" lon="2.512232036">
        <ele>235.66</ele>
        <time>2014-06-29T07:57:27Z</time>
      </trkpt>
      <trkpt lat="41.616627269" lon="2.512085101">
        <ele>236.14</ele>
        <time>2014-06-29T07:57:33Z</time>
      </trkpt>
      <trkpt lat="41.616504642" lon="2.511849318">
        <ele>236.62</ele>
        <time>2014-06-29T07:57:42Z</time>
      </trkpt>
      <trkpt lat="41.616425182" lon="2.511716046">
        <ele>237.58</ele>
        <time>2014-06-29T07:57:47Z</time>
      </trkpt>
      <trkpt lat="41.616378327" lon="2.511549162">
        <ele>238.06</ele>
        <time>2014-06-29T07:57:53Z</time>
      </trkpt>
      <trkpt lat="41.616377656" lon="2.511351600">
        <ele>238.06</ele>
        <time>2014-06-29T07:57:59Z</time>
      </trkpt>
      <trkpt lat="41.616388218" lon="2.511087738">
        <ele>239.51</ele>
        <time>2014-06-29T07:58:07Z</time>
      </trkpt>
      <trkpt lat="41.616389810" lon="2.511060329">
        <ele>239.51</ele>
        <time>2014-06-29T07:58:08Z</time>
      </trkpt>
      <trkpt lat="41.616489806" lon="2.510812393">
        <ele>240.95</ele>
        <time>2014-06-29T07:58:16Z</time>
      </trkpt>
      <trkpt lat="41.616616121" lon="2.510607120">
        <ele>242.39</ele>
        <time>2014-06-29T07:58:24Z</time>
      </trkpt>
      <trkpt lat="41.616721314" lon="2.510450797">
        <ele>244.79</ele>
        <time>2014-06-29T07:58:31Z</time>
      </trkpt>
      <trkpt lat="41.616800356" lon="2.510196407">
        <ele>247.68</ele>
        <time>2014-06-29T07:58:41Z</time>
      </trkpt>
      <trkpt lat="41.616794153" lon="2.509977387">
        <ele>249.60</ele>
        <time>2014-06-29T07:58:50Z</time>
      </trkpt>
      <trkpt lat="41.616825334" lon="2.509747388">
        <ele>251.04</ele>
        <time>2014-06-29T07:59:00Z</time>
      </trkpt>
      <trkpt lat="41.616940920" lon="2.509550246">
        <ele>252.00</ele>
        <time>2014-06-29T07:59:09Z</time>
      </trkpt>
      <trkpt lat="41.616933963" lon="2.509455111">
        <ele>252.00</ele>
        <time>2014-06-29T07:59:13Z</time>
      </trkpt>
      <trkpt lat="41.616798344" lon="2.509533817">
        <ele>253.44</ele>
        <time>2014-06-29T07:59:22Z</time>
      </trkpt>
      <trkpt lat="41.616683596" lon="2.509724254">
        <ele>254.89</ele>
        <time>2014-06-29T07:59:31Z</time>
      </trkpt>
      <trkpt lat="41.616604890" lon="2.509837493">
        <ele>255.37</ele>
        <time>2014-06-29T07:59:38Z</time>
      </trkpt>
      <trkpt lat="41.616487375" lon="2.509822322">
        <ele>256.33</ele>
        <time>2014-06-29T07:59:45Z</time>
      </trkpt>
      <trkpt lat="41.616384865" lon="2.509711513">
        <ele>258.25</ele>
        <time>2014-06-29T07:59:53Z</time>
      </trkpt>
      <trkpt lat="41.616358294" lon="2.509555023">
        <ele>259.69</ele>
        <time>2014-06-29T08:00:01Z</time>
      </trkpt>
      <trkpt lat="41.616351589" lon="2.509422841">
        <ele>261.62</ele>
        <time>2014-06-29T08:00:08Z</time>
      </trkpt>
      <trkpt lat="41.616338513" lon="2.509278756">
        <ele>263.54</ele>
        <time>2014-06-29T08:00:15Z</time>
      </trkpt>
      <trkpt lat="41.616311104" lon="2.509114051">
        <ele>264.98</ele>
        <time>2014-06-29T08:00:23Z</time>
      </trkpt>
      <trkpt lat="41.616293921" lon="2.508911042">
        <ele>267.86</ele>
        <time>2014-06-29T08:00:33Z</time>
      </trkpt>
      <trkpt lat="41.616248826" lon="2.508709122">
        <ele>270.75</ele>
        <time>2014-06-29T08:00:43Z</time>
      </trkpt>
      <trkpt lat="41.616226195" lon="2.508565959">
        <ele>272.67</ele>
        <time>2014-06-29T08:00:51Z</time>
      </trkpt>
      <trkpt lat="41.616179676" lon="2.508402176">
        <ele>273.63</ele>
        <time>2014-06-29T08:00:59Z</time>
      </trkpt>
      <trkpt lat="41.616112201" lon="2.508181397">
        <ele>276.04</ele>
        <time>2014-06-29T08:01:10Z</time>
      </trkpt>
      <trkpt lat="41.616054618" lon="2.508029768">
        <ele>277.48</ele>
        <time>2014-06-29T08:01:18Z</time>
      </trkpt>
      <trkpt lat="41.616017821" lon="2.507868920">
        <ele>278.44</ele>
        <time>2014-06-29T08:01:26Z</time>
      </trkpt>
      <trkpt lat="41.615959902" lon="2.507718632">
        <ele>279.88</ele>
        <time>2014-06-29T08:01:34Z</time>
      </trkpt>
      <trkpt lat="41.615907515" lon="2.507566501">
        <ele>282.28</ele>
        <time>2014-06-29T08:01:42Z</time>
      </trkpt>
      <trkpt lat="41.615867282" lon="2.507373130">
        <ele>283.73</ele>
        <time>2014-06-29T08:01:52Z</time>
      </trkpt>
      <trkpt lat="41.615827636" lon="2.507241953">
        <ele>284.21</ele>
        <time>2014-06-29T08:02:00Z</time>
      </trkpt>
      <trkpt lat="41.615773656" lon="2.507087475">
        <ele>285.65</ele>
        <time>2014-06-29T08:02:09Z</time>
      </trkpt>
      <trkpt lat="41.615746331" lon="2.506958813">
        <ele>287.09</ele>
        <time>2014-06-29T08:02:17Z</time>
      </trkpt>
      <trkpt lat="41.615748846" lon="2.506811123">
        <ele>289.01</ele>
        <time>2014-06-29T08:02:26Z</time>
      </trkpt>
      <trkpt lat="41.615761000" lon="2.506639043">
        <ele>291.42</ele>
        <time>2014-06-29T08:02:35Z</time>
      </trkpt>
      <trkpt lat="41.615784218" lon="2.506456737">
        <ele>293.82</ele>
        <time>2014-06-29T08:02:45Z</time>
      </trkpt>
      <trkpt lat="41.615833000" lon="2.506294128">
        <ele>295.74</ele>
        <time>2014-06-29T08:02:54Z</time>
      </trkpt>
      <trkpt lat="41.615882537" lon="2.506149791">
        <ele>297.18</ele>
        <time>2014-06-29T08:03:01Z</time>
      </trkpt>
      <trkpt lat="41.615941965" lon="2.505985757">
        <ele>299.11</ele>
        <time>2014-06-29T08:03:10Z</time>
      </trkpt>
      <trkpt lat="41.616009020" lon="2.505813006">
        <ele>300.55</ele>
        <time>2014-06-29T08:03:19Z</time>
      </trkpt>
      <trkpt lat="41.616058306" lon="2.505661462">
        <ele>302.95</ele>
        <time>2014-06-29T08:03:28Z</time>
      </trkpt>
      <trkpt lat="41.616116811" lon="2.505472869">
        <ele>304.88</ele>
        <time>2014-06-29T08:03:40Z</time>
      </trkpt>
      <trkpt lat="41.616152602" lon="2.505313194">
        <ele>306.80</ele>
        <time>2014-06-29T08:03:49Z</time>
      </trkpt>
      <trkpt lat="41.616171629" lon="2.505256364">
        <ele>307.28</ele>
        <time>2014-06-29T08:03:52Z</time>
      </trkpt>
      <trkpt lat="41.616183448" lon="2.505103814">
        <ele>310.16</ele>
        <time>2014-06-29T08:04:01Z</time>
      </trkpt>
      <trkpt lat="41.616164253" lon="2.504984120">
        <ele>311.12</ele>
        <time>2014-06-29T08:04:08Z</time>
      </trkpt>
      <trkpt lat="41.616120332" lon="2.504846489">
        <ele>311.60</ele>
        <time>2014-06-29T08:04:15Z</time>
      </trkpt>
      <trkpt lat="41.616033998" lon="2.504780859">
        <ele>312.57</ele>
        <time>2014-06-29T08:04:21Z</time>
      </trkpt>
      <trkpt lat="41.615889746" lon="2.504753534">
        <ele>314.01</ele>
        <time>2014-06-29T08:04:31Z</time>
      </trkpt>
      <trkpt lat="41.615769801" lon="2.504779853">
        <ele>314.49</ele>
        <time>2014-06-29T08:04:40Z</time>
      </trkpt>
      <trkpt lat="41.615626219" lon="2.504810782">
        <ele>316.41</ele>
        <time>2014-06-29T08:04:51Z</time>
      </trkpt>
      <trkpt lat="41.615513566" lon="2.504811788">
        <ele>317.37</ele>
        <time>2014-06-29T08:05:00Z</time>
      </trkpt>
      <trkpt lat="41.615422455" lon="2.504751019">
        <ele>318.33</ele>
        <time>2014-06-29T08:05:08Z</time>
      </trkpt>
      <trkpt lat="41.615392615" lon="2.504616322">
        <ele>320.26</ele>
        <time>2014-06-29T08:05:16Z</time>
      </trkpt>
      <trkpt lat="41.615399991" lon="2.504465867">
        <ele>321.70</ele>
        <time>2014-06-29T08:05:25Z</time>
      </trkpt>
      <trkpt lat="41.615402757" lon="2.504447930">
        <ele>321.70</ele>
        <time>2014-06-29T08:05:26Z</time>
      </trkpt>
      <trkpt lat="41.615410217" lon="2.504274760">
        <ele>324.58</ele>
        <time>2014-06-29T08:05:35Z</time>
      </trkpt>
      <trkpt lat="41.615439554" lon="2.504131680">
        <ele>326.02</ele>
        <time>2014-06-29T08:05:43Z</time>
      </trkpt>
      <trkpt lat="41.615459503" lon="2.503973598">
        <ele>328.43</ele>
        <time>2014-06-29T08:05:52Z</time>
      </trkpt>
      <trkpt lat="41.615460173" lon="2.503792046">
        <ele>330.83</ele>
        <time>2014-06-29T08:06:01Z</time>
      </trkpt>
      <trkpt lat="41.615447265" lon="2.503604459">
        <ele>332.75</ele>
        <time>2014-06-29T08:06:11Z</time>
      </trkpt>
      <trkpt lat="41.615419856" lon="2.503405137">
        <ele>334.68</ele>
        <time>2014-06-29T08:06:21Z</time>
      </trkpt>
      <trkpt lat="41.615381719" lon="2.503204893">
        <ele>334.68</ele>
        <time>2014-06-29T08:06:29Z</time>
      </trkpt>
      <trkpt lat="41.615277448" lon="2.502987383">
        <ele>334.68</ele>
        <time>2014-06-29T08:06:36Z</time>
      </trkpt>
      <trkpt lat="41.615172842" lon="2.502778087">
        <ele>334.68</ele>
        <time>2014-06-29T08:06:44Z</time>
      </trkpt>
      <trkpt lat="41.615112157" lon="2.502470220">
        <ele>335.16</ele>
        <time>2014-06-29T08:06:53Z</time>
      </trkpt>
      <trkpt lat="41.615047448" lon="2.502213230">
        <ele>335.64</ele>
        <time>2014-06-29T08:07:02Z</time>
      </trkpt>
      <trkpt lat="41.614976789" lon="2.501969569">
        <ele>337.56</ele>
        <time>2014-06-29T08:07:11Z</time>
      </trkpt>
      <trkpt lat="41.614957427" lon="2.501770582">
        <ele>338.52</ele>
        <time>2014-06-29T08:07:19Z</time>
      </trkpt>
      <trkpt lat="41.614955834" lon="2.501560783">
        <ele>338.52</ele>
        <time>2014-06-29T08:07:26Z</time>
      </trkpt>
      <trkpt lat="41.614958684" lon="2.501525998">
        <ele>338.52</ele>
        <time>2014-06-29T08:07:27Z</time>
      </trkpt>
      <trkpt lat="41.614855167" lon="2.501436144">
        <ele>338.52</ele>
        <time>2014-06-29T08:07:32Z</time>
      </trkpt>
      <trkpt lat="41.614830608" lon="2.501431115">
        <ele>338.52</ele>
        <time>2014-06-29T08:07:33Z</time>
      </trkpt>
      <trkpt lat="41.614645536" lon="2.501355175">
        <ele>339.00</ele>
        <time>2014-06-29T08:07:42Z</time>
      </trkpt>
      <trkpt lat="41.614491644" lon="2.501242606">
        <ele>340.92</ele>
        <time>2014-06-29T08:07:51Z</time>
      </trkpt>
      <trkpt lat="41.614361054" lon="2.501132803">
        <ele>341.89</ele>
        <time>2014-06-29T08:08:00Z</time>
      </trkpt>
      <trkpt lat="41.614290311" lon="2.500981510">
        <ele>343.33</ele>
        <time>2014-06-29T08:08:06Z</time>
      </trkpt>
      <trkpt lat="41.614247060" lon="2.500822589">
        <ele>344.29</ele>
        <time>2014-06-29T08:08:14Z</time>
      </trkpt>
      <trkpt lat="41.614194673" lon="2.500675403">
        <ele>346.21</ele>
        <time>2014-06-29T08:08:22Z</time>
      </trkpt>
      <trkpt lat="41.614130971" lon="2.500561828">
        <ele>347.65</ele>
        <time>2014-06-29T08:08:30Z</time>
      </trkpt>
      <trkpt lat="41.614050672" lon="2.500437692">
        <ele>350.06</ele>
        <time>2014-06-29T08:08:39Z</time>
      </trkpt>
      <trkpt lat="41.613993927" lon="2.500338115">
        <ele>352.46</ele>
        <time>2014-06-29T08:08:47Z</time>
      </trkpt>
      <trkpt lat="41.613928883" lon="2.500220349">
        <ele>354.86</ele>
        <time>2014-06-29T08:08:56Z</time>
      </trkpt>
      <trkpt lat="41.613902899" lon="2.500162011">
        <ele>355.34</ele>
        <time>2014-06-29T08:08:59Z</time>
      </trkpt>
      <trkpt lat="41.613824612" lon="2.500037037">
        <ele>357.27</ele>
        <time>2014-06-29T08:09:08Z</time>
      </trkpt>
      <trkpt lat="41.613836599" lon="2.499972329">
        <ele>357.75</ele>
        <time>2014-06-29T08:09:13Z</time>
      </trkpt>
      <trkpt lat="41.613921675" lon="2.499987081">
        <ele>359.67</ele>
        <time>2014-06-29T08:09:20Z</time>
      </trkpt>
      <trkpt lat="41.613941456" lon="2.500034774">
        <ele>360.15</ele>
        <time>2014-06-29T08:09:24Z</time>
      </trkpt>
      <trkpt lat="41.614032148" lon="2.500122868">
        <ele>361.59</ele>
        <time>2014-06-29T08:09:32Z</time>
      </trkpt>
      <trkpt lat="41.614162655" lon="2.500202244">
        <ele>363.52</ele>
        <time>2014-06-29T08:09:42Z</time>
      </trkpt>
      <trkpt lat="41.614282767" lon="2.500250608">
        <ele>364.96</ele>
        <time>2014-06-29T08:09:52Z</time>
      </trkpt>
      <trkpt lat="41.614399276" lon="2.500319675">
        <ele>366.88</ele>
        <time>2014-06-29T08:10:02Z</time>
      </trkpt>
      <trkpt lat="41.614483430" lon="2.500396285">
        <ele>368.32</ele>
        <time>2014-06-29T08:10:11Z</time>
      </trkpt>
      <trkpt lat="41.614510671" lon="2.500422521">
        <ele>368.80</ele>
        <time>2014-06-29T08:10:14Z</time>
      </trkpt>
      <trkpt lat="41.614514778" lon="2.500436016">
        <ele>369.28</ele>
        <time>2014-06-29T08:10:15Z</time>
      </trkpt>
      <trkpt lat="41.614622821" lon="2.500505669">
        <ele>370.73</ele>
        <time>2014-06-29T08:10:25Z</time>
      </trkpt>
      <trkpt lat="41.614759362" lon="2.500475411">
        <ele>371.69</ele>
        <time>2014-06-29T08:10:35Z</time>
      </trkpt>
      <trkpt lat="41.614816694" lon="2.500445236">
        <ele>372.17</ele>
        <time>2014-06-29T08:10:39Z</time>
      </trkpt>
      <trkpt lat="41.614983075" lon="2.500438698">
        <ele>371.69</ele>
        <time>2014-06-29T08:10:48Z</time>
      </trkpt>
      <trkpt lat="41.615094890" lon="2.500527043">
        <ele>372.17</ele>
        <time>2014-06-29T08:10:55Z</time>
      </trkpt>
      <trkpt lat="41.615202849" lon="2.500527630">
        <ele>372.65</ele>
        <time>2014-06-29T08:11:02Z</time>
      </trkpt>
      <trkpt lat="41.615295804" lon="2.500463089">
        <ele>373.13</ele>
        <time>2014-06-29T08:11:09Z</time>
      </trkpt>
      <trkpt lat="41.615426897" lon="2.500375833">
        <ele>373.61</ele>
        <time>2014-06-29T08:11:19Z</time>
      </trkpt>
      <trkpt lat="41.615468136" lon="2.500357142">
        <ele>374.09</ele>
        <time>2014-06-29T08:11:22Z</time>
      </trkpt>
      <trkpt lat="41.615614316" lon="2.500362506">
        <ele>375.05</ele>
        <time>2014-06-29T08:11:32Z</time>
      </trkpt>
      <trkpt lat="41.615724706" lon="2.500361920">
        <ele>376.49</ele>
        <time>2014-06-29T08:11:40Z</time>
      </trkpt>
      <trkpt lat="41.615781200" lon="2.500271479">
        <ele>377.45</ele>
        <time>2014-06-29T08:11:47Z</time>
      </trkpt>
      <trkpt lat="41.615743565" lon="2.500168884">
        <ele>378.90</ele>
        <time>2014-06-29T08:11:55Z</time>
      </trkpt>
      <trkpt lat="41.615664524" lon="2.500201741">
        <ele>380.34</ele>
        <time>2014-06-29T08:12:03Z</time>
      </trkpt>
      <trkpt lat="41.615552374" lon="2.500218086">
        <ele>382.26</ele>
        <time>2014-06-29T08:12:13Z</time>
      </trkpt>
      <trkpt lat="41.615429495" lon="2.500221942">
        <ele>383.70</ele>
        <time>2014-06-29T08:12:23Z</time>
      </trkpt>
      <trkpt lat="41.615359423" lon="2.500224959">
        <ele>385.15</ele>
        <time>2014-06-29T08:12:28Z</time>
      </trkpt>
      <trkpt lat="41.615277029" lon="2.500195036">
        <ele>385.63</ele>
        <time>2014-06-29T08:12:34Z</time>
      </trkpt>
      <trkpt lat="41.615173009" lon="2.500048185">
        <ele>387.07</ele>
        <time>2014-06-29T08:12:45Z</time>
      </trkpt>
      <trkpt lat="41.615082820" lon="2.499962438">
        <ele>388.03</ele>
        <time>2014-06-29T08:12:53Z</time>
      </trkpt>
      <trkpt lat="41.614972179" lon="2.499958834">
        <ele>389.47</ele>
        <time>2014-06-29T08:13:01Z</time>
      </trkpt>
      <trkpt lat="41.614844103" lon="2.499973502">
        <ele>391.87</ele>
        <time>2014-06-29T08:13:11Z</time>
      </trkpt>
      <trkpt lat="41.614745951" lon="2.499893790">
        <ele>393.80</ele>
        <time>2014-06-29T08:13:20Z</time>
      </trkpt>
      <trkpt lat="41.614661462" lon="2.499758003">
        <ele>396.68</ele>
        <time>2014-06-29T08:13:30Z</time>
      </trkpt>
      <trkpt lat="41.614605554" lon="2.499643339">
        <ele>398.60</ele>
        <time>2014-06-29T08:13:37Z</time>
      </trkpt>
      <trkpt lat="41.614573368" lon="2.499511408">
        <ele>401.01</ele>
        <time>2014-06-29T08:13:46Z</time>
      </trkpt>
      <trkpt lat="41.614574709" lon="2.499384254">
        <ele>402.45</ele>
        <time>2014-06-29T08:13:54Z</time>
      </trkpt>
      <trkpt lat="41.614582420" lon="2.499299429">
        <ele>402.93</ele>
        <time>2014-06-29T08:13:59Z</time>
      </trkpt>
      <trkpt lat="41.614629107" lon="2.499127852">
        <ele>404.37</ele>
        <time>2014-06-29T08:14:08Z</time>
      </trkpt>
      <trkpt lat="41.614658779" lon="2.498960130">
        <ele>405.33</ele>
        <time>2014-06-29T08:14:17Z</time>
      </trkpt>
      <trkpt lat="41.614659450" lon="2.498942780">
        <ele>405.33</ele>
        <time>2014-06-29T08:14:18Z</time>
      </trkpt>
      <trkpt lat="41.614665988" lon="2.498912437">
        <ele>405.81</ele>
        <time>2014-06-29T08:14:20Z</time>
      </trkpt>
      <trkpt lat="41.614675459" lon="2.498725940">
        <ele>407.26</ele>
        <time>2014-06-29T08:14:31Z</time>
      </trkpt>
      <trkpt lat="41.614706472" lon="2.498539861">
        <ele>408.22</ele>
        <time>2014-06-29T08:14:41Z</time>
      </trkpt>
      <trkpt lat="41.614724661" lon="2.498357471">
        <ele>410.14</ele>
        <time>2014-06-29T08:14:51Z</time>
      </trkpt>
      <trkpt lat="41.614735474" lon="2.498182960">
        <ele>411.10</ele>
        <time>2014-06-29T08:15:01Z</time>
      </trkpt>
      <trkpt lat="41.614725416" lon="2.498044072">
        <ele>412.54</ele>
        <time>2014-06-29T08:15:09Z</time>
      </trkpt>
      <trkpt lat="41.614721308" lon="2.498026973">
        <ele>412.54</ele>
        <time>2014-06-29T08:15:10Z</time>
      </trkpt>
      <trkpt lat="41.614679483" lon="2.497826981">
        <ele>413.02</ele>
        <time>2014-06-29T08:15:18Z</time>
      </trkpt>
      <trkpt lat="41.614600860" lon="2.497628581">
        <ele>411.58</ele>
        <time>2014-06-29T08:15:22Z</time>
      </trkpt>
      <trkpt lat="41.614415872" lon="2.497441832">
        <ele>408.70</ele>
        <time>2014-06-29T08:15:26Z</time>
      </trkpt>
      <trkpt lat="41.614356193" lon="2.497445017">
        <ele>408.70</ele>
        <time>2014-06-29T08:15:27Z</time>
      </trkpt>
      <trkpt lat="41.614242702" lon="2.497556999">
        <ele>408.70</ele>
        <time>2014-06-29T08:15:30Z</time>
      </trkpt>
      <trkpt lat="41.614130887" lon="2.497699240">
        <ele>411.10</ele>
        <time>2014-06-29T08:15:38Z</time>
      </trkpt>
      <trkpt lat="41.614002812" lon="2.497768391">
        <ele>412.54</ele>
        <time>2014-06-29T08:15:46Z</time>
      </trkpt>
      <trkpt lat="41.613859900" lon="2.497785406">
        <ele>414.47</ele>
        <time>2014-06-29T08:15:55Z</time>
      </trkpt>
      <trkpt lat="41.613734256" lon="2.497677196">
        <ele>415.91</ele>
        <time>2014-06-29T08:16:04Z</time>
      </trkpt>
      <trkpt lat="41.613655885" lon="2.497553311">
        <ele>416.87</ele>
        <time>2014-06-29T08:16:11Z</time>
      </trkpt>
      <trkpt lat="41.613523534" lon="2.497365138">
        <ele>417.83</ele>
        <time>2014-06-29T08:16:23Z</time>
      </trkpt>
      <trkpt lat="41.613437368" lon="2.497341333">
        <ele>418.79</ele>
        <time>2014-06-29T08:16:29Z</time>
      </trkpt>
      <trkpt lat="41.613295463" lon="2.497380477">
        <ele>419.75</ele>
        <time>2014-06-29T08:16:37Z</time>
      </trkpt>
      <trkpt lat="41.613279705" lon="2.497387685">
        <ele>420.23</ele>
        <time>2014-06-29T08:16:38Z</time>
      </trkpt>
      <trkpt lat="41.613130256" lon="2.497367736">
        <ele>421.68</ele>
        <time>2014-06-29T08:16:48Z</time>
      </trkpt>
      <trkpt lat="41.613026823" lon="2.497217113">
        <ele>422.64</ele>
        <time>2014-06-29T08:16:56Z</time>
      </trkpt>
      <trkpt lat="41.612955661" lon="2.497051990">
        <ele>423.60</ele>
        <time>2014-06-29T08:17:04Z</time>
      </trkpt>
      <trkpt lat="41.612895227" lon="2.496918382">
        <ele>424.56</ele>
        <time>2014-06-29T08:17:11Z</time>
      </trkpt>
      <trkpt lat="41.612823143" lon="2.496747894">
        <ele>426.00</ele>
        <time>2014-06-29T08:17:20Z</time>
      </trkpt>
      <trkpt lat="41.612770840" lon="2.496576987">
        <ele>427.92</ele>
        <time>2014-06-29T08:17:29Z</time>
      </trkpt>
      <trkpt lat="41.612710155" lon="2.496421587">
        <ele>429.37</ele>
        <time>2014-06-29T08:17:37Z</time>
      </trkpt>
      <trkpt lat="41.612647206" lon="2.496258307">
        <ele>430.33</ele>
        <time>2014-06-29T08:17:45Z</time>
      </trkpt>
      <trkpt lat="41.612600519" lon="2.496074157">
        <ele>431.77</ele>
        <time>2014-06-29T08:17:53Z</time>
      </trkpt>
      <trkpt lat="41.612583588" lon="2.496014645">
        <ele>431.77</ele>
        <time>2014-06-29T08:17:56Z</time>
      </trkpt>
      <trkpt lat="41.612588030" lon="2.495826304">
        <ele>433.69</ele>
        <time>2014-06-29T08:18:08Z</time>
      </trkpt>
      <trkpt lat="41.612582582" lon="2.495794620">
        <ele>433.69</ele>
        <time>2014-06-29T08:18:10Z</time>
      </trkpt>
      <trkpt lat="41.612558023" lon="2.495760590">
        <ele>434.17</ele>
        <time>2014-06-29T08:18:18Z</time>
      </trkpt>
      <trkpt lat="41.612552742" lon="2.495750699">
        <ele>434.17</ele>
        <time>2014-06-29T08:18:31Z</time>
      </trkpt>
      <trkpt lat="41.612563807" lon="2.495737707">
        <ele>434.17</ele>
        <time>2014-06-29T08:18:49Z</time>
      </trkpt>
      <trkpt lat="41.612547546" lon="2.495743156">
        <ele>434.17</ele>
        <time>2014-06-29T08:19:07Z</time>
      </trkpt>
      <trkpt lat="41.612548719" lon="2.495725721">
        <ele>434.17</ele>
        <time>2014-06-29T08:19:18Z</time>
      </trkpt>
      <trkpt lat="41.612543439" lon="2.495716836">
        <ele>434.17</ele>
        <time>2014-06-29T08:19:35Z</time>
      </trkpt>
      <trkpt lat="41.612543941" lon="2.495704096">
        <ele>434.17</ele>
        <time>2014-06-29T08:19:50Z</time>
      </trkpt>
      <trkpt lat="41.612559029" lon="2.495696888">
        <ele>434.17</ele>
        <time>2014-06-29T08:20:03Z</time>
      </trkpt>
      <trkpt lat="41.612587863" lon="2.495711723">
        <ele>434.17</ele>
        <time>2014-06-29T08:20:25Z</time>
      </trkpt>
      <trkpt lat="41.612583755" lon="2.495721027">
        <ele>434.17</ele>
        <time>2014-06-29T08:20:41Z</time>
      </trkpt>
      <trkpt lat="41.612593143" lon="2.495723961">
        <ele>434.17</ele>
        <time>2014-06-29T08:20:43Z</time>
      </trkpt>
      <trkpt lat="41.612688697" lon="2.495794956">
        <ele>434.17</ele>
        <time>2014-06-29T08:20:51Z</time>
      </trkpt>
      <trkpt lat="41.612800092" lon="2.495806020">
        <ele>434.17</ele>
        <time>2014-06-29T08:20:59Z</time>
      </trkpt>
      <trkpt lat="41.612938310" lon="2.495819850">
        <ele>435.61</ele>
        <time>2014-06-29T08:21:08Z</time>
      </trkpt>
      <trkpt lat="41.613080886" lon="2.495852372">
        <ele>436.10</ele>
        <time>2014-06-29T08:21:17Z</time>
      </trkpt>
      <trkpt lat="41.613221367" lon="2.495894449">
        <ele>437.06</ele>
        <time>2014-06-29T08:21:26Z</time>
      </trkpt>
      <trkpt lat="41.613368888" lon="2.495900735">
        <ele>438.02</ele>
        <time>2014-06-29T08:21:34Z</time>
      </trkpt>
      <trkpt lat="41.613533090" lon="2.495853797">
        <ele>438.50</ele>
        <time>2014-06-29T08:21:43Z</time>
      </trkpt>
      <trkpt lat="41.613687904" lon="2.495791687">
        <ele>439.46</ele>
        <time>2014-06-29T08:21:52Z</time>
      </trkpt>
      <trkpt lat="41.613874904" lon="2.495713232">
        <ele>440.90</ele>
        <time>2014-06-29T08:22:03Z</time>
      </trkpt>
      <trkpt lat="41.614070202" lon="2.495654978">
        <ele>441.38</ele>
        <time>2014-06-29T08:22:13Z</time>
      </trkpt>
      <trkpt lat="41.614254939" lon="2.495613655">
        <ele>442.34</ele>
        <time>2014-06-29T08:22:24Z</time>
      </trkpt>
      <trkpt lat="41.614413525" lon="2.495593120">
        <ele>443.79</ele>
        <time>2014-06-29T08:22:33Z</time>
      </trkpt>
      <trkpt lat="41.614560124" lon="2.495567219">
        <ele>445.23</ele>
        <time>2014-06-29T08:22:42Z</time>
      </trkpt>
      <trkpt lat="41.614703204" lon="2.495508714">
        <ele>446.67</ele>
        <time>2014-06-29T08:22:51Z</time>
      </trkpt>
      <trkpt lat="41.614795907" lon="2.495464122">
        <ele>447.63</ele>
        <time>2014-06-29T08:22:58Z</time>
      </trkpt>
      <trkpt lat="41.614901771" lon="2.495405449">
        <ele>449.55</ele>
        <time>2014-06-29T08:23:06Z</time>
      </trkpt>
      <trkpt lat="41.615038228" lon="2.495369071">
        <ele>450.52</ele>
        <time>2014-06-29T08:23:14Z</time>
      </trkpt>
      <trkpt lat="41.615119281" lon="2.495401006">
        <ele>451.00</ele>
        <time>2014-06-29T08:23:19Z</time>
      </trkpt>
      <trkpt lat="41.615228162" lon="2.495543666">
        <ele>453.40</ele>
        <time>2014-06-29T08:23:30Z</time>
      </trkpt>
      <trkpt lat="41.615301755" lon="2.495650284">
        <ele>454.84</ele>
        <time>2014-06-29T08:23:38Z</time>
      </trkpt>
      <trkpt lat="41.615385239" lon="2.495758494">
        <ele>455.80</ele>
        <time>2014-06-29T08:23:46Z</time>
      </trkpt>
      <trkpt lat="41.615455228" lon="2.495909872">
        <ele>457.72</ele>
        <time>2014-06-29T08:23:56Z</time>
      </trkpt>
      <trkpt lat="41.615493449" lon="2.496055801">
        <ele>459.17</ele>
        <time>2014-06-29T08:24:04Z</time>
      </trkpt>
      <trkpt lat="41.615536281" lon="2.496197371">
        <ele>459.65</ele>
        <time>2014-06-29T08:24:12Z</time>
      </trkpt>
      <trkpt lat="41.615593865" lon="2.496343468">
        <ele>461.09</ele>
        <time>2014-06-29T08:24:20Z</time>
      </trkpt>
      <trkpt lat="41.615693190" lon="2.496516386">
        <ele>462.53</ele>
        <time>2014-06-29T08:24:31Z</time>
      </trkpt>
      <trkpt lat="41.615766616" lon="2.496667931">
        <ele>464.93</ele>
        <time>2014-06-29T08:24:40Z</time>
      </trkpt>
      <trkpt lat="41.615892260" lon="2.496768011">
        <ele>465.90</ele>
        <time>2014-06-29T08:24:50Z</time>
      </trkpt>
      <trkpt lat="41.616014636" lon="2.496745128">
        <ele>467.34</ele>
        <time>2014-06-29T08:24:59Z</time>
      </trkpt>
      <trkpt lat="41.616122846" lon="2.496663405">
        <ele>469.26</ele>
        <time>2014-06-29T08:25:08Z</time>
      </trkpt>
      <trkpt lat="41.616217394" lon="2.496570114">
        <ele>470.70</ele>
        <time>2014-06-29T08:25:17Z</time>
      </trkpt>
      <trkpt lat="41.616247402" lon="2.496521918">
        <ele>470.70</ele>
        <time>2014-06-29T08:25:20Z</time>
      </trkpt>
      <trkpt lat="41.616313702" lon="2.496343887">
        <ele>472.63</ele>
        <time>2014-06-29T08:25:31Z</time>
      </trkpt>
      <trkpt lat="41.616346308" lon="2.496173063">
        <ele>473.59</ele>
        <time>2014-06-29T08:25:41Z</time>
      </trkpt>
      <trkpt lat="41.616365083" lon="2.495971060">
        <ele>475.03</ele>
        <time>2014-06-29T08:25:52Z</time>
      </trkpt>
      <trkpt lat="41.616357204" lon="2.495771319">
        <ele>477.43</ele>
        <time>2014-06-29T08:26:02Z</time>
      </trkpt>
      <trkpt lat="41.616350247" lon="2.495598233">
        <ele>479.84</ele>
        <time>2014-06-29T08:26:12Z</time>
      </trkpt>
      <trkpt lat="41.616384865" lon="2.495489016">
        <ele>480.80</ele>
        <time>2014-06-29T08:26:19Z</time>
      </trkpt>
      <trkpt lat="41.616425517" lon="2.495443838">
        <ele>481.28</ele>
        <time>2014-06-29T08:26:23Z</time>
      </trkpt>
      <trkpt lat="41.616478658" lon="2.495415926">
        <ele>481.28</ele>
        <time>2014-06-29T08:26:27Z</time>
      </trkpt>
      <trkpt lat="41.616641854" lon="2.495425062">
        <ele>481.76</ele>
        <time>2014-06-29T08:26:36Z</time>
      </trkpt>
      <trkpt lat="41.616815359" lon="2.495485999">
        <ele>482.24</ele>
        <time>2014-06-29T08:26:44Z</time>
      </trkpt>
      <trkpt lat="41.617068325" lon="2.495587587">
        <ele>483.20</ele>
        <time>2014-06-29T08:26:55Z</time>
      </trkpt>
      <trkpt lat="41.617259768" lon="2.495647183">
        <ele>484.16</ele>
        <time>2014-06-29T08:27:04Z</time>
      </trkpt>
      <trkpt lat="41.617420952" lon="2.495621953">
        <ele>484.64</ele>
        <time>2014-06-29T08:27:12Z</time>
      </trkpt>
      <trkpt lat="41.617592446" lon="2.495612063">
        <ele>486.08</ele>
        <time>2014-06-29T08:27:22Z</time>
      </trkpt>
      <trkpt lat="41.617689424" lon="2.495611476">
        <ele>486.56</ele>
        <time>2014-06-29T08:27:28Z</time>
      </trkpt>
      <trkpt lat="41.617767292" lon="2.495633520">
        <ele>487.53</ele>
        <time>2014-06-29T08:27:33Z</time>
      </trkpt>
      <trkpt lat="41.617907102" lon="2.495675514">
        <ele>488.97</ele>
        <time>2014-06-29T08:27:42Z</time>
      </trkpt>
      <trkpt lat="41.618021012" lon="2.495702168">
        <ele>490.41</ele>
        <time>2014-06-29T08:27:50Z</time>
      </trkpt>
      <trkpt lat="41.618184208" lon="2.495702755">
        <ele>491.37</ele>
        <time>2014-06-29T08:27:58Z</time>
      </trkpt>
      <trkpt lat="41.618340447" lon="2.495681716">
        <ele>493.29</ele>
        <time>2014-06-29T08:28:06Z</time>
      </trkpt>
      <trkpt lat="41.618519652" lon="2.495570237">
        <ele>494.74</ele>
        <time>2014-06-29T08:28:16Z</time>
      </trkpt>
      <trkpt lat="41.618648817" lon="2.495439312">
        <ele>496.18</ele>
        <time>2014-06-29T08:28:25Z</time>
      </trkpt>
      <trkpt lat="41.618777228" lon="2.495281732">
        <ele>496.66</ele>
        <time>2014-06-29T08:28:34Z</time>
      </trkpt>
      <trkpt lat="41.618882672" lon="2.495160362">
        <ele>497.14</ele>
        <time>2014-06-29T08:28:41Z</time>
      </trkpt>
      <trkpt lat="41.619056429" lon="2.495029939">
        <ele>497.62</ele>
        <time>2014-06-29T08:28:51Z</time>
      </trkpt>
      <trkpt lat="41.619234293" lon="2.495039327">
        <ele>498.10</ele>
        <time>2014-06-29T08:29:00Z</time>
      </trkpt>
      <trkpt lat="41.619422047" lon="2.495133037">
        <ele>498.58</ele>
        <time>2014-06-29T08:29:09Z</time>
      </trkpt>
      <trkpt lat="41.619602258" lon="2.495244181">
        <ele>499.06</ele>
        <time>2014-06-29T08:29:18Z</time>
      </trkpt>
      <trkpt lat="41.619781966" lon="2.495343842">
        <ele>500.50</ele>
        <time>2014-06-29T08:29:27Z</time>
      </trkpt>
      <trkpt lat="41.619893529" lon="2.495282570">
        <ele>500.98</ele>
        <time>2014-06-29T08:29:33Z</time>
      </trkpt>
      <trkpt lat="41.620006015" lon="2.495177964">
        <ele>501.46</ele>
        <time>2014-06-29T08:29:40Z</time>
      </trkpt>
      <trkpt lat="41.620138532" lon="2.495070089">
        <ele>502.43</ele>
        <time>2014-06-29T08:29:48Z</time>
      </trkpt>
      <trkpt lat="41.620270547" lon="2.494924327">
        <ele>503.87</ele>
        <time>2014-06-29T08:29:57Z</time>
      </trkpt>
      <trkpt lat="41.620347158" lon="2.494814105">
        <ele>505.31</ele>
        <time>2014-06-29T08:30:04Z</time>
      </trkpt>
      <trkpt lat="41.620430139" lon="2.494778399">
        <ele>505.79</ele>
        <time>2014-06-29T08:30:09Z</time>
      </trkpt>
      <trkpt lat="41.620571039" lon="2.494891051">
        <ele>507.71</ele>
        <time>2014-06-29T08:30:19Z</time>
      </trkpt>
      <trkpt lat="41.620614373" lon="2.494923238">
        <ele>508.19</ele>
        <time>2014-06-29T08:30:22Z</time>
      </trkpt>
      <trkpt lat="41.620759296" lon="2.495047122">
        <ele>509.64</ele>
        <time>2014-06-29T08:30:32Z</time>
      </trkpt>
      <trkpt lat="41.620871781" lon="2.495123230">
        <ele>510.12</ele>
        <time>2014-06-29T08:30:39Z</time>
      </trkpt>
      <trkpt lat="41.621037659" lon="2.495217275">
        <ele>511.56</ele>
        <time>2014-06-29T08:30:49Z</time>
      </trkpt>
      <trkpt lat="41.621168165" lon="2.495134546">
        <ele>512.52</ele>
        <time>2014-06-29T08:30:57Z</time>
      </trkpt>
      <trkpt lat="41.621213344" lon="2.494959196">
        <ele>513.00</ele>
        <time>2014-06-29T08:31:05Z</time>
      </trkpt>
      <trkpt lat="41.621218708" lon="2.494936230">
        <ele>513.00</ele>
        <time>2014-06-29T08:31:06Z</time>
      </trkpt>
      <trkpt lat="41.621276292" lon="2.494855847">
        <ele>513.00</ele>
        <time>2014-06-29T08:31:10Z</time>
      </trkpt>
      <trkpt lat="41.621411241" lon="2.494717378">
        <ele>513.00</ele>
        <time>2014-06-29T08:31:18Z</time>
      </trkpt>
      <trkpt lat="41.621430519" lon="2.494541777">
        <ele>513.48</ele>
        <time>2014-06-29T08:31:24Z</time>
      </trkpt>
      <trkpt lat="41.621406463" lon="2.494314209">
        <ele>513.96</ele>
        <time>2014-06-29T08:31:31Z</time>
      </trkpt>
      <trkpt lat="41.621427334" lon="2.494041545">
        <ele>513.96</ele>
        <time>2014-06-29T08:31:38Z</time>
      </trkpt>
      <trkpt lat="41.621564881" lon="2.493897880">
        <ele>513.96</ele>
        <time>2014-06-29T08:31:44Z</time>
      </trkpt>
      <trkpt lat="41.621740901" lon="2.493719932">
        <ele>512.52</ele>
        <time>2014-06-29T08:31:50Z</time>
      </trkpt>
      <trkpt lat="41.621852296" lon="2.493620103">
        <ele>512.04</ele>
        <time>2014-06-29T08:31:53Z</time>
      </trkpt>
      <trkpt lat="41.622054887" lon="2.493633766">
        <ele>511.56</ele>
        <time>2014-06-29T08:31:58Z</time>
      </trkpt>
      <trkpt lat="41.622106352" lon="2.493721021">
        <ele>511.08</ele>
        <time>2014-06-29T08:32:00Z</time>
      </trkpt>
      <trkpt lat="41.622294777" lon="2.493926713">
        <ele>511.08</ele>
        <time>2014-06-29T08:32:06Z</time>
      </trkpt>
      <trkpt lat="41.622376752" lon="2.493933838">
        <ele>511.08</ele>
        <time>2014-06-29T08:32:08Z</time>
      </trkpt>
      <trkpt lat="41.622570039" lon="2.493919170">
        <ele>510.60</ele>
        <time>2014-06-29T08:32:13Z</time>
      </trkpt>
      <trkpt lat="41.622730049" lon="2.493994188">
        <ele>510.12</ele>
        <time>2014-06-29T08:32:17Z</time>
      </trkpt>
      <trkpt lat="41.622917217" lon="2.494216308">
        <ele>509.64</ele>
        <time>2014-06-29T08:32:22Z</time>
      </trkpt>
      <trkpt lat="41.623097093" lon="2.494565414">
        <ele>509.64</ele>
        <time>2014-06-29T08:32:30Z</time>
      </trkpt>
      <trkpt lat="41.623171608" lon="2.494944193">
        <ele>509.64</ele>
        <time>2014-06-29T08:32:38Z</time>
      </trkpt>
      <trkpt lat="41.623165238" lon="2.495286593">
        <ele>509.64</ele>
        <time>2014-06-29T08:32:46Z</time>
      </trkpt>
      <trkpt lat="41.623082844" lon="2.495545259">
        <ele>511.08</ele>
        <time>2014-06-29T08:32:53Z</time>
      </trkpt>
      <trkpt lat="41.623146378" lon="2.495696720">
        <ele>511.08</ele>
        <time>2014-06-29T08:32:58Z</time>
      </trkpt>
      <trkpt lat="41.623274705" lon="2.495848013">
        <ele>512.52</ele>
        <time>2014-06-29T08:33:05Z</time>
      </trkpt>
      <trkpt lat="41.623380401" lon="2.496120341">
        <ele>513.48</ele>
        <time>2014-06-29T08:33:14Z</time>
      </trkpt>
      <trkpt lat="41.623478553" lon="2.496278843">
        <ele>513.48</ele>
        <time>2014-06-29T08:33:21Z</time>
      </trkpt>
      <trkpt lat="41.623665805" lon="2.496341204">
        <ele>513.96</ele>
        <time>2014-06-29T08:33:28Z</time>
      </trkpt>
      <trkpt lat="41.623862528" lon="2.496324273">
        <ele>513.96</ele>
        <time>2014-06-29T08:33:35Z</time>
      </trkpt>
      <trkpt lat="41.623948191" lon="2.496296613">
        <ele>513.00</ele>
        <time>2014-06-29T08:33:39Z</time>
      </trkpt>
      <trkpt lat="41.624048104" lon="2.496240202">
        <ele>511.56</ele>
        <time>2014-06-29T08:33:45Z</time>
      </trkpt>
      <trkpt lat="41.624077440" lon="2.496242968">
        <ele>511.56</ele>
        <time>2014-06-29T08:33:56Z</time>
      </trkpt>
      <trkpt lat="41.624078362" lon="2.496243723">
        <ele>511.08</ele>
        <time>2014-06-29T08:34:12Z</time>
      </trkpt>
      <trkpt lat="41.624078446" lon="2.496256715">
        <ele>511.08</ele>
        <time>2014-06-29T08:34:29Z</time>
      </trkpt>
      <trkpt lat="41.624087918" lon="2.496249925">
        <ele>511.08</ele>
        <time>2014-06-29T08:34:44Z</time>
      </trkpt>
      <trkpt lat="41.624090935" lon="2.496260570">
        <ele>511.08</ele>
        <time>2014-06-29T08:35:04Z</time>
      </trkpt>
      <trkpt lat="41.624087750" lon="2.496262498">
        <ele>511.08</ele>
        <time>2014-06-29T08:35:17Z</time>
      </trkpt>
      <trkpt lat="41.624107447" lon="2.496269036">
        <ele>511.08</ele>
        <time>2014-06-29T08:35:27Z</time>
      </trkpt>
      <trkpt lat="41.624104933" lon="2.496275574">
        <ele>511.08</ele>
        <time>2014-06-29T08:35:41Z</time>
      </trkpt>
      <trkpt lat="41.624107699" lon="2.496272724">
        <ele>511.08</ele>
        <time>2014-06-29T08:35:53Z</time>
      </trkpt>
      <trkpt lat="41.624111638" lon="2.496281190">
        <ele>511.08</ele>
        <time>2014-06-29T08:36:01Z</time>
      </trkpt>
      <trkpt lat="41.624125552" lon="2.496323183">
        <ele>511.08</ele>
        <time>2014-06-29T08:36:08Z</time>
      </trkpt>
      <trkpt lat="41.624136449" lon="2.496358723">
        <ele>512.52</ele>
        <time>2014-06-29T08:36:16Z</time>
      </trkpt>
      <trkpt lat="41.624144160" lon="2.496370709">
        <ele>512.52</ele>
        <time>2014-06-29T08:36:18Z</time>
      </trkpt>
      <trkpt lat="41.624183974" lon="2.496467017">
        <ele>511.08</ele>
        <time>2014-06-29T08:36:24Z</time>
      </trkpt>
      <trkpt lat="41.624184058" lon="2.496558882">
        <ele>509.64</ele>
        <time>2014-06-29T08:36:29Z</time>
      </trkpt>
      <trkpt lat="41.624190512" lon="2.496681091">
        <ele>508.19</ele>
        <time>2014-06-29T08:36:35Z</time>
      </trkpt>
      <trkpt lat="41.624211215" lon="2.496893823">
        <ele>505.79</ele>
        <time>2014-06-29T08:36:41Z</time>
      </trkpt>
      <trkpt lat="41.624287323" lon="2.497084260">
        <ele>504.35</ele>
        <time>2014-06-29T08:36:46Z</time>
      </trkpt>
      <trkpt lat="41.624341554" lon="2.497147292">
        <ele>503.87</ele>
        <time>2014-06-29T08:36:48Z</time>
      </trkpt>
      <trkpt lat="41.624472563" lon="2.497380477">
        <ele>501.95</ele>
        <time>2014-06-29T08:36:53Z</time>
      </trkpt>
      <trkpt lat="41.624565351" lon="2.497450465">
        <ele>500.98</ele>
        <time>2014-06-29T08:36:57Z</time>
      </trkpt>
      <trkpt lat="41.624628969" lon="2.497444179">
        <ele>499.54</ele>
        <time>2014-06-29T08:36:59Z</time>
      </trkpt>
      <trkpt lat="41.624777245" lon="2.497462535">
        <ele>496.66</ele>
        <time>2014-06-29T08:37:03Z</time>
      </trkpt>
      <trkpt lat="41.624927617" lon="2.497481395">
        <ele>493.29</ele>
        <time>2014-06-29T08:37:07Z</time>
      </trkpt>
      <trkpt lat="41.625041527" lon="2.497524729">
        <ele>490.89</ele>
        <time>2014-06-29T08:37:10Z</time>
      </trkpt>
      <trkpt lat="41.625188294" lon="2.497697229">
        <ele>487.53</ele>
        <time>2014-06-29T08:37:15Z</time>
      </trkpt>
      <trkpt lat="41.625217379" lon="2.497798398">
        <ele>486.56</ele>
        <time>2014-06-29T08:37:18Z</time>
      </trkpt>
      <trkpt lat="41.625226012" lon="2.498098554">
        <ele>483.68</ele>
        <time>2014-06-29T08:37:24Z</time>
      </trkpt>
      <trkpt lat="41.625214864" lon="2.498237107">
        <ele>482.72</ele>
        <time>2014-06-29T08:37:29Z</time>
      </trkpt>
      <trkpt lat="41.625234394" lon="2.498272395">
        <ele>482.72</ele>
        <time>2014-06-29T08:37:35Z</time>
      </trkpt>
      <trkpt lat="41.625267838" lon="2.498231743">
        <ele>481.76</ele>
        <time>2014-06-29T08:37:42Z</time>
      </trkpt>
      <trkpt lat="41.625284937" lon="2.498202657">
        <ele>482.24</ele>
        <time>2014-06-29T08:37:48Z</time>
      </trkpt>
      <trkpt lat="41.625306730" lon="2.498181367">
        <ele>481.76</ele>
        <time>2014-06-29T08:37:55Z</time>
      </trkpt>
      <trkpt lat="41.625357524" lon="2.498118000">
        <ele>480.32</ele>
        <time>2014-06-29T08:38:01Z</time>
      </trkpt>
      <trkpt lat="41.625396668" lon="2.498007108">
        <ele>479.35</ele>
        <time>2014-06-29T08:38:09Z</time>
      </trkpt>
      <trkpt lat="41.625400943" lon="2.497993445">
        <ele>479.35</ele>
        <time>2014-06-29T08:38:10Z</time>
      </trkpt>
      <trkpt lat="41.625422652" lon="2.497936700">
        <ele>478.39</ele>
        <time>2014-06-29T08:38:14Z</time>
      </trkpt>
      <trkpt lat="41.625452408" lon="2.497821951">
        <ele>476.95</ele>
        <time>2014-06-29T08:38:19Z</time>
      </trkpt>
      <trkpt lat="41.625531365" lon="2.497558173">
        <ele>475.99</ele>
        <time>2014-06-29T08:38:29Z</time>
      </trkpt>
      <trkpt lat="41.625542932" lon="2.497478712">
        <ele>475.03</ele>
        <time>2014-06-29T08:38:32Z</time>
      </trkpt>
      <trkpt lat="41.625499430" lon="2.497374190">
        <ele>473.59</ele>
        <time>2014-06-29T08:38:37Z</time>
      </trkpt>
      <trkpt lat="41.625336989" lon="2.497168582">
        <ele>471.66</ele>
        <time>2014-06-29T08:38:46Z</time>
      </trkpt>
      <trkpt lat="41.625244872" lon="2.497134719">
        <ele>470.70</ele>
        <time>2014-06-29T08:38:52Z</time>
      </trkpt>
      <trkpt lat="41.625131548" lon="2.497088200">
        <ele>469.74</ele>
        <time>2014-06-29T08:38:59Z</time>
      </trkpt>
      <trkpt lat="41.625114282" lon="2.497072777">
        <ele>469.26</ele>
        <time>2014-06-29T08:39:11Z</time>
      </trkpt>
      <trkpt lat="41.625085364" lon="2.497025168">
        <ele>469.26</ele>
        <time>2014-06-29T08:39:16Z</time>
      </trkpt>
      <trkpt lat="41.625114868" lon="2.496888627">
        <ele>468.78</ele>
        <time>2014-06-29T08:39:25Z</time>
      </trkpt>
      <trkpt lat="41.625132722" lon="2.496831713">
        <ele>468.78</ele>
        <time>2014-06-29T08:39:29Z</time>
      </trkpt>
      <trkpt lat="41.625138673" lon="2.496792318">
        <ele>470.22</ele>
        <time>2014-06-29T08:39:31Z</time>
      </trkpt>
      <trkpt lat="41.625158538" lon="2.496737082">
        <ele>470.70</ele>
        <time>2014-06-29T08:39:37Z</time>
      </trkpt>
      <trkpt lat="41.625182175" lon="2.496689556">
        <ele>470.70</ele>
        <time>2014-06-29T08:39:47Z</time>
      </trkpt>
      <trkpt lat="41.625229784" lon="2.496633733">
        <ele>471.66</ele>
        <time>2014-06-29T08:39:56Z</time>
      </trkpt>
      <trkpt lat="41.625268090" lon="2.496584363">
        <ele>472.63</ele>
        <time>2014-06-29T08:40:03Z</time>
      </trkpt>
      <trkpt lat="41.625300528" lon="2.496427873">
        <ele>474.07</ele>
        <time>2014-06-29T08:40:12Z</time>
      </trkpt>
      <trkpt lat="41.625352328" lon="2.496310862">
        <ele>475.51</ele>
        <time>2014-06-29T08:40:19Z</time>
      </trkpt>
      <trkpt lat="41.625356938" lon="2.496294266">
        <ele>475.51</ele>
        <time>2014-06-29T08:40:20Z</time>
      </trkpt>
      <trkpt lat="41.625355261" lon="2.496209609">
        <ele>476.47</ele>
        <time>2014-06-29T08:40:25Z</time>
      </trkpt>
      <trkpt lat="41.625301198" lon="2.496100811">
        <ele>477.43</ele>
        <time>2014-06-29T08:40:32Z</time>
      </trkpt>
      <trkpt lat="41.625206818" lon="2.495930072">
        <ele>478.39</ele>
        <time>2014-06-29T08:40:43Z</time>
      </trkpt>
      <trkpt lat="41.625205644" lon="2.495835608">
        <ele>478.87</ele>
        <time>2014-06-29T08:40:47Z</time>
      </trkpt>
      <trkpt lat="41.625308909" lon="2.495759333">
        <ele>477.43</ele>
        <time>2014-06-29T08:40:53Z</time>
      </trkpt>
      <trkpt lat="41.625434806" lon="2.495689009">
        <ele>475.99</ele>
        <time>2014-06-29T08:41:01Z</time>
      </trkpt>
      <trkpt lat="41.625520217" lon="2.495531429">
        <ele>473.59</ele>
        <time>2014-06-29T08:41:09Z</time>
      </trkpt>
      <trkpt lat="41.625637815" lon="2.495417770">
        <ele>471.66</ele>
        <time>2014-06-29T08:41:15Z</time>
      </trkpt>
      <trkpt lat="41.625731274" lon="2.495322636">
        <ele>470.22</ele>
        <time>2014-06-29T08:41:19Z</time>
      </trkpt>
      <trkpt lat="41.625829845" lon="2.495179389">
        <ele>469.26</ele>
        <time>2014-06-29T08:41:26Z</time>
      </trkpt>
      <trkpt lat="41.625879466" lon="2.495052235">
        <ele>468.30</ele>
        <time>2014-06-29T08:41:36Z</time>
      </trkpt>
      <trkpt lat="41.625983066" lon="2.494874288">
        <ele>466.86</ele>
        <time>2014-06-29T08:41:42Z</time>
      </trkpt>
      <trkpt lat="41.626001003" lon="2.494646551">
        <ele>465.90</ele>
        <time>2014-06-29T08:41:49Z</time>
      </trkpt>
      <trkpt lat="41.625994884" lon="2.494626351">
        <ele>465.90</ele>
        <time>2014-06-29T08:41:50Z</time>
      </trkpt>
      <trkpt lat="41.625937720" lon="2.494502382">
        <ele>465.42</ele>
        <time>2014-06-29T08:41:56Z</time>
      </trkpt>
      <trkpt lat="41.625836718" lon="2.494319406">
        <ele>464.93</ele>
        <time>2014-06-29T08:42:04Z</time>
      </trkpt>
      <trkpt lat="41.625867060" lon="2.494212620">
        <ele>464.45</ele>
        <time>2014-06-29T08:42:08Z</time>
      </trkpt>
      <trkpt lat="41.625985916" lon="2.494088819">
        <ele>461.57</ele>
        <time>2014-06-29T08:42:16Z</time>
      </trkpt>
      <trkpt lat="41.626010307" lon="2.494052610">
        <ele>460.61</ele>
        <time>2014-06-29T08:42:18Z</time>
      </trkpt>
      <trkpt lat="41.626119775" lon="2.494008772">
        <ele>458.69</ele>
        <time>2014-06-29T08:42:23Z</time>
      </trkpt>
      <trkpt lat="41.626093791" lon="2.493894024">
        <ele>455.80</ele>
        <time>2014-06-29T08:42:28Z</time>
      </trkpt>
      <trkpt lat="41.626028663" lon="2.493817162">
        <ele>454.36</ele>
        <time>2014-06-29T08:42:32Z</time>
      </trkpt>
      <trkpt lat="41.625937971" lon="2.493666623">
        <ele>451.00</ele>
        <time>2014-06-29T08:42:39Z</time>
      </trkpt>
      <trkpt lat="41.625847279" lon="2.493563945">
        <ele>448.59</ele>
        <time>2014-06-29T08:42:45Z</time>
      </trkpt>
      <trkpt lat="41.625765555" lon="2.493449951">
        <ele>446.19</ele>
        <time>2014-06-29T08:42:53Z</time>
      </trkpt>
      <trkpt lat="41.625736973" lon="2.493400833">
        <ele>445.71</ele>
        <time>2014-06-29T08:42:55Z</time>
      </trkpt>
      <trkpt lat="41.625715683" lon="2.493345847">
        <ele>444.75</ele>
        <time>2014-06-29T08:42:58Z</time>
      </trkpt>
      <trkpt lat="41.625737308" lon="2.493246187">
        <ele>443.79</ele>
        <time>2014-06-29T08:43:02Z</time>
      </trkpt>
      <trkpt lat="41.625785504" lon="2.493128756">
        <ele>444.27</ele>
        <time>2014-06-29T08:43:10Z</time>
      </trkpt>
      <trkpt lat="41.625781062" lon="2.493089277">
        <ele>444.27</ele>
        <time>2014-06-29T08:43:26Z</time>
      </trkpt>
      <trkpt lat="41.625785756" lon="2.493070251">
        <ele>444.27</ele>
        <time>2014-06-29T08:43:41Z</time>
      </trkpt>
      <trkpt lat="41.625800592" lon="2.493039824">
        <ele>444.27</ele>
        <time>2014-06-29T08:43:49Z</time>
      </trkpt>
      <trkpt lat="41.625824983" lon="2.493011493">
        <ele>444.27</ele>
        <time>2014-06-29T08:43:52Z</time>
      </trkpt>
      <trkpt lat="41.625845686" lon="2.492807897">
        <ele>444.27</ele>
        <time>2014-06-29T08:44:00Z</time>
      </trkpt>
      <trkpt lat="41.625812243" lon="2.492634727">
        <ele>443.31</ele>
        <time>2014-06-29T08:44:08Z</time>
      </trkpt>
      <trkpt lat="41.625931098" lon="2.492495839">
        <ele>442.82</ele>
        <time>2014-06-29T08:44:17Z</time>
      </trkpt>
      <trkpt lat="41.626054144" lon="2.492435405">
        <ele>444.27</ele>
        <time>2014-06-29T08:44:24Z</time>
      </trkpt>
      <trkpt lat="41.626151207" lon="2.492290817">
        <ele>444.75</ele>
        <time>2014-06-29T08:44:31Z</time>
      </trkpt>
      <trkpt lat="41.626201331" lon="2.492109601">
        <ele>445.71</ele>
        <time>2014-06-29T08:44:39Z</time>
      </trkpt>
      <trkpt lat="41.626249862" lon="2.491936347">
        <ele>446.19</ele>
        <time>2014-06-29T08:44:46Z</time>
      </trkpt>
      <trkpt lat="41.626300824" lon="2.491843559">
        <ele>446.19</ele>
        <time>2014-06-29T08:44:50Z</time>
      </trkpt>
      <trkpt lat="41.626364694" lon="2.491750101">
        <ele>446.67</ele>
        <time>2014-06-29T08:44:55Z</time>
      </trkpt>
      <trkpt lat="41.626520849" lon="2.491631916">
        <ele>448.11</ele>
        <time>2014-06-29T08:45:04Z</time>
      </trkpt>
      <trkpt lat="41.626594693" lon="2.491495542">
        <ele>449.07</ele>
        <time>2014-06-29T08:45:11Z</time>
      </trkpt>
      <trkpt lat="41.626563010" lon="2.491382806">
        <ele>450.03</ele>
        <time>2014-06-29T08:45:17Z</time>
      </trkpt>
      <trkpt lat="41.626482963" lon="2.491235787">
        <ele>451.48</ele>
        <time>2014-06-29T08:45:25Z</time>
      </trkpt>
      <trkpt lat="41.626391097" lon="2.491111316">
        <ele>453.88</ele>
        <time>2014-06-29T08:45:33Z</time>
      </trkpt>
      <trkpt lat="41.626289844" lon="2.491044009">
        <ele>455.32</ele>
        <time>2014-06-29T08:45:40Z</time>
      </trkpt>
      <trkpt lat="41.626208288" lon="2.490987348">
        <ele>456.28</ele>
        <time>2014-06-29T08:45:46Z</time>
      </trkpt>
      <trkpt lat="41.626195128" lon="2.490953233">
        <ele>456.28</ele>
        <time>2014-06-29T08:45:48Z</time>
      </trkpt>
      <trkpt lat="41.626248940" lon="2.490819374">
        <ele>456.28</ele>
        <time>2014-06-29T08:45:54Z</time>
      </trkpt>
      <trkpt lat="41.626288838" lon="2.490771765">
        <ele>456.28</ele>
        <time>2014-06-29T08:45:56Z</time>
      </trkpt>
      <trkpt lat="41.626400233" lon="2.490701357">
        <ele>454.84</ele>
        <time>2014-06-29T08:46:00Z</time>
      </trkpt>
      <trkpt lat="41.626591257" lon="2.490650144">
        <ele>452.92</ele>
        <time>2014-06-29T08:46:07Z</time>
      </trkpt>
      <trkpt lat="41.626786471" lon="2.490565822">
        <ele>450.52</ele>
        <time>2014-06-29T08:46:13Z</time>
      </trkpt>
      <trkpt lat="41.626775072" lon="2.490335571">
        <ele>450.03</ele>
        <time>2014-06-29T08:46:18Z</time>
      </trkpt>
      <trkpt lat="41.626822765" lon="2.490115713">
        <ele>450.03</ele>
        <time>2014-06-29T08:46:25Z</time>
      </trkpt>
      <trkpt lat="41.626828129" lon="2.490058465">
        <ele>451.48</ele>
        <time>2014-06-29T08:46:27Z</time>
      </trkpt>
      <trkpt lat="41.626896442" lon="2.489812791">
        <ele>452.92</ele>
        <time>2014-06-29T08:46:35Z</time>
      </trkpt>
      <trkpt lat="41.626922090" lon="2.489779515">
        <ele>452.92</ele>
        <time>2014-06-29T08:46:36Z</time>
      </trkpt>
      <trkpt lat="41.627055195" lon="2.489830142">
        <ele>452.92</ele>
        <time>2014-06-29T08:46:41Z</time>
      </trkpt>
      <trkpt lat="41.627116718" lon="2.489951680">
        <ele>451.96</ele>
        <time>2014-06-29T08:46:45Z</time>
      </trkpt>
      <trkpt lat="41.627213529" lon="2.489902478">
        <ele>450.52</ele>
        <time>2014-06-29T08:46:49Z</time>
      </trkpt>
      <trkpt lat="41.627218810" lon="2.489861574">
        <ele>450.52</ele>
        <time>2014-06-29T08:46:50Z</time>
      </trkpt>
      <trkpt lat="41.627189389" lon="2.489503667">
        <ele>449.55</ele>
        <time>2014-06-29T08:46:58Z</time>
      </trkpt>
      <trkpt lat="41.627157790" lon="2.489396630">
        <ele>449.07</ele>
        <time>2014-06-29T08:47:00Z</time>
      </trkpt>
      <trkpt lat="41.627158712" lon="2.489129080">
        <ele>448.59</ele>
        <time>2014-06-29T08:47:05Z</time>
      </trkpt>
      <trkpt lat="41.627286452" lon="2.489031430">
        <ele>448.59</ele>
        <time>2014-06-29T08:47:10Z</time>
      </trkpt>
      <trkpt lat="41.627430956" lon="2.488895560">
        <ele>448.59</ele>
        <time>2014-06-29T08:47:16Z</time>
      </trkpt>
      <trkpt lat="41.627555092" lon="2.488616191">
        <ele>448.59</ele>
        <time>2014-06-29T08:47:24Z</time>
      </trkpt>
      <trkpt lat="41.627637234" lon="2.488359202">
        <ele>451.96</ele>
        <time>2014-06-29T08:47:33Z</time>
      </trkpt>
      <trkpt lat="41.627690460" lon="2.488152756">
        <ele>454.36</ele>
        <time>2014-06-29T08:47:41Z</time>
      </trkpt>
      <trkpt lat="41.627798335" lon="2.487922840">
        <ele>454.84</ele>
        <time>2014-06-29T08:47:48Z</time>
      </trkpt>
      <trkpt lat="41.627874945" lon="2.487775067">
        <ele>454.84</ele>
        <time>2014-06-29T08:47:52Z</time>
      </trkpt>
      <trkpt lat="41.627975528" lon="2.487861987">
        <ele>454.84</ele>
        <time>2014-06-29T08:47:57Z</time>
      </trkpt>
      <trkpt lat="41.628100754" lon="2.488109253">
        <ele>454.84</ele>
        <time>2014-06-29T08:48:05Z</time>
      </trkpt>
      <trkpt lat="41.628246599" lon="2.488155019">
        <ele>455.32</ele>
        <time>2014-06-29T08:48:11Z</time>
      </trkpt>
      <trkpt lat="41.628327065" lon="2.488166586">
        <ele>455.80</ele>
        <time>2014-06-29T08:48:14Z</time>
      </trkpt>
      <trkpt lat="41.628385738" lon="2.488339504">
        <ele>455.80</ele>
        <time>2014-06-29T08:48:19Z</time>
      </trkpt>
      <trkpt lat="41.628364281" lon="2.488535976">
        <ele>456.76</ele>
        <time>2014-06-29T08:48:25Z</time>
      </trkpt>
      <trkpt lat="41.628443238" lon="2.488699088">
        <ele>458.69</ele>
        <time>2014-06-29T08:48:31Z</time>
      </trkpt>
      <trkpt lat="41.628583551" lon="2.488785086">
        <ele>461.09</ele>
        <time>2014-06-29T08:48:38Z</time>
      </trkpt>
      <trkpt lat="41.628654630" lon="2.488846023">
        <ele>461.57</ele>
        <time>2014-06-29T08:48:42Z</time>
      </trkpt>
      <trkpt lat="41.628653876" lon="2.489028245">
        <ele>463.49</ele>
        <time>2014-06-29T08:48:49Z</time>
      </trkpt>
      <trkpt lat="41.628633507" lon="2.489096642">
        <ele>463.97</ele>
        <time>2014-06-29T08:48:52Z</time>
      </trkpt>
      <trkpt lat="41.628613223" lon="2.489283726">
        <ele>463.97</ele>
        <time>2014-06-29T08:49:01Z</time>
      </trkpt>
      <trkpt lat="41.628632837" lon="2.489370311">
        <ele>463.97</ele>
        <time>2014-06-29T08:49:09Z</time>
      </trkpt>
      <trkpt lat="41.628628227" lon="2.489390092">
        <ele>463.01</ele>
        <time>2014-06-29T08:49:18Z</time>
      </trkpt>
      <trkpt lat="41.628633172" lon="2.489417920">
        <ele>463.01</ele>
        <time>2014-06-29T08:49:27Z</time>
      </trkpt>
      <trkpt lat="41.628688996" lon="2.489551611">
        <ele>462.53</ele>
        <time>2014-06-29T08:49:34Z</time>
      </trkpt>
      <trkpt lat="41.628741634" lon="2.489635766">
        <ele>463.97</ele>
        <time>2014-06-29T08:49:39Z</time>
      </trkpt>
      <trkpt lat="41.628819921" lon="2.489697624">
        <ele>465.90</ele>
        <time>2014-06-29T08:49:46Z</time>
      </trkpt>
      <trkpt lat="41.628915139" lon="2.489751855">
        <ele>467.82</ele>
        <time>2014-06-29T08:49:54Z</time>
      </trkpt>
      <trkpt lat="41.628993929" lon="2.489830477">
        <ele>469.74</ele>
        <time>2014-06-29T08:50:02Z</time>
      </trkpt>
      <trkpt lat="41.629039778" lon="2.489904490">
        <ele>472.14</ele>
        <time>2014-06-29T08:50:08Z</time>
      </trkpt>
      <trkpt lat="41.629078419" lon="2.490012197">
        <ele>474.07</ele>
        <time>2014-06-29T08:50:16Z</time>
      </trkpt>
      <trkpt lat="41.629102391" lon="2.490124095">
        <ele>475.03</ele>
        <time>2014-06-29T08:50:24Z</time>
      </trkpt>
      <trkpt lat="41.629114964" lon="2.490256194">
        <ele>475.99</ele>
        <time>2014-06-29T08:50:31Z</time>
      </trkpt>
      <trkpt lat="41.629117479" lon="2.490402542">
        <ele>477.43</ele>
        <time>2014-06-29T08:50:39Z</time>
      </trkpt>
      <trkpt lat="41.629122340" lon="2.490432968">
        <ele>477.43</ele>
        <time>2014-06-29T08:50:41Z</time>
      </trkpt>
      <trkpt lat="41.629122256" lon="2.490520559">
        <ele>477.91</ele>
        <time>2014-06-29T08:50:46Z</time>
      </trkpt>
      <trkpt lat="41.629211440" lon="2.490704961">
        <ele>478.87</ele>
        <time>2014-06-29T08:50:56Z</time>
      </trkpt>
      <trkpt lat="41.629341108" lon="2.490666991">
        <ele>478.87</ele>
        <time>2014-06-29T08:51:04Z</time>
      </trkpt>
      <trkpt lat="41.629371366" lon="2.490672272">
        <ele>478.87</ele>
        <time>2014-06-29T08:51:06Z</time>
      </trkpt>
      <trkpt lat="41.629509835" lon="2.490804287">
        <ele>478.87</ele>
        <time>2014-06-29T08:51:14Z</time>
      </trkpt>
      <trkpt lat="41.629651993" lon="2.490944181">
        <ele>477.43</ele>
        <time>2014-06-29T08:51:20Z</time>
      </trkpt>
      <trkpt lat="41.629753665" lon="2.491069909">
        <ele>476.95</ele>
        <time>2014-06-29T08:51:25Z</time>
      </trkpt>
      <trkpt lat="41.629865563" lon="2.491251797">
        <ele>476.47</ele>
        <time>2014-06-29T08:51:33Z</time>
      </trkpt>
      <trkpt lat="41.629916777" lon="2.491249953">
        <ele>476.47</ele>
        <time>2014-06-29T08:51:35Z</time>
      </trkpt>
      <trkpt lat="41.630107633" lon="2.491190693">
        <ele>475.99</ele>
        <time>2014-06-29T08:51:42Z</time>
      </trkpt>
      <trkpt lat="41.630248197" lon="2.491059851">
        <ele>475.99</ele>
        <time>2014-06-29T08:51:49Z</time>
      </trkpt>
      <trkpt lat="41.630356408" lon="2.490927668">
        <ele>477.91</ele>
        <time>2014-06-29T08:51:56Z</time>
      </trkpt>
      <trkpt lat="41.630364706" lon="2.490908055">
        <ele>477.91</ele>
        <time>2014-06-29T08:51:57Z</time>
      </trkpt>
      <trkpt lat="41.630403598" lon="2.490739159">
        <ele>479.84</ele>
        <time>2014-06-29T08:52:05Z</time>
      </trkpt>
      <trkpt lat="41.630423211" lon="2.490597002">
        <ele>481.28</ele>
        <time>2014-06-29T08:52:11Z</time>
      </trkpt>
      <trkpt lat="41.630544414" lon="2.490447804">
        <ele>481.28</ele>
        <time>2014-06-29T08:52:18Z</time>
      </trkpt>
      <trkpt lat="41.630677435" lon="2.490383348">
        <ele>481.76</ele>
        <time>2014-06-29T08:52:25Z</time>
      </trkpt>
      <trkpt lat="41.630740802" lon="2.490250159">
        <ele>481.76</ele>
        <time>2014-06-29T08:52:30Z</time>
      </trkpt>
      <trkpt lat="41.630804253" lon="2.490062907">
        <ele>482.24</ele>
        <time>2014-06-29T08:52:37Z</time>
      </trkpt>
      <trkpt lat="41.630936016" lon="2.489969449">
        <ele>482.24</ele>
        <time>2014-06-29T08:52:43Z</time>
      </trkpt>
      <trkpt lat="41.630969628" lon="2.489961486">
        <ele>482.24</ele>
        <time>2014-06-29T08:52:44Z</time>
      </trkpt>
      <trkpt lat="41.631087561" lon="2.490031392">
        <ele>482.24</ele>
        <time>2014-06-29T08:52:50Z</time>
      </trkpt>
      <trkpt lat="41.631221504" lon="2.490142033">
        <ele>485.12</ele>
        <time>2014-06-29T08:52:59Z</time>
      </trkpt>
      <trkpt lat="41.631325523" lon="2.490152426">
        <ele>486.56</ele>
        <time>2014-06-29T08:53:06Z</time>
      </trkpt>
      <trkpt lat="41.631441780" lon="2.490099453">
        <ele>487.53</ele>
        <time>2014-06-29T08:53:14Z</time>
      </trkpt>
      <trkpt lat="41.631625763" lon="2.490092160">
        <ele>488.49</ele>
        <time>2014-06-29T08:53:25Z</time>
      </trkpt>
      <trkpt lat="41.631769764" lon="2.490055867">
        <ele>489.93</ele>
        <time>2014-06-29T08:53:34Z</time>
      </trkpt>
      <trkpt lat="41.631877304" lon="2.490022758">
        <ele>492.33</ele>
        <time>2014-06-29T08:53:41Z</time>
      </trkpt>
      <trkpt lat="41.631993393" lon="2.489987470">
        <ele>494.26</ele>
        <time>2014-06-29T08:53:49Z</time>
      </trkpt>
      <trkpt lat="41.632086265" lon="2.489881355">
        <ele>496.18</ele>
        <time>2014-06-29T08:53:57Z</time>
      </trkpt>
      <trkpt lat="41.632212077" lon="2.489718244">
        <ele>496.66</ele>
        <time>2014-06-29T08:54:05Z</time>
      </trkpt>
      <trkpt lat="41.632266140" lon="2.489730816">
        <ele>495.22</ele>
        <time>2014-06-29T08:54:07Z</time>
      </trkpt>
      <trkpt lat="41.632313163" lon="2.489853108">
        <ele>495.22</ele>
        <time>2014-06-29T08:54:12Z</time>
      </trkpt>
      <trkpt lat="41.632317522" lon="2.489878087">
        <ele>495.22</ele>
        <time>2014-06-29T08:54:13Z</time>
      </trkpt>
      <trkpt lat="41.632356665" lon="2.490086880">
        <ele>495.22</ele>
        <time>2014-06-29T08:54:21Z</time>
      </trkpt>
      <trkpt lat="41.632460182" lon="2.490247058">
        <ele>495.22</ele>
        <time>2014-06-29T08:54:28Z</time>
      </trkpt>
      <trkpt lat="41.632517095" lon="2.490302295">
        <ele>495.22</ele>
        <time>2014-06-29T08:54:34Z</time>
      </trkpt>
      <trkpt lat="41.632525225" lon="2.490301624">
        <ele>495.22</ele>
        <time>2014-06-29T08:54:45Z</time>
      </trkpt>
      <trkpt lat="41.632540815" lon="2.490321489">
        <ele>496.66</ele>
        <time>2014-06-29T08:54:59Z</time>
      </trkpt>
      <trkpt lat="41.632547689" lon="2.490326351">
        <ele>496.66</ele>
        <time>2014-06-29T08:55:00Z</time>
      </trkpt>
      <trkpt lat="41.632567721" lon="2.490344372">
        <ele>496.66</ele>
        <time>2014-06-29T08:55:03Z</time>
      </trkpt>
      <trkpt lat="41.632650283" lon="2.490488792">
        <ele>493.77</ele>
        <time>2014-06-29T08:55:09Z</time>
      </trkpt>
      <trkpt lat="41.632659000" lon="2.490638409">
        <ele>491.85</ele>
        <time>2014-06-29T08:55:13Z</time>
      </trkpt>
      <trkpt lat="41.632647852" lon="2.490735471">
        <ele>489.93</ele>
        <time>2014-06-29T08:55:16Z</time>
      </trkpt>
      <trkpt lat="41.632689930" lon="2.490811747">
        <ele>488.97</ele>
        <time>2014-06-29T08:55:19Z</time>
      </trkpt>
      <trkpt lat="41.632761930" lon="2.490776459">
        <ele>487.53</ele>
        <time>2014-06-29T08:55:23Z</time>
      </trkpt>
      <trkpt lat="41.632842145" lon="2.490637655">
        <ele>485.60</ele>
        <time>2014-06-29T08:55:28Z</time>
      </trkpt>
      <trkpt lat="41.632934094" lon="2.490692640">
        <ele>483.20</ele>
        <time>2014-06-29T08:55:32Z</time>
      </trkpt>
      <trkpt lat="41.632982542" lon="2.490787439">
        <ele>482.24</ele>
        <time>2014-06-29T08:55:34Z</time>
      </trkpt>
      <trkpt lat="41.633139870" lon="2.490962453">
        <ele>481.76</ele>
        <time>2014-06-29T08:55:38Z</time>
      </trkpt>
      <trkpt lat="41.633307424" lon="2.491178706">
        <ele>481.28</ele>
        <time>2014-06-29T08:55:44Z</time>
      </trkpt>
      <trkpt lat="41.633377329" lon="2.491280211">
        <ele>482.72</ele>
        <time>2014-06-29T08:55:48Z</time>
      </trkpt>
      <trkpt lat="41.633564162" lon="2.491458578">
        <ele>483.68</ele>
        <time>2014-06-29T08:55:56Z</time>
      </trkpt>
      <trkpt lat="41.633590397" lon="2.491496045">
        <ele>483.68</ele>
        <time>2014-06-29T08:55:57Z</time>
      </trkpt>
      <trkpt lat="41.633699781" lon="2.491759740">
        <ele>482.72</ele>
        <time>2014-06-29T08:56:02Z</time>
      </trkpt>
      <trkpt lat="41.633722161" lon="2.491887899">
        <ele>482.24</ele>
        <time>2014-06-29T08:56:04Z</time>
      </trkpt>
      <trkpt lat="41.633858618" lon="2.492248908">
        <ele>482.24</ele>
        <time>2014-06-29T08:56:12Z</time>
      </trkpt>
      <trkpt lat="41.634040506" lon="2.492457366">
        <ele>480.80</ele>
        <time>2014-06-29T08:56:18Z</time>
      </trkpt>
      <trkpt lat="41.634204875" lon="2.492721563">
        <ele>480.32</ele>
        <time>2014-06-29T08:56:24Z</time>
      </trkpt>
      <trkpt lat="41.634274193" lon="2.492905546">
        <ele>479.35</ele>
        <time>2014-06-29T08:56:28Z</time>
      </trkpt>
      <trkpt lat="41.634185513" lon="2.493054828">
        <ele>476.95</ele>
        <time>2014-06-29T08:56:33Z</time>
      </trkpt>
      <trkpt lat="41.634117032" lon="2.493013673">
        <ele>475.99</ele>
        <time>2014-06-29T08:56:35Z</time>
      </trkpt>
      <trkpt lat="41.633969846" lon="2.492793396">
        <ele>474.55</ele>
        <time>2014-06-29T08:56:40Z</time>
      </trkpt>
      <trkpt lat="41.633817295" lon="2.492691137">
        <ele>473.11</ele>
        <time>2014-06-29T08:56:44Z</time>
      </trkpt>
      <trkpt lat="41.633752755" lon="2.492656268">
        <ele>472.14</ele>
        <time>2014-06-29T08:56:46Z</time>
      </trkpt>
      <trkpt lat="41.633686286" lon="2.492746206">
        <ele>470.22</ele>
        <time>2014-06-29T08:56:50Z</time>
      </trkpt>
      <trkpt lat="41.633815703" lon="2.492890459">
        <ele>468.78</ele>
        <time>2014-06-29T08:56:54Z</time>
      </trkpt>
      <trkpt lat="41.633935732" lon="2.493112747">
        <ele>466.38</ele>
        <time>2014-06-29T08:56:58Z</time>
      </trkpt>
      <trkpt lat="41.633974205" lon="2.493236547">
        <ele>465.90</ele>
        <time>2014-06-29T08:57:00Z</time>
      </trkpt>
      <trkpt lat="41.634013683" lon="2.493361186">
        <ele>464.45</ele>
        <time>2014-06-29T08:57:02Z</time>
      </trkpt>
      <trkpt lat="41.634064729" lon="2.493484568">
        <ele>463.49</ele>
        <time>2014-06-29T08:57:04Z</time>
      </trkpt>
      <trkpt lat="41.634158774" lon="2.493761506">
        <ele>461.57</ele>
        <time>2014-06-29T08:57:10Z</time>
      </trkpt>
      <trkpt lat="41.634182998" lon="2.493894192">
        <ele>459.17</ele>
        <time>2014-06-29T08:57:14Z</time>
      </trkpt>
      <trkpt lat="41.634188781" lon="2.493934592">
        <ele>458.69</ele>
        <time>2014-06-29T08:57:19Z</time>
      </trkpt>
      <trkpt lat="41.634196074" lon="2.493945489">
        <ele>458.21</ele>
        <time>2014-06-29T08:57:34Z</time>
      </trkpt>
      <trkpt lat="41.634209820" lon="2.493965773">
        <ele>458.21</ele>
        <time>2014-06-29T08:57:39Z</time>
      </trkpt>
      <trkpt lat="41.634164642" lon="2.494130058">
        <ele>455.80</ele>
        <time>2014-06-29T08:57:47Z</time>
      </trkpt>
      <trkpt lat="41.634150728" lon="2.494208513">
        <ele>454.84</ele>
        <time>2014-06-29T08:57:49Z</time>
      </trkpt>
      <trkpt lat="41.634161121" lon="2.494420743">
        <ele>451.96</ele>
        <time>2014-06-29T08:57:54Z</time>
      </trkpt>
      <trkpt lat="41.634171682" lon="2.494504394">
        <ele>450.52</ele>
        <time>2014-06-29T08:57:56Z</time>
      </trkpt>
      <trkpt lat="41.634247874" lon="2.494579999">
        <ele>448.59</ele>
        <time>2014-06-29T08:58:01Z</time>
      </trkpt>
      <trkpt lat="41.634381733" lon="2.494648395">
        <ele>445.23</ele>
        <time>2014-06-29T08:58:06Z</time>
      </trkpt>
      <trkpt lat="41.634418278" lon="2.494825086">
        <ele>442.82</ele>
        <time>2014-06-29T08:58:12Z</time>
      </trkpt>
      <trkpt lat="41.634434120" lon="2.494904714">
        <ele>442.34</ele>
        <time>2014-06-29T08:58:18Z</time>
      </trkpt>
      <trkpt lat="41.634443424" lon="2.494922400">
        <ele>442.34</ele>
        <time>2014-06-29T08:58:32Z</time>
      </trkpt>
      <trkpt lat="41.634439568" lon="2.494935978">
        <ele>442.34</ele>
        <time>2014-06-29T08:58:44Z</time>
      </trkpt>
      <trkpt lat="41.634452476" lon="2.494940924">
        <ele>442.34</ele>
        <time>2014-06-29T08:58:56Z</time>
      </trkpt>
      <trkpt lat="41.634461026" lon="2.494938828">
        <ele>442.34</ele>
        <time>2014-06-29T08:59:05Z</time>
      </trkpt>
      <trkpt lat="41.634469072" lon="2.494949808">
        <ele>442.34</ele>
        <time>2014-06-29T08:59:07Z</time>
      </trkpt>
      <trkpt lat="41.634546605" lon="2.494938493">
        <ele>441.38</ele>
        <time>2014-06-29T08:59:14Z</time>
      </trkpt>
      <trkpt lat="41.634564291" lon="2.494886106">
        <ele>440.42</ele>
        <time>2014-06-29T08:59:16Z</time>
      </trkpt>
      <trkpt lat="41.634590861" lon="2.494691562">
        <ele>438.50</ele>
        <time>2014-06-29T08:59:21Z</time>
      </trkpt>
      <trkpt lat="41.634697731" lon="2.494487211">
        <ele>436.58</ele>
        <time>2014-06-29T08:59:26Z</time>
      </trkpt>
      <trkpt lat="41.634790602" lon="2.494449912">
        <ele>434.17</ele>
        <time>2014-06-29T08:59:30Z</time>
      </trkpt>
      <trkpt lat="41.634976513" lon="2.494460054">
        <ele>431.77</ele>
        <time>2014-06-29T08:59:36Z</time>
      </trkpt>
      <trkpt lat="41.635131913" lon="2.494504478">
        <ele>429.85</ele>
        <time>2014-06-29T08:59:40Z</time>
      </trkpt>
      <trkpt lat="41.635270466" lon="2.494424012">
        <ele>428.40</ele>
        <time>2014-06-29T08:59:45Z</time>
      </trkpt>
      <trkpt lat="41.635473560" lon="2.494326446">
        <ele>427.44</ele>
        <time>2014-06-29T08:59:51Z</time>
      </trkpt>
      <trkpt lat="41.635639102" lon="2.494284956">
        <ele>424.08</ele>
        <time>2014-06-29T08:59:56Z</time>
      </trkpt>
      <trkpt lat="41.635744882" lon="2.494107679">
        <ele>421.68</ele>
        <time>2014-06-29T09:00:01Z</time>
      </trkpt>
      <trkpt lat="41.635807578" lon="2.493876003">
        <ele>419.27</ele>
        <time>2014-06-29T09:00:06Z</time>
      </trkpt>
      <trkpt lat="41.635786205" lon="2.493684728">
        <ele>416.87</ele>
        <time>2014-06-29T09:00:11Z</time>
      </trkpt>
      <trkpt lat="41.635769776" lon="2.493650027">
        <ele>416.39</ele>
        <time>2014-06-29T09:00:12Z</time>
      </trkpt>
      <trkpt lat="41.635800370" lon="2.493538631">
        <ele>415.43</ele>
        <time>2014-06-29T09:00:16Z</time>
      </trkpt>
      <trkpt lat="41.635883267" lon="2.493600490">
        <ele>413.50</ele>
        <time>2014-06-29T09:00:19Z</time>
      </trkpt>
      <trkpt lat="41.636072949" lon="2.493795537">
        <ele>411.58</ele>
        <time>2014-06-29T09:00:26Z</time>
      </trkpt>
      <trkpt lat="41.636155344" lon="2.493986644">
        <ele>408.22</ele>
        <time>2014-06-29T09:00:31Z</time>
      </trkpt>
      <trkpt lat="41.636240839" lon="2.494070463">
        <ele>407.26</ele>
        <time>2014-06-29T09:00:36Z</time>
      </trkpt>
      <trkpt lat="41.636242096" lon="2.494103991">
        <ele>406.77</ele>
        <time>2014-06-29T09:00:39Z</time>
      </trkpt>
      <trkpt lat="41.636153332" lon="2.494351341">
        <ele>404.85</ele>
        <time>2014-06-29T09:00:45Z</time>
      </trkpt>
      <trkpt lat="41.636086109" lon="2.494528450">
        <ele>402.93</ele>
        <time>2014-06-29T09:00:48Z</time>
      </trkpt>
      <trkpt lat="41.636027939" lon="2.494633308">
        <ele>401.49</ele>
        <time>2014-06-29T09:00:50Z</time>
      </trkpt>
      <trkpt lat="41.635973875" lon="2.494728610">
        <ele>399.57</ele>
        <time>2014-06-29T09:00:52Z</time>
      </trkpt>
      <trkpt lat="41.635847728" lon="2.495036645">
        <ele>394.76</ele>
        <time>2014-06-29T09:00:57Z</time>
      </trkpt>
      <trkpt lat="41.635798526" lon="2.495248875">
        <ele>393.32</ele>
        <time>2014-06-29T09:01:00Z</time>
      </trkpt>
      <trkpt lat="41.635830210" lon="2.495624133">
        <ele>391.87</ele>
        <time>2014-06-29T09:01:05Z</time>
      </trkpt>
      <trkpt lat="41.635893661" lon="2.495767882">
        <ele>391.39</ele>
        <time>2014-06-29T09:01:07Z</time>
      </trkpt>
      <trkpt lat="41.636092479" lon="2.496189827">
        <ele>391.39</ele>
        <time>2014-06-29T09:01:15Z</time>
      </trkpt>
      <trkpt lat="41.636127851" lon="2.496307090">
        <ele>390.91</ele>
        <time>2014-06-29T09:01:17Z</time>
      </trkpt>
      <trkpt lat="41.636179986" lon="2.496560894">
        <ele>388.99</ele>
        <time>2014-06-29T09:01:21Z</time>
      </trkpt>
      <trkpt lat="41.636295489" lon="2.497018714">
        <ele>387.07</ele>
        <time>2014-06-29T09:01:29Z</time>
      </trkpt>
      <trkpt lat="41.636302697" lon="2.497101108">
        <ele>385.63</ele>
        <time>2014-06-29T09:01:31Z</time>
      </trkpt>
      <trkpt lat="41.636298423" lon="2.497357091">
        <ele>383.70</ele>
        <time>2014-06-29T09:01:37Z</time>
      </trkpt>
      <trkpt lat="41.636279060" lon="2.497726314">
        <ele>380.82</ele>
        <time>2014-06-29T09:01:46Z</time>
      </trkpt>
      <trkpt lat="41.636255172" lon="2.497832010">
        <ele>379.38</ele>
        <time>2014-06-29T09:01:51Z</time>
      </trkpt>
      <trkpt lat="41.636254585" lon="2.497839051">
        <ele>379.86</ele>
        <time>2014-06-29T09:01:58Z</time>
      </trkpt>
      <trkpt lat="41.636264141" lon="2.497837961">
        <ele>379.38</ele>
        <time>2014-06-29T09:02:16Z</time>
      </trkpt>
      <trkpt lat="41.636253328" lon="2.497891521">
        <ele>379.38</ele>
        <time>2014-06-29T09:02:29Z</time>
      </trkpt>
      <trkpt lat="41.636161798" lon="2.497989589">
        <ele>377.45</ele>
        <time>2014-06-29T09:02:36Z</time>
      </trkpt>
      <trkpt lat="41.635984688" lon="2.498025464">
        <ele>375.05</ele>
        <time>2014-06-29T09:02:42Z</time>
      </trkpt>
      <trkpt lat="41.635739853" lon="2.498022111">
        <ele>373.61</ele>
        <time>2014-06-29T09:02:47Z</time>
      </trkpt>
      <trkpt lat="41.635635246" lon="2.498033511">
        <ele>371.69</ele>
        <time>2014-06-29T09:02:49Z</time>
      </trkpt>
      <trkpt lat="41.635461406" lon="2.497953380">
        <ele>369.76</ele>
        <time>2014-06-29T09:02:53Z</time>
      </trkpt>
      <trkpt lat="41.635224952" lon="2.497805355">
        <ele>366.40</ele>
        <time>2014-06-29T09:02:58Z</time>
      </trkpt>
      <trkpt lat="41.635040634" lon="2.497803427">
        <ele>364.96</ele>
        <time>2014-06-29T09:03:01Z</time>
      </trkpt>
      <trkpt lat="41.634775682" lon="2.497770067">
        <ele>362.07</ele>
        <time>2014-06-29T09:03:05Z</time>
      </trkpt>
      <trkpt lat="41.634562782" lon="2.497691026">
        <ele>359.19</ele>
        <time>2014-06-29T09:03:08Z</time>
      </trkpt>
      <trkpt lat="41.634273355" lon="2.497625731">
        <ele>356.79</ele>
        <time>2014-06-29T09:03:12Z</time>
      </trkpt>
      <trkpt lat="41.633942689" lon="2.497598071">
        <ele>353.42</ele>
        <time>2014-06-29T09:03:18Z</time>
      </trkpt>
      <trkpt lat="41.633877813" lon="2.497573763">
        <ele>352.46</ele>
        <time>2014-06-29T09:03:20Z</time>
      </trkpt>
      <trkpt lat="41.633832970" lon="2.497648278">
        <ele>350.54</ele>
        <time>2014-06-29T09:03:24Z</time>
      </trkpt>
      <trkpt lat="41.633899187" lon="2.497722207">
        <ele>349.58</ele>
        <time>2014-06-29T09:03:28Z</time>
      </trkpt>
      <trkpt lat="41.634079984" lon="2.497778030">
        <ele>348.13</ele>
        <time>2014-06-29T09:03:33Z</time>
      </trkpt>
      <trkpt lat="41.634133545" lon="2.497797979">
        <ele>347.65</ele>
        <time>2014-06-29T09:03:34Z</time>
      </trkpt>
      <trkpt lat="41.634319455" lon="2.497919433">
        <ele>346.21</ele>
        <time>2014-06-29T09:03:38Z</time>
      </trkpt>
      <trkpt lat="41.634537385" lon="2.498169549">
        <ele>343.33</ele>
        <time>2014-06-29T09:03:44Z</time>
      </trkpt>
      <trkpt lat="41.634704771" lon="2.498339031">
        <ele>339.96</ele>
        <time>2014-06-29T09:03:48Z</time>
      </trkpt>
      <trkpt lat="41.634799655" lon="2.498547573">
        <ele>337.08</ele>
        <time>2014-06-29T09:03:52Z</time>
      </trkpt>
      <trkpt lat="41.634792278" lon="2.498606414">
        <ele>336.60</ele>
        <time>2014-06-29T09:03:53Z</time>
      </trkpt>
      <trkpt lat="41.634762690" lon="2.498777237">
        <ele>334.68</ele>
        <time>2014-06-29T09:03:56Z</time>
      </trkpt>
      <trkpt lat="41.634754476" lon="2.498835324">
        <ele>333.71</ele>
        <time>2014-06-29T09:03:57Z</time>
      </trkpt>
      <trkpt lat="41.634731258" lon="2.499140173">
        <ele>329.87</ele>
        <time>2014-06-29T09:04:01Z</time>
      </trkpt>
      <trkpt lat="41.634699658" lon="2.499531357">
        <ele>326.50</ele>
        <time>2014-06-29T09:04:06Z</time>
      </trkpt>
      <trkpt lat="41.634668059" lon="2.499807876">
        <ele>324.10</ele>
        <time>2014-06-29T09:04:10Z</time>
      </trkpt>
      <trkpt lat="41.634627826" lon="2.500032259">
        <ele>321.22</ele>
        <time>2014-06-29T09:04:14Z</time>
      </trkpt>
      <trkpt lat="41.634611313" lon="2.500116162">
        <ele>320.26</ele>
        <time>2014-06-29T09:04:16Z</time>
      </trkpt>
      <trkpt lat="41.634592454" lon="2.500180703">
        <ele>319.30</ele>
        <time>2014-06-29T09:04:18Z</time>
      </trkpt>
      <trkpt lat="41.634610643" lon="2.500297463">
        <ele>316.89</ele>
        <time>2014-06-29T09:04:22Z</time>
      </trkpt>
      <trkpt lat="41.634738383" lon="2.500479434">
        <ele>314.97</ele>
        <time>2014-06-29T09:04:29Z</time>
      </trkpt>
      <trkpt lat="41.634796972" lon="2.500625279">
        <ele>314.01</ele>
        <time>2014-06-29T09:04:33Z</time>
      </trkpt>
      <trkpt lat="41.634749363" lon="2.500773974">
        <ele>311.60</ele>
        <time>2014-06-29T09:04:37Z</time>
      </trkpt>
      <trkpt lat="41.634660096" lon="2.500941361">
        <ele>309.68</ele>
        <time>2014-06-29T09:04:43Z</time>
      </trkpt>
      <trkpt lat="41.634652552" lon="2.500959046">
        <ele>309.20</ele>
        <time>2014-06-29T09:04:44Z</time>
      </trkpt>
      <trkpt lat="41.634641656" lon="2.501032556">
        <ele>308.24</ele>
        <time>2014-06-29T09:04:53Z</time>
      </trkpt>
      <trkpt lat="41.634634950" lon="2.501042614">
        <ele>308.24</ele>
        <time>2014-06-29T09:05:08Z</time>
      </trkpt>
      <trkpt lat="41.634624473" lon="2.501057450">
        <ele>308.24</ele>
        <time>2014-06-29T09:05:24Z</time>
      </trkpt>
      <trkpt lat="41.634625143" lon="2.501063904">
        <ele>307.76</ele>
        <time>2014-06-29T09:05:33Z</time>
      </trkpt>
      <trkpt lat="41.634622377" lon="2.501059378">
        <ele>307.76</ele>
        <time>2014-06-29T09:05:46Z</time>
      </trkpt>
      <trkpt lat="41.634623132" lon="2.501055271">
        <ele>307.76</ele>
        <time>2014-06-29T09:05:53Z</time>
      </trkpt>
      <trkpt lat="41.634633693" lon="2.501040770">
        <ele>307.76</ele>
        <time>2014-06-29T09:06:00Z</time>
      </trkpt>
      <trkpt lat="41.634633525" lon="2.501023168">
        <ele>307.76</ele>
        <time>2014-06-29T09:06:08Z</time>
      </trkpt>
      <trkpt lat="41.634619947" lon="2.501023252">
        <ele>307.76</ele>
        <time>2014-06-29T09:06:19Z</time>
      </trkpt>
      <trkpt lat="41.634595388" lon="2.501124170">
        <ele>307.28</ele>
        <time>2014-06-29T09:06:25Z</time>
      </trkpt>
      <trkpt lat="41.634629418" lon="2.501348721">
        <ele>306.80</ele>
        <time>2014-06-29T09:06:31Z</time>
      </trkpt>
      <trkpt lat="41.634727654" lon="2.501586013">
        <ele>303.91</ele>
        <time>2014-06-29T09:06:38Z</time>
      </trkpt>
      <trkpt lat="41.634917169" lon="2.501838057">
        <ele>301.51</ele>
        <time>2014-06-29T09:06:45Z</time>
      </trkpt>
      <trkpt lat="41.634981123" lon="2.501900753">
        <ele>300.55</ele>
        <time>2014-06-29T09:06:47Z</time>
      </trkpt>
      <trkpt lat="41.635122274" lon="2.501964456">
        <ele>299.11</ele>
        <time>2014-06-29T09:06:51Z</time>
      </trkpt>
      <trkpt lat="41.635172565" lon="2.501942914">
        <ele>298.15</ele>
        <time>2014-06-29T09:06:53Z</time>
      </trkpt>
      <trkpt lat="41.635255295" lon="2.501734289">
        <ele>296.22</ele>
        <time>2014-06-29T09:06:59Z</time>
      </trkpt>
      <trkpt lat="41.635350597" lon="2.501666563">
        <ele>295.26</ele>
        <time>2014-06-29T09:07:02Z</time>
      </trkpt>
      <trkpt lat="41.635511530" lon="2.501602525">
        <ele>293.34</ele>
        <time>2014-06-29T09:07:06Z</time>
      </trkpt>
      <trkpt lat="41.635683862" lon="2.501716687">
        <ele>293.34</ele>
        <time>2014-06-29T09:07:11Z</time>
      </trkpt>
      <trkpt lat="41.635700039" lon="2.501832441">
        <ele>292.38</ele>
        <time>2014-06-29T09:07:13Z</time>
      </trkpt>
      <trkpt lat="41.635715294" lon="2.502092280">
        <ele>291.42</ele>
        <time>2014-06-29T09:07:18Z</time>
      </trkpt>
      <trkpt lat="41.635723173" lon="2.502415318">
        <ele>290.94</ele>
        <time>2014-06-29T09:07:27Z</time>
      </trkpt>
      <trkpt lat="41.635732979" lon="2.502516572">
        <ele>290.94</ele>
        <time>2014-06-29T09:07:34Z</time>
      </trkpt>
      <trkpt lat="41.635741529" lon="2.502678510">
        <ele>290.94</ele>
        <time>2014-06-29T09:07:40Z</time>
      </trkpt>
      <trkpt lat="41.635780170" lon="2.502955699">
        <ele>290.46</ele>
        <time>2014-06-29T09:07:47Z</time>
      </trkpt>
      <trkpt lat="41.635855774" lon="2.503168767">
        <ele>289.01</ele>
        <time>2014-06-29T09:07:52Z</time>
      </trkpt>
      <trkpt lat="41.635920734" lon="2.503286617">
        <ele>287.57</ele>
        <time>2014-06-29T09:07:55Z</time>
      </trkpt>
      <trkpt lat="41.636014611" lon="2.503417626">
        <ele>284.69</ele>
        <time>2014-06-29T09:07:59Z</time>
      </trkpt>
      <trkpt lat="41.636200438" lon="2.503537655">
        <ele>283.25</ele>
        <time>2014-06-29T09:08:04Z</time>
      </trkpt>
      <trkpt lat="41.636455080" lon="2.503626755">
        <ele>280.36</ele>
        <time>2014-06-29T09:08:09Z</time>
      </trkpt>
      <trkpt lat="41.636547365" lon="2.503569674">
        <ele>280.36</ele>
        <time>2014-06-29T09:08:13Z</time>
      </trkpt>
      <trkpt lat="41.636656833" lon="2.503386613">
        <ele>281.80</ele>
        <time>2014-06-29T09:08:21Z</time>
      </trkpt>
      <trkpt lat="41.636775101" lon="2.503308913">
        <ele>282.77</ele>
        <time>2014-06-29T09:08:28Z</time>
      </trkpt>
      <trkpt lat="41.636872164" lon="2.503364317">
        <ele>284.69</ele>
        <time>2014-06-29T09:08:34Z</time>
      </trkpt>
      <trkpt lat="41.636908458" lon="2.503408406">
        <ele>285.65</ele>
        <time>2014-06-29T09:08:37Z</time>
      </trkpt>
      <trkpt lat="41.637032845" lon="2.503593981">
        <ele>287.57</ele>
        <time>2014-06-29T09:08:47Z</time>
      </trkpt>
      <trkpt lat="41.637123118" lon="2.503576463">
        <ele>289.01</ele>
        <time>2014-06-29T09:08:52Z</time>
      </trkpt>
      <trkpt lat="41.637254127" lon="2.503471689">
        <ele>289.01</ele>
        <time>2014-06-29T09:09:00Z</time>
      </trkpt>
      <trkpt lat="41.637423861" lon="2.503379069">
        <ele>289.01</ele>
        <time>2014-06-29T09:09:06Z</time>
      </trkpt>
      <trkpt lat="41.637499717" lon="2.503386613">
        <ele>289.01</ele>
        <time>2014-06-29T09:09:08Z</time>
      </trkpt>
      <trkpt lat="41.637570041" lon="2.503452830">
        <ele>287.57</ele>
        <time>2014-06-29T09:09:10Z</time>
      </trkpt>
      <trkpt lat="41.637628547" lon="2.503662042">
        <ele>285.65</ele>
        <time>2014-06-29T09:09:14Z</time>
      </trkpt>
      <trkpt lat="41.637626954" lon="2.503917104">
        <ele>283.73</ele>
        <time>2014-06-29T09:09:17Z</time>
      </trkpt>
      <trkpt lat="41.637688394" lon="2.504489672">
        <ele>280.36</ele>
        <time>2014-06-29T09:09:23Z</time>
      </trkpt>
      <trkpt lat="41.637730052" lon="2.504661752">
        <ele>279.40</ele>
        <time>2014-06-29T09:09:25Z</time>
      </trkpt>
      <trkpt lat="41.637794425" lon="2.504809274">
        <ele>278.92</ele>
        <time>2014-06-29T09:09:27Z</time>
      </trkpt>
      <trkpt lat="41.637871371" lon="2.504934751">
        <ele>278.92</ele>
        <time>2014-06-29T09:09:29Z</time>
      </trkpt>
      <trkpt lat="41.638115284" lon="2.505158883">
        <ele>278.44</ele>
        <time>2014-06-29T09:09:35Z</time>
      </trkpt>
      <trkpt lat="41.638236151" lon="2.505236080">
        <ele>278.44</ele>
        <time>2014-06-29T09:09:38Z</time>
      </trkpt>
      <trkpt lat="41.638308152" lon="2.505314618">
        <ele>278.44</ele>
        <time>2014-06-29T09:09:40Z</time>
      </trkpt>
      <trkpt lat="41.638518286" lon="2.505507067">
        <ele>277.48</ele>
        <time>2014-06-29T09:09:45Z</time>
      </trkpt>
      <trkpt lat="41.638592801" lon="2.505704796">
        <ele>276.04</ele>
        <time>2014-06-29T09:09:49Z</time>
      </trkpt>
      <trkpt lat="41.638628508" lon="2.505879726">
        <ele>274.11</ele>
        <time>2014-06-29T09:09:52Z</time>
      </trkpt>
      <trkpt lat="41.638796230" lon="2.506135458">
        <ele>272.67</ele>
        <time>2014-06-29T09:09:58Z</time>
      </trkpt>
      <trkpt lat="41.638950624" lon="2.506254649">
        <ele>270.27</ele>
        <time>2014-06-29T09:10:02Z</time>
      </trkpt>
      <trkpt lat="41.639178109" lon="2.506307287">
        <ele>268.35</ele>
        <time>2014-06-29T09:10:06Z</time>
      </trkpt>
      <trkpt lat="41.639304928" lon="2.506339055">
        <ele>267.86</ele>
        <time>2014-06-29T09:10:08Z</time>
      </trkpt>
      <trkpt lat="41.639505423" lon="2.506399572">
        <ele>266.42</ele>
        <time>2014-06-29T09:10:11Z</time>
      </trkpt>
      <trkpt lat="41.639796945" lon="2.506526977">
        <ele>263.54</ele>
        <time>2014-06-29T09:10:15Z</time>
      </trkpt>
      <trkpt lat="41.640088468" lon="2.506530078">
        <ele>260.65</ele>
        <time>2014-06-29T09:10:20Z</time>
      </trkpt>
      <trkpt lat="41.640157702" lon="2.506513482">
        <ele>260.65</ele>
        <time>2014-06-29T09:10:21Z</time>
      </trkpt>
      <trkpt lat="41.640433886" lon="2.506395297">
        <ele>255.85</ele>
        <time>2014-06-29T09:10:26Z</time>
      </trkpt>
      <trkpt lat="41.640523824" lon="2.506176194">
        <ele>253.93</ele>
        <time>2014-06-29T09:10:30Z</time>
      </trkpt>
      <trkpt lat="41.640521058" lon="2.506047281">
        <ele>252.96</ele>
        <time>2014-06-29T09:10:32Z</time>
      </trkpt>
      <trkpt lat="41.640406812" lon="2.505728601">
        <ele>251.04</ele>
        <time>2014-06-29T09:10:39Z</time>
      </trkpt>
      <trkpt lat="41.640409159" lon="2.505478736">
        <ele>250.08</ele>
        <time>2014-06-29T09:10:44Z</time>
      </trkpt>
      <trkpt lat="41.640546371" lon="2.505473456">
        <ele>249.60</ele>
        <time>2014-06-29T09:10:48Z</time>
      </trkpt>
      <trkpt lat="41.640607140" lon="2.505535901">
        <ele>248.64</ele>
        <time>2014-06-29T09:10:50Z</time>
      </trkpt>
      <trkpt lat="41.640820795" lon="2.505861873">
        <ele>246.72</ele>
        <time>2014-06-29T09:10:57Z</time>
      </trkpt>
      <trkpt lat="41.640960102" lon="2.506060859">
        <ele>246.72</ele>
        <time>2014-06-29T09:11:01Z</time>
      </trkpt>
      <trkpt lat="41.641242991" lon="2.506477691">
        <ele>243.83</ele>
        <time>2014-06-29T09:11:08Z</time>
      </trkpt>
      <trkpt lat="41.641436948" lon="2.506762592">
        <ele>241.91</ele>
        <time>2014-06-29T09:11:12Z</time>
      </trkpt>
      <trkpt lat="41.641623194" lon="2.507001476">
        <ele>240.47</ele>
        <time>2014-06-29T09:11:15Z</time>
      </trkpt>
      <trkpt lat="41.641759484" lon="2.507139359">
        <ele>238.54</ele>
        <time>2014-06-29T09:11:17Z</time>
      </trkpt>
      <trkpt lat="41.642067184" lon="2.507303560">
        <ele>236.62</ele>
        <time>2014-06-29T09:11:22Z</time>
      </trkpt>
      <trkpt lat="41.642273965" lon="2.507299872">
        <ele>236.62</ele>
        <time>2014-06-29T09:11:26Z</time>
      </trkpt>
      <trkpt lat="41.642740921" lon="2.507341279">
        <ele>234.70</ele>
        <time>2014-06-29T09:11:35Z</time>
      </trkpt>
      <trkpt lat="41.643046777" lon="2.507301884">
        <ele>233.26</ele>
        <time>2014-06-29T09:11:40Z</time>
      </trkpt>
      <trkpt lat="41.643570478" lon="2.507222926">
        <ele>230.37</ele>
        <time>2014-06-29T09:11:49Z</time>
      </trkpt>
      <trkpt lat="41.643784133" lon="2.507210186">
        <ele>227.97</ele>
        <time>2014-06-29T09:11:54Z</time>
      </trkpt>
      <trkpt lat="41.643875328" lon="2.507254610">
        <ele>227.49</ele>
        <time>2014-06-29T09:11:56Z</time>
      </trkpt>
      <trkpt lat="41.644126869" lon="2.507469354">
        <ele>225.09</ele>
        <time>2014-06-29T09:12:01Z</time>
      </trkpt>
      <trkpt lat="41.644277072" lon="2.507571446">
        <ele>224.12</ele>
        <time>2014-06-29T09:12:05Z</time>
      </trkpt>
      <trkpt lat="41.644626263" lon="2.507773701">
        <ele>224.12</ele>
        <time>2014-06-29T09:12:14Z</time>
      </trkpt>
      <trkpt lat="41.644948882" lon="2.507964222">
        <ele>223.64</ele>
        <time>2014-06-29T09:12:23Z</time>
      </trkpt>
      <trkpt lat="41.645070503" lon="2.508048628">
        <ele>223.64</ele>
        <time>2014-06-29T09:12:27Z</time>
      </trkpt>
      <trkpt lat="41.645195394" lon="2.507946704">
        <ele>223.16</ele>
        <time>2014-06-29T09:12:32Z</time>
      </trkpt>
      <trkpt lat="41.645207715" lon="2.507900855">
        <ele>223.16</ele>
        <time>2014-06-29T09:12:33Z</time>
      </trkpt>
      <trkpt lat="41.645264125" lon="2.507612266">
        <ele>223.16</ele>
        <time>2014-06-29T09:12:40Z</time>
      </trkpt>
      <trkpt lat="41.645277872" lon="2.507475054">
        <ele>224.61</ele>
        <time>2014-06-29T09:12:44Z</time>
      </trkpt>
      <trkpt lat="41.645287176" lon="2.507246396">
        <ele>226.53</ele>
        <time>2014-06-29T09:12:51Z</time>
      </trkpt>
      <trkpt lat="41.645286086" lon="2.507008517">
        <ele>227.97</ele>
        <time>2014-06-29T09:12:59Z</time>
      </trkpt>
      <trkpt lat="41.645260521" lon="2.506786145">
        <ele>230.37</ele>
        <time>2014-06-29T09:13:07Z</time>
      </trkpt>
      <trkpt lat="41.645258090" lon="2.506760245">
        <ele>230.85</ele>
        <time>2014-06-29T09:13:08Z</time>
      </trkpt>
      <trkpt lat="41.645233783" lon="2.506549776">
        <ele>232.78</ele>
        <time>2014-06-29T09:13:16Z</time>
      </trkpt>
      <trkpt lat="41.645212996" lon="2.506286919">
        <ele>234.70</ele>
        <time>2014-06-29T09:13:26Z</time>
      </trkpt>
      <trkpt lat="41.645212409" lon="2.506137721">
        <ele>236.14</ele>
        <time>2014-06-29T09:13:32Z</time>
      </trkpt>
      <trkpt lat="41.645252307" lon="2.505944183">
        <ele>237.58</ele>
        <time>2014-06-29T09:13:40Z</time>
      </trkpt>
      <trkpt lat="41.645289858" lon="2.505794399">
        <ele>239.99</ele>
        <time>2014-06-29T09:13:48Z</time>
      </trkpt>
      <trkpt lat="41.645293211" lon="2.505771013">
        <ele>239.99</ele>
        <time>2014-06-29T09:13:49Z</time>
      </trkpt>
      <trkpt lat="41.645279883" lon="2.505648973">
        <ele>241.43</ele>
        <time>2014-06-29T09:13:54Z</time>
      </trkpt>
      <trkpt lat="41.645212325" lon="2.505479910">
        <ele>243.35</ele>
        <time>2014-06-29T09:14:04Z</time>
      </trkpt>
      <trkpt lat="41.645192292" lon="2.505458033">
        <ele>243.83</ele>
        <time>2014-06-29T09:14:06Z</time>
      </trkpt>
      <trkpt lat="41.645143091" lon="2.505281426">
        <ele>245.27</ele>
        <time>2014-06-29T09:14:14Z</time>
      </trkpt>
      <trkpt lat="41.645135212" lon="2.505219400">
        <ele>245.75</ele>
        <time>2014-06-29T09:14:17Z</time>
      </trkpt>
      <trkpt lat="41.645120879" lon="2.505133318">
        <ele>246.23</ele>
        <time>2014-06-29T09:14:21Z</time>
      </trkpt>
      <trkpt lat="41.645093637" lon="2.504963249">
        <ele>247.68</ele>
        <time>2014-06-29T09:14:30Z</time>
      </trkpt>
      <trkpt lat="41.645080143" lon="2.504787061">
        <ele>249.12</ele>
        <time>2014-06-29T09:14:39Z</time>
      </trkpt>
      <trkpt lat="41.645074694" lon="2.504768537">
        <ele>249.12</ele>
        <time>2014-06-29T09:14:40Z</time>
      </trkpt>
      <trkpt lat="41.645089111" lon="2.504620765">
        <ele>251.04</ele>
        <time>2014-06-29T09:14:48Z</time>
      </trkpt>
      <trkpt lat="41.645096320" lon="2.504580028">
        <ele>251.52</ele>
        <time>2014-06-29T09:14:50Z</time>
      </trkpt>
      <trkpt lat="41.645141833" lon="2.504461760">
        <ele>252.96</ele>
        <time>2014-06-29T09:14:58Z</time>
      </trkpt>
      <trkpt lat="41.645131859" lon="2.504287584">
        <ele>254.41</ele>
        <time>2014-06-29T09:15:06Z</time>
      </trkpt>
      <trkpt lat="41.645039826" lon="2.504154395">
        <ele>255.85</ele>
        <time>2014-06-29T09:15:15Z</time>
      </trkpt>
      <trkpt lat="41.644981991" lon="2.504017435">
        <ele>257.29</ele>
        <time>2014-06-29T09:15:23Z</time>
      </trkpt>
      <trkpt lat="41.644957432" lon="2.503969910">
        <ele>257.77</ele>
        <time>2014-06-29T09:15:26Z</time>
      </trkpt>
      <trkpt lat="41.644930274" lon="2.503900508">
        <ele>258.73</ele>
        <time>2014-06-29T09:15:30Z</time>
      </trkpt>
      <trkpt lat="41.644908146" lon="2.503851390">
        <ele>258.73</ele>
        <time>2014-06-29T09:15:33Z</time>
      </trkpt>
      <trkpt lat="41.644864309" lon="2.503654331">
        <ele>260.17</ele>
        <time>2014-06-29T09:15:42Z</time>
      </trkpt>
      <trkpt lat="41.644828434" lon="2.503446879">
        <ele>261.62</ele>
        <time>2014-06-29T09:15:51Z</time>
      </trkpt>
      <trkpt lat="41.644805384" lon="2.503249653">
        <ele>263.06</ele>
        <time>2014-06-29T09:16:00Z</time>
      </trkpt>
      <trkpt lat="41.644775460" lon="2.503065838">
        <ele>264.02</ele>
        <time>2014-06-29T09:16:08Z</time>
      </trkpt>
      <trkpt lat="41.644745872" lon="2.502927620">
        <ele>265.46</ele>
        <time>2014-06-29T09:16:15Z</time>
      </trkpt>
      <trkpt lat="41.644693653" lon="2.502867270">
        <ele>265.46</ele>
        <time>2014-06-29T09:16:19Z</time>
      </trkpt>
      <trkpt lat="41.644652917" lon="2.502795857">
        <ele>266.42</ele>
        <time>2014-06-29T09:16:23Z</time>
      </trkpt>
      <trkpt lat="41.644555771" lon="2.502654538">
        <ele>267.86</ele>
        <time>2014-06-29T09:16:33Z</time>
      </trkpt>
      <trkpt lat="41.644544707" lon="2.502617657">
        <ele>267.86</ele>
        <time>2014-06-29T09:16:36Z</time>
      </trkpt>
      <trkpt lat="41.644637243" lon="2.502631068">
        <ele>267.86</ele>
        <time>2014-06-29T09:16:43Z</time>
      </trkpt>
      <trkpt lat="41.644669932" lon="2.502580190">
        <ele>267.86</ele>
        <time>2014-06-29T09:16:49Z</time>
      </trkpt>
      <trkpt lat="41.644697676" lon="2.502541717">
        <ele>267.86</ele>
        <time>2014-06-29T09:16:56Z</time>
      </trkpt>
      <trkpt lat="41.644779400" lon="2.502395453">
        <ele>265.94</ele>
        <time>2014-06-29T09:17:03Z</time>
      </trkpt>
      <trkpt lat="41.644852574" lon="2.502235191">
        <ele>264.02</ele>
        <time>2014-06-29T09:17:11Z</time>
      </trkpt>
      <trkpt lat="41.644900938" lon="2.502109714">
        <ele>262.58</ele>
        <time>2014-06-29T09:17:17Z</time>
      </trkpt>
      <trkpt lat="41.644921725" lon="2.502071325">
        <ele>262.10</ele>
        <time>2014-06-29T09:17:20Z</time>
      </trkpt>
      <trkpt lat="41.644989367" lon="2.501893293">
        <ele>260.17</ele>
        <time>2014-06-29T09:17:29Z</time>
      </trkpt>
      <trkpt lat="41.645044352" lon="2.501754321">
        <ele>258.73</ele>
        <time>2014-06-29T09:17:35Z</time>
      </trkpt>
      <trkpt lat="41.645065223" lon="2.501731103">
        <ele>258.73</ele>
        <time>2014-06-29T09:17:36Z</time>
      </trkpt>
      <trkpt lat="41.645235124" lon="2.501754489">
        <ele>255.37</ele>
        <time>2014-06-29T09:17:42Z</time>
      </trkpt>
      <trkpt lat="41.645301257" lon="2.501790363">
        <ele>254.41</ele>
        <time>2014-06-29T09:17:44Z</time>
      </trkpt>
      <trkpt lat="41.645353309" lon="2.501927240">
        <ele>252.00</ele>
        <time>2014-06-29T09:17:48Z</time>
      </trkpt>
      <trkpt lat="41.645355823" lon="2.501954314">
        <ele>251.52</ele>
        <time>2014-06-29T09:17:49Z</time>
      </trkpt>
      <trkpt lat="41.645431931" lon="2.501942579">
        <ele>249.60</ele>
        <time>2014-06-29T09:17:54Z</time>
      </trkpt>
      <trkpt lat="41.645441319" lon="2.501812576">
        <ele>249.12</ele>
        <time>2014-06-29T09:17:59Z</time>
      </trkpt>
      <trkpt lat="41.645342496" lon="2.501553323">
        <ele>248.16</ele>
        <time>2014-06-29T09:18:07Z</time>
      </trkpt>
      <trkpt lat="41.645141498" lon="2.501381913">
        <ele>247.20</ele>
        <time>2014-06-29T09:18:14Z</time>
      </trkpt>
      <trkpt lat="41.644961287" lon="2.501358779">
        <ele>244.31</ele>
        <time>2014-06-29T09:18:19Z</time>
      </trkpt>
      <trkpt lat="41.644834720" lon="2.501331119">
        <ele>242.87</ele>
        <time>2014-06-29T09:18:23Z</time>
      </trkpt>
      <trkpt lat="41.644826925" lon="2.501281414">
        <ele>242.87</ele>
        <time>2014-06-29T09:18:25Z</time>
      </trkpt>
      <trkpt lat="41.644897669" lon="2.501106149">
        <ele>241.43</ele>
        <time>2014-06-29T09:18:30Z</time>
      </trkpt>
      <trkpt lat="41.645043011" lon="2.500895092">
        <ele>238.06</ele>
        <time>2014-06-29T09:18:35Z</time>
      </trkpt>
      <trkpt lat="41.645133200" lon="2.500726951">
        <ele>236.14</ele>
        <time>2014-06-29T09:18:39Z</time>
      </trkpt>
      <trkpt lat="41.645167398" lon="2.500618070">
        <ele>234.70</ele>
        <time>2014-06-29T09:18:42Z</time>
      </trkpt>
      <trkpt lat="41.645184749" lon="2.500568869">
        <ele>234.22</ele>
        <time>2014-06-29T09:18:44Z</time>
      </trkpt>
      <trkpt lat="41.645238141" lon="2.500546657">
        <ele>232.78</ele>
        <time>2014-06-29T09:18:48Z</time>
      </trkpt>
      <trkpt lat="41.645405696" lon="2.500601055">
        <ele>229.89</ele>
        <time>2014-06-29T09:18:56Z</time>
      </trkpt>
      <trkpt lat="41.645436541" lon="2.500600301">
        <ele>229.41</ele>
        <time>2014-06-29T09:19:02Z</time>
      </trkpt>
      <trkpt lat="41.645487838" lon="2.500612874">
        <ele>228.93</ele>
        <time>2014-06-29T09:19:13Z</time>
      </trkpt>
      <trkpt lat="41.645516504" lon="2.500617148">
        <ele>229.41</ele>
        <time>2014-06-29T09:19:21Z</time>
      </trkpt>
      <trkpt lat="41.645534442" lon="2.500593428">
        <ele>228.45</ele>
        <time>2014-06-29T09:19:29Z</time>
      </trkpt>
      <trkpt lat="41.645556905" lon="2.500604324">
        <ele>227.97</ele>
        <time>2014-06-29T09:19:37Z</time>
      </trkpt>
      <trkpt lat="41.645623038" lon="2.500628967">
        <ele>227.49</ele>
        <time>2014-06-29T09:19:44Z</time>
      </trkpt>
      <trkpt lat="41.645718173" lon="2.500694849">
        <ele>224.61</ele>
        <time>2014-06-29T09:19:49Z</time>
      </trkpt>
      <trkpt lat="41.645745414" lon="2.500737177">
        <ele>224.12</ele>
        <time>2014-06-29T09:19:51Z</time>
      </trkpt>
      <trkpt lat="41.645808195" lon="2.500779254">
        <ele>222.20</ele>
        <time>2014-06-29T09:19:54Z</time>
      </trkpt>
      <trkpt lat="41.645896708" lon="2.500786882">
        <ele>219.32</ele>
        <time>2014-06-29T09:19:58Z</time>
      </trkpt>
      <trkpt lat="41.646042637" lon="2.500784200">
        <ele>216.43</ele>
        <time>2014-06-29T09:20:05Z</time>
      </trkpt>
      <trkpt lat="41.646183704" lon="2.500714798">
        <ele>213.55</ele>
        <time>2014-06-29T09:20:10Z</time>
      </trkpt>
      <trkpt lat="41.646262997" lon="2.500544394">
        <ele>211.15</ele>
        <time>2014-06-29T09:20:15Z</time>
      </trkpt>
      <trkpt lat="41.646361652" lon="2.500328476">
        <ele>209.22</ele>
        <time>2014-06-29T09:20:20Z</time>
      </trkpt>
      <trkpt lat="41.646573043" lon="2.500098225">
        <ele>208.26</ele>
        <time>2014-06-29T09:20:26Z</time>
      </trkpt>
      <trkpt lat="41.646681505" lon="2.499960259">
        <ele>206.82</ele>
        <time>2014-06-29T09:20:29Z</time>
      </trkpt>
      <trkpt lat="41.646845958" lon="2.499803182">
        <ele>206.34</ele>
        <time>2014-06-29T09:20:33Z</time>
      </trkpt>
      <trkpt lat="41.647002197" lon="2.499567818">
        <ele>205.86</ele>
        <time>2014-06-29T09:20:39Z</time>
      </trkpt>
      <trkpt lat="41.647127758" lon="2.499395151">
        <ele>205.86</ele>
        <time>2014-06-29T09:20:46Z</time>
      </trkpt>
      <trkpt lat="41.647256755" lon="2.499255089">
        <ele>205.86</ele>
        <time>2014-06-29T09:20:53Z</time>
      </trkpt>
      <trkpt lat="41.647472254" lon="2.499071777">
        <ele>205.38</ele>
        <time>2014-06-29T09:21:00Z</time>
      </trkpt>
      <trkpt lat="41.647663026" lon="2.498881592">
        <ele>204.90</ele>
        <time>2014-06-29T09:21:08Z</time>
      </trkpt>
      <trkpt lat="41.647761765" lon="2.498698279">
        <ele>204.42</ele>
        <time>2014-06-29T09:21:14Z</time>
      </trkpt>
      <trkpt lat="41.647868383" lon="2.498551848">
        <ele>204.42</ele>
        <time>2014-06-29T09:21:20Z</time>
      </trkpt>
      <trkpt lat="41.647970223" lon="2.498420671">
        <ele>204.42</ele>
        <time>2014-06-29T09:21:26Z</time>
      </trkpt>
      <trkpt lat="41.648100059" lon="2.498262923">
        <ele>204.42</ele>
        <time>2014-06-29T09:21:33Z</time>
      </trkpt>
      <trkpt lat="41.648119421" lon="2.498238783">
        <ele>204.42</ele>
        <time>2014-06-29T09:21:34Z</time>
      </trkpt>
      <trkpt lat="41.648287310" lon="2.498229312">
        <ele>203.46</ele>
        <time>2014-06-29T09:21:40Z</time>
      </trkpt>
      <trkpt lat="41.648414883" lon="2.498160748">
        <ele>202.98</ele>
        <time>2014-06-29T09:21:45Z</time>
      </trkpt>
      <trkpt lat="41.648440867" lon="2.498138620">
        <ele>202.98</ele>
        <time>2014-06-29T09:21:46Z</time>
      </trkpt>
      <trkpt lat="41.648594507" lon="2.497906273">
        <ele>202.98</ele>
        <time>2014-06-29T09:21:55Z</time>
      </trkpt>
      <trkpt lat="41.648633818" lon="2.497840224">
        <ele>203.94</ele>
        <time>2014-06-29T09:21:57Z</time>
      </trkpt>
      <trkpt lat="41.648782765" lon="2.497559346">
        <ele>205.38</ele>
        <time>2014-06-29T09:22:06Z</time>
      </trkpt>
      <trkpt lat="41.648916540" lon="2.497295819">
        <ele>206.34</ele>
        <time>2014-06-29T09:22:14Z</time>
      </trkpt>
      <trkpt lat="41.649016117" lon="2.496933637">
        <ele>207.78</ele>
        <time>2014-06-29T09:22:23Z</time>
      </trkpt>
      <trkpt lat="41.649037491" lon="2.496696010">
        <ele>208.74</ele>
        <time>2014-06-29T09:22:30Z</time>
      </trkpt>
      <trkpt lat="41.649040759" lon="2.496382443">
        <ele>210.19</ele>
        <time>2014-06-29T09:22:39Z</time>
      </trkpt>
      <trkpt lat="41.649024247" lon="2.496283788">
        <ele>211.15</ele>
        <time>2014-06-29T09:22:42Z</time>
      </trkpt>
      <trkpt lat="41.649106222" lon="2.496126963">
        <ele>211.15</ele>
        <time>2014-06-29T09:22:46Z</time>
      </trkpt>
      <trkpt lat="41.649223317" lon="2.495975083">
        <ele>209.22</ele>
        <time>2014-06-29T09:22:49Z</time>
      </trkpt>
      <trkpt lat="41.649476116" lon="2.495405700">
        <ele>206.34</ele>
        <time>2014-06-29T09:22:56Z</time>
      </trkpt>
      <trkpt lat="41.649531771" lon="2.495241583">
        <ele>205.86</ele>
        <time>2014-06-29T09:22:58Z</time>
      </trkpt>
      <trkpt lat="41.649582314" lon="2.494994652">
        <ele>205.86</ele>
        <time>2014-06-29T09:23:01Z</time>
      </trkpt>
      <trkpt lat="41.649607292" lon="2.494781081">
        <ele>204.90</ele>
        <time>2014-06-29T09:23:04Z</time>
      </trkpt>
      <trkpt lat="41.649652303" lon="2.494663483">
        <ele>203.94</ele>
        <time>2014-06-29T09:23:06Z</time>
      </trkpt>
      <trkpt lat="41.649757664" lon="2.494601037">
        <ele>202.98</ele>
        <time>2014-06-29T09:23:09Z</time>
      </trkpt>
      <trkpt lat="41.650050192" lon="2.494465754">
        <ele>202.98</ele>
        <time>2014-06-29T09:23:18Z</time>
      </trkpt>
      <trkpt lat="41.650216070" lon="2.494327620">
        <ele>204.42</ele>
        <time>2014-06-29T09:23:25Z</time>
      </trkpt>
      <trkpt lat="41.650341296" lon="2.494260313">
        <ele>205.86</ele>
        <time>2014-06-29T09:23:30Z</time>
      </trkpt>
      <trkpt lat="41.650456798" lon="2.494099632">
        <ele>206.82</ele>
        <time>2014-06-29T09:23:37Z</time>
      </trkpt>
      <trkpt lat="41.650618234" lon="2.493999804">
        <ele>206.82</ele>
        <time>2014-06-29T09:23:42Z</time>
      </trkpt>
      <trkpt lat="41.650706411" lon="2.493958648">
        <ele>204.90</ele>
        <time>2014-06-29T09:23:44Z</time>
      </trkpt>
      <trkpt lat="41.650839181" lon="2.493951105">
        <ele>203.46</ele>
        <time>2014-06-29T09:23:47Z</time>
      </trkpt>
      <trkpt lat="41.650923838" lon="2.493980944">
        <ele>202.49</ele>
        <time>2014-06-29T09:23:49Z</time>
      </trkpt>
      <trkpt lat="41.651195998" lon="2.493857563">
        <ele>199.61</ele>
        <time>2014-06-29T09:23:54Z</time>
      </trkpt>
      <trkpt lat="41.651242015" lon="2.493803332">
        <ele>199.61</ele>
        <time>2014-06-29T09:23:55Z</time>
      </trkpt>
      <trkpt lat="41.651283673" lon="2.493745832">
        <ele>199.61</ele>
        <time>2014-06-29T09:23:56Z</time>
      </trkpt>
      <trkpt lat="41.651538483" lon="2.493386248">
        <ele>198.65</ele>
        <time>2014-06-29T09:24:03Z</time>
      </trkpt>
      <trkpt lat="41.651602101" lon="2.493301423">
        <ele>198.65</ele>
        <time>2014-06-29T09:24:05Z</time>
      </trkpt>
      <trkpt lat="41.651732356" lon="2.493235123">
        <ele>197.69</ele>
        <time>2014-06-29T09:24:09Z</time>
      </trkpt>
      <trkpt lat="41.651831263" lon="2.493295891">
        <ele>196.25</ele>
        <time>2014-06-29T09:24:13Z</time>
      </trkpt>
      <trkpt lat="41.651945676" lon="2.493347189">
        <ele>195.28</ele>
        <time>2014-06-29T09:24:16Z</time>
      </trkpt>
      <trkpt lat="41.652164779" lon="2.493493620">
        <ele>194.32</ele>
        <time>2014-06-29T09:24:22Z</time>
      </trkpt>
      <trkpt lat="41.652333758" lon="2.493496303">
        <ele>193.84</ele>
        <time>2014-06-29T09:24:27Z</time>
      </trkpt>
      <trkpt lat="41.652382289" lon="2.493505690">
        <ele>193.36</ele>
        <time>2014-06-29T09:24:30Z</time>
      </trkpt>
      <trkpt lat="41.652460157" lon="2.493462775">
        <ele>193.36</ele>
        <time>2014-06-29T09:24:34Z</time>
      </trkpt>
      <trkpt lat="41.652683367" lon="2.493348194">
        <ele>193.36</ele>
        <time>2014-06-29T09:24:41Z</time>
      </trkpt>
      <trkpt lat="41.652794260" lon="2.493258089">
        <ele>193.36</ele>
        <time>2014-06-29T09:24:47Z</time>
      </trkpt>
      <trkpt lat="41.652918563" lon="2.493200505">
        <ele>194.80</ele>
        <time>2014-06-29T09:24:53Z</time>
      </trkpt>
      <trkpt lat="41.653055188" lon="2.493128337">
        <ele>194.32</ele>
        <time>2014-06-29T09:24:56Z</time>
      </trkpt>
      <trkpt lat="41.653146886" lon="2.493072514">
        <ele>193.36</ele>
        <time>2014-06-29T09:24:58Z</time>
      </trkpt>
      <trkpt lat="41.653189466" lon="2.493044434">
        <ele>193.36</ele>
        <time>2014-06-29T09:24:59Z</time>
      </trkpt>
      <trkpt lat="41.653364397" lon="2.492972769">
        <ele>192.88</ele>
        <time>2014-06-29T09:25:04Z</time>
      </trkpt>
      <trkpt lat="41.653527257" lon="2.492953994">
        <ele>192.88</ele>
        <time>2014-06-29T09:25:11Z</time>
      </trkpt>
      <trkpt lat="41.653556845" lon="2.492951898">
        <ele>192.88</ele>
        <time>2014-06-29T09:25:12Z</time>
      </trkpt>
      <trkpt lat="41.653801094" lon="2.492939241">
        <ele>192.88</ele>
        <time>2014-06-29T09:25:20Z</time>
      </trkpt>
      <trkpt lat="41.654021119" lon="2.492954413">
        <ele>192.88</ele>
        <time>2014-06-29T09:25:26Z</time>
      </trkpt>
      <trkpt lat="41.654241563" lon="2.492968494">
        <ele>191.44</ele>
        <time>2014-06-29T09:25:31Z</time>
      </trkpt>
      <trkpt lat="41.654448344" lon="2.492978972">
        <ele>191.44</ele>
        <time>2014-06-29T09:25:37Z</time>
      </trkpt>
      <trkpt lat="41.654712961" lon="2.493027754">
        <ele>190.96</ele>
        <time>2014-06-29T09:25:43Z</time>
      </trkpt>
      <trkpt lat="41.654788398" lon="2.492993305">
        <ele>190.48</ele>
        <time>2014-06-29T09:25:47Z</time>
      </trkpt>
      <trkpt lat="41.654847658" lon="2.492951227">
        <ele>190.48</ele>
        <time>2014-06-29T09:25:53Z</time>
      </trkpt>
      <trkpt lat="41.654904823" lon="2.492931027">
        <ele>190.48</ele>
        <time>2014-06-29T09:26:09Z</time>
      </trkpt>
      <trkpt lat="41.654921419" lon="2.492933374">
        <ele>190.48</ele>
        <time>2014-06-29T09:26:21Z</time>
      </trkpt>
      <trkpt lat="41.654948912" lon="2.492920634">
        <ele>190.48</ele>
        <time>2014-06-29T09:26:27Z</time>
      </trkpt>
      <trkpt lat="41.655030048" lon="2.492940247">
        <ele>190.48</ele>
        <time>2014-06-29T09:26:34Z</time>
      </trkpt>
      <trkpt lat="41.655133313" lon="2.493001016">
        <ele>190.48</ele>
        <time>2014-06-29T09:26:40Z</time>
      </trkpt>
      <trkpt lat="41.655299778" lon="2.493133366">
        <ele>190.48</ele>
        <time>2014-06-29T09:26:48Z</time>
      </trkpt>
      <trkpt lat="41.655401534" lon="2.493227579">
        <ele>190.48</ele>
        <time>2014-06-29T09:26:53Z</time>
      </trkpt>
      <trkpt lat="41.655592558" lon="2.493249623">
        <ele>190.48</ele>
        <time>2014-06-29T09:27:00Z</time>
      </trkpt>
      <trkpt lat="41.655867317" lon="2.493303603">
        <ele>189.52</ele>
        <time>2014-06-29T09:27:07Z</time>
      </trkpt>
      <trkpt lat="41.655923895" lon="2.493320199">
        <ele>189.52</ele>
        <time>2014-06-29T09:27:08Z</time>
      </trkpt>
      <trkpt lat="41.656083821" lon="2.493359091">
        <ele>189.04</ele>
        <time>2014-06-29T09:27:11Z</time>
      </trkpt>
      <trkpt lat="41.656391437" lon="2.493421201">
        <ele>188.56</ele>
        <time>2014-06-29T09:27:18Z</time>
      </trkpt>
      <trkpt lat="41.656507526" lon="2.493423548">
        <ele>188.56</ele>
        <time>2014-06-29T09:27:21Z</time>
      </trkpt>
      <trkpt lat="41.656675835" lon="2.493105790">
        <ele>188.56</ele>
        <time>2014-06-29T09:27:29Z</time>
      </trkpt>
      <trkpt lat="41.656852526" lon="2.492671188">
        <ele>188.56</ele>
        <time>2014-06-29T09:27:39Z</time>
      </trkpt>
      <trkpt lat="41.656971632" lon="2.492339265">
        <ele>188.56</ele>
        <time>2014-06-29T09:27:47Z</time>
      </trkpt>
      <trkpt lat="41.657081016" lon="2.491947662">
        <ele>187.59</ele>
        <time>2014-06-29T09:27:55Z</time>
      </trkpt>
      <trkpt lat="41.657082609" lon="2.491654296">
        <ele>187.11</ele>
        <time>2014-06-29T09:28:01Z</time>
      </trkpt>
      <trkpt lat="41.657032150" lon="2.491178790">
        <ele>186.63</ele>
        <time>2014-06-29T09:28:10Z</time>
      </trkpt>
      <trkpt lat="41.656968112" lon="2.490764137">
        <ele>186.15</ele>
        <time>2014-06-29T09:28:18Z</time>
      </trkpt>
      <trkpt lat="41.656899129" lon="2.490453672">
        <ele>186.15</ele>
        <time>2014-06-29T09:28:25Z</time>
      </trkpt>
      <trkpt lat="41.656818076" lon="2.490218895">
        <ele>185.67</ele>
        <time>2014-06-29T09:28:31Z</time>
      </trkpt>
      <trkpt lat="41.656711458" lon="2.489998451">
        <ele>185.67</ele>
        <time>2014-06-29T09:28:37Z</time>
      </trkpt>
      <trkpt lat="41.656613474" lon="2.489730816">
        <ele>185.19</ele>
        <time>2014-06-29T09:28:44Z</time>
      </trkpt>
      <trkpt lat="41.656577264" lon="2.489662839">
        <ele>186.63</ele>
        <time>2014-06-29T09:28:47Z</time>
      </trkpt>
      <trkpt lat="41.656535773" lon="2.489567202">
        <ele>188.08</ele>
        <time>2014-06-29T09:28:51Z</time>
      </trkpt>
      <trkpt lat="41.656514316" lon="2.489444323">
        <ele>188.08</ele>
        <time>2014-06-29T09:28:55Z</time>
      </trkpt>
      <trkpt lat="41.656575085" lon="2.489188759">
        <ele>187.11</ele>
        <time>2014-06-29T09:29:02Z</time>
      </trkpt>
      <trkpt lat="41.656574582" lon="2.488910061">
        <ele>185.19</ele>
        <time>2014-06-29T09:29:08Z</time>
      </trkpt>
      <trkpt lat="41.656566619" lon="2.488523655">
        <ele>184.23</ele>
        <time>2014-06-29T09:29:15Z</time>
      </trkpt>
      <trkpt lat="41.656521692" lon="2.488316538">
        <ele>184.23</ele>
        <time>2014-06-29T09:29:19Z</time>
      </trkpt>
      <trkpt lat="41.656439214" lon="2.487983273">
        <ele>183.75</ele>
        <time>2014-06-29T09:29:25Z</time>
      </trkpt>
      <trkpt lat="41.656286580" lon="2.487717483">
        <ele>183.75</ele>
        <time>2014-06-29T09:29:32Z</time>
      </trkpt>
      <trkpt lat="41.656243245" lon="2.487616817">
        <ele>185.19</ele>
        <time>2014-06-29T09:29:35Z</time>
      </trkpt>
      <trkpt lat="41.656182979" lon="2.487388494">
        <ele>185.19</ele>
        <time>2014-06-29T09:29:40Z</time>
      </trkpt>
      <trkpt lat="41.656046019" lon="2.487011057">
        <ele>185.19</ele>
        <time>2014-06-29T09:29:48Z</time>
      </trkpt>
      <trkpt lat="41.655971839" lon="2.486774016">
        <ele>185.67</ele>
        <time>2014-06-29T09:29:53Z</time>
      </trkpt>
      <trkpt lat="41.655972258" lon="2.486497916">
        <ele>185.67</ele>
        <time>2014-06-29T09:29:59Z</time>
      </trkpt>
      <trkpt lat="41.655983658" lon="2.486187870">
        <ele>183.27</ele>
        <time>2014-06-29T09:30:04Z</time>
      </trkpt>
      <trkpt lat="41.655889613" lon="2.485636927">
        <ele>183.27</ele>
        <time>2014-06-29T09:30:11Z</time>
      </trkpt>
      <trkpt lat="41.655830520" lon="2.485281199">
        <ele>181.83</ele>
        <time>2014-06-29T09:30:16Z</time>
      </trkpt>
      <trkpt lat="41.655845859" lon="2.484932931">
        <ele>181.83</ele>
        <time>2014-06-29T09:30:23Z</time>
      </trkpt>
      <trkpt lat="41.655866060" lon="2.484821368">
        <ele>181.35</ele>
        <time>2014-06-29T09:30:25Z</time>
      </trkpt>
      <trkpt lat="41.655862371" lon="2.484473938">
        <ele>181.35</ele>
        <time>2014-06-29T09:30:32Z</time>
      </trkpt>
      <trkpt lat="41.655863796" lon="2.484184763">
        <ele>181.35</ele>
        <time>2014-06-29T09:30:39Z</time>
      </trkpt>
      <trkpt lat="41.655920290" lon="2.483796848">
        <ele>181.35</ele>
        <time>2014-06-29T09:30:45Z</time>
      </trkpt>
      <trkpt lat="41.655956836" lon="2.483521167">
        <ele>180.87</ele>
        <time>2014-06-29T09:30:51Z</time>
      </trkpt>
      <trkpt lat="41.656004026" lon="2.483212210">
        <ele>180.87</ele>
        <time>2014-06-29T09:30:59Z</time>
      </trkpt>
      <trkpt lat="41.656024813" lon="2.483147334">
        <ele>180.87</ele>
        <time>2014-06-29T09:31:01Z</time>
      </trkpt>
      <trkpt lat="41.656122546" lon="2.483036693">
        <ele>184.23</ele>
        <time>2014-06-29T09:31:07Z</time>
      </trkpt>
      <trkpt lat="41.656168311" lon="2.483009955">
        <ele>185.67</ele>
        <time>2014-06-29T09:31:10Z</time>
      </trkpt>
      <trkpt lat="41.656269732" lon="2.483021271">
        <ele>186.15</ele>
        <time>2014-06-29T09:31:14Z</time>
      </trkpt>
      <trkpt lat="41.656399065" lon="2.482975925">
        <ele>184.23</ele>
        <time>2014-06-29T09:31:17Z</time>
      </trkpt>
      <trkpt lat="41.656565697" lon="2.482831085">
        <ele>184.23</ele>
        <time>2014-06-29T09:31:22Z</time>
      </trkpt>
      <trkpt lat="41.656769964" lon="2.482761180">
        <ele>182.31</ele>
        <time>2014-06-29T09:31:27Z</time>
      </trkpt>
      <trkpt lat="41.656920671" lon="2.482759839">
        <ele>179.42</ele>
        <time>2014-06-29T09:31:31Z</time>
      </trkpt>
      <trkpt lat="41.656964005" lon="2.482743159">
        <ele>178.94</ele>
        <time>2014-06-29T09:31:32Z</time>
      </trkpt>
      <trkpt lat="41.657211187" lon="2.482523302">
        <ele>178.94</ele>
        <time>2014-06-29T09:31:39Z</time>
      </trkpt>
      <trkpt lat="41.657360218" lon="2.482432610">
        <ele>178.94</ele>
        <time>2014-06-29T09:31:43Z</time>
      </trkpt>
      <trkpt lat="41.657606143" lon="2.482391454">
        <ele>177.50</ele>
        <time>2014-06-29T09:31:48Z</time>
      </trkpt>
      <trkpt lat="41.657815187" lon="2.482379804">
        <ele>177.02</ele>
        <time>2014-06-29T09:31:53Z</time>
      </trkpt>
      <trkpt lat="41.658049797" lon="2.482333535">
        <ele>175.58</ele>
        <time>2014-06-29T09:31:58Z</time>
      </trkpt>
      <trkpt lat="41.658195977" lon="2.482283663">
        <ele>175.58</ele>
        <time>2014-06-29T09:32:01Z</time>
      </trkpt>
      <trkpt lat="41.658514070" lon="2.482154833">
        <ele>175.10</ele>
        <time>2014-06-29T09:32:08Z</time>
      </trkpt>
      <trkpt lat="41.658641559" lon="2.482113343">
        <ele>174.62</ele>
        <time>2014-06-29T09:32:11Z</time>
      </trkpt>
      <trkpt lat="41.658917240" lon="2.482028853">
        <ele>174.14</ele>
        <time>2014-06-29T09:32:18Z</time>
      </trkpt>
      <trkpt lat="41.659100971" lon="2.482126335">
        <ele>173.66</ele>
        <time>2014-06-29T09:32:24Z</time>
      </trkpt>
      <trkpt lat="41.659170122" lon="2.482130526">
        <ele>173.66</ele>
        <time>2014-06-29T09:32:26Z</time>
      </trkpt>
      <trkpt lat="41.659317476" lon="2.482147206">
        <ele>173.66</ele>
        <time>2014-06-29T09:32:30Z</time>
      </trkpt>
      <trkpt lat="41.659614950" lon="2.482210489">
        <ele>172.69</ele>
        <time>2014-06-29T09:32:38Z</time>
      </trkpt>
      <trkpt lat="41.659726513" lon="2.482222308">
        <ele>172.69</ele>
        <time>2014-06-29T09:32:41Z</time>
      </trkpt>
      <trkpt lat="41.660018454" lon="2.482173525">
        <ele>172.21</ele>
        <time>2014-06-29T09:32:48Z</time>
      </trkpt>
      <trkpt lat="41.660381223" lon="2.482175034">
        <ele>172.21</ele>
        <time>2014-06-29T09:32:56Z</time>
      </trkpt>
      <trkpt lat="41.660602338" lon="2.482219374">
        <ele>171.25</ele>
        <time>2014-06-29T09:33:02Z</time>
      </trkpt>
      <trkpt lat="41.660769557" lon="2.482188529">
        <ele>171.25</ele>
        <time>2014-06-29T09:33:07Z</time>
      </trkpt>
      <trkpt lat="41.660877013" lon="2.482139411">
        <ele>172.69</ele>
        <time>2014-06-29T09:33:11Z</time>
      </trkpt>
      <trkpt lat="41.661031910" lon="2.482081743">
        <ele>175.10</ele>
        <time>2014-06-29T09:33:18Z</time>
      </trkpt>
      <trkpt lat="41.661164009" lon="2.481979149">
        <ele>176.06</ele>
        <time>2014-06-29T09:33:23Z</time>
      </trkpt>
      <trkpt lat="41.661338269" lon="2.481746132">
        <ele>177.02</ele>
        <time>2014-06-29T09:33:30Z</time>
      </trkpt>
      <trkpt lat="41.661401133" lon="2.481589977">
        <ele>177.98</ele>
        <time>2014-06-29T09:33:36Z</time>
      </trkpt>
      <trkpt lat="41.661583942" lon="2.481366012">
        <ele>177.98</ele>
        <time>2014-06-29T09:33:42Z</time>
      </trkpt>
      <trkpt lat="41.661650243" lon="2.481287642">
        <ele>177.98</ele>
        <time>2014-06-29T09:33:44Z</time>
      </trkpt>
      <trkpt lat="41.661713778" lon="2.481197201">
        <ele>176.54</ele>
        <time>2014-06-29T09:33:46Z</time>
      </trkpt>
      <trkpt lat="41.661827856" lon="2.481043812">
        <ele>175.58</ele>
        <time>2014-06-29T09:33:49Z</time>
      </trkpt>
      <trkpt lat="41.661877393" lon="2.480940966">
        <ele>175.10</ele>
        <time>2014-06-29T09:33:51Z</time>
      </trkpt>
      <trkpt lat="41.661841015" lon="2.480802413">
        <ele>175.10</ele>
        <time>2014-06-29T09:33:55Z</time>
      </trkpt>
      <trkpt lat="41.661826347" lon="2.480692191">
        <ele>176.06</ele>
        <time>2014-06-29T09:33:59Z</time>
      </trkpt>
      <trkpt lat="41.661866664" lon="2.480577611">
        <ele>176.06</ele>
        <time>2014-06-29T09:34:02Z</time>
      </trkpt>
      <trkpt lat="41.662017790" lon="2.480550369">
        <ele>173.66</ele>
        <time>2014-06-29T09:34:07Z</time>
      </trkpt>
      <trkpt lat="41.662119462" lon="2.480579119">
        <ele>171.73</ele>
        <time>2014-06-29T09:34:10Z</time>
      </trkpt>
      <trkpt lat="41.662347450" lon="2.480732424">
        <ele>169.33</ele>
        <time>2014-06-29T09:34:15Z</time>
      </trkpt>
      <trkpt lat="41.662574767" lon="2.480814818">
        <ele>167.41</ele>
        <time>2014-06-29T09:34:22Z</time>
      </trkpt>
      <trkpt lat="41.662622293" lon="2.480821608">
        <ele>167.41</ele>
        <time>2014-06-29T09:34:25Z</time>
      </trkpt>
      <trkpt lat="41.662616844" lon="2.480832840">
        <ele>167.41</ele>
        <time>2014-06-29T09:34:31Z</time>
      </trkpt>
      <trkpt lat="41.662626735" lon="2.480809789">
        <ele>167.41</ele>
        <time>2014-06-29T09:34:33Z</time>
      </trkpt>
      <trkpt lat="41.662680212" lon="2.480820183">
        <ele>167.41</ele>
        <time>2014-06-29T09:34:37Z</time>
      </trkpt>
      <trkpt lat="41.662793703" lon="2.480882041">
        <ele>167.41</ele>
        <time>2014-06-29T09:34:41Z</time>
      </trkpt>
      <trkpt lat="41.662899985" lon="2.480825631">
        <ele>167.41</ele>
        <time>2014-06-29T09:34:45Z</time>
      </trkpt>
      <trkpt lat="41.662959329" lon="2.480742818">
        <ele>167.41</ele>
        <time>2014-06-29T09:34:47Z</time>
      </trkpt>
      <trkpt lat="41.663143982" lon="2.480414834">
        <ele>167.41</ele>
        <time>2014-06-29T09:34:55Z</time>
      </trkpt>
      <trkpt lat="41.663189747" lon="2.480324645">
        <ele>166.93</ele>
        <time>2014-06-29T09:34:57Z</time>
      </trkpt>
      <trkpt lat="41.663354955" lon="2.479989285">
        <ele>165.96</ele>
        <time>2014-06-29T09:35:04Z</time>
      </trkpt>
      <trkpt lat="41.663374904" lon="2.479955757">
        <ele>165.96</ele>
        <time>2014-06-29T09:35:05Z</time>
      </trkpt>
      <trkpt lat="41.663365684" lon="2.479885265">
        <ele>165.96</ele>
        <time>2014-06-29T09:35:08Z</time>
      </trkpt>
      <trkpt lat="41.663333916" lon="2.479680495">
        <ele>165.96</ele>
        <time>2014-06-29T09:35:12Z</time>
      </trkpt>
      <trkpt lat="41.663418154" lon="2.479183616">
        <ele>165.48</ele>
        <time>2014-06-29T09:35:21Z</time>
      </trkpt>
      <trkpt lat="41.663477163" lon="2.479003824">
        <ele>165.48</ele>
        <time>2014-06-29T09:35:26Z</time>
      </trkpt>
      <trkpt lat="41.663566430" lon="2.478788158">
        <ele>165.48</ele>
        <time>2014-06-29T09:35:32Z</time>
      </trkpt>
      <trkpt lat="41.663613872" lon="2.478689838">
        <ele>165.00</ele>
        <time>2014-06-29T09:35:34Z</time>
      </trkpt>
      <trkpt lat="41.663787629" lon="2.478519183">
        <ele>164.52</ele>
        <time>2014-06-29T09:35:40Z</time>
      </trkpt>
      <trkpt lat="41.663829035" lon="2.478525553">
        <ele>164.52</ele>
        <time>2014-06-29T09:35:41Z</time>
      </trkpt>
      <trkpt lat="41.664170682" lon="2.478461767">
        <ele>165.48</ele>
        <time>2014-06-29T09:35:49Z</time>
      </trkpt>
      <trkpt lat="41.664471005" lon="2.478391610">
        <ele>166.45</ele>
        <time>2014-06-29T09:35:57Z</time>
      </trkpt>
      <trkpt lat="41.664743166" lon="2.478441231">
        <ele>167.41</ele>
        <time>2014-06-29T09:36:04Z</time>
      </trkpt>
      <trkpt lat="41.664913067" lon="2.478571821">
        <ele>169.33</ele>
        <time>2014-06-29T09:36:11Z</time>
      </trkpt>
      <trkpt lat="41.665099145" lon="2.478784386">
        <ele>170.77</ele>
        <time>2014-06-29T09:36:18Z</time>
      </trkpt>
      <trkpt lat="41.665248762" lon="2.479185209">
        <ele>170.77</ele>
        <time>2014-06-29T09:36:25Z</time>
      </trkpt>
      <trkpt lat="41.665276506" lon="2.479313117">
        <ele>169.33</ele>
        <time>2014-06-29T09:36:27Z</time>
      </trkpt>
      <trkpt lat="41.665305424" lon="2.479436834">
        <ele>168.37</ele>
        <time>2014-06-29T09:36:29Z</time>
      </trkpt>
      <trkpt lat="41.665337526" lon="2.479688877">
        <ele>167.89</ele>
        <time>2014-06-29T09:36:33Z</time>
      </trkpt>
      <trkpt lat="41.665336269" lon="2.479818043">
        <ele>165.96</ele>
        <time>2014-06-29T09:36:35Z</time>
      </trkpt>
      <trkpt lat="41.665319002" lon="2.479949638">
        <ele>165.00</ele>
        <time>2014-06-29T09:36:37Z</time>
      </trkpt>
      <trkpt lat="41.665277428" lon="2.480153905">
        <ele>162.60</ele>
        <time>2014-06-29T09:36:40Z</time>
      </trkpt>
      <trkpt lat="41.665275081" lon="2.480794618">
        <ele>161.64</ele>
        <time>2014-06-29T09:36:48Z</time>
      </trkpt>
      <trkpt lat="41.665268711" lon="2.480869301">
        <ele>161.64</ele>
        <time>2014-06-29T09:36:49Z</time>
      </trkpt>
      <trkpt lat="41.665253623" lon="2.481187981">
        <ele>161.16</ele>
        <time>2014-06-29T09:36:54Z</time>
      </trkpt>
      <trkpt lat="41.665266699" lon="2.481471541">
        <ele>161.16</ele>
        <time>2014-06-29T09:36:58Z</time>
      </trkpt>
      <trkpt lat="41.665280613" lon="2.481809750">
        <ele>160.20</ele>
        <time>2014-06-29T09:37:03Z</time>
      </trkpt>
      <trkpt lat="41.665339789" lon="2.481869178">
        <ele>159.72</ele>
        <time>2014-06-29T09:37:05Z</time>
      </trkpt>
      <trkpt lat="41.665504661" lon="2.481933467">
        <ele>159.24</ele>
        <time>2014-06-29T09:37:09Z</time>
      </trkpt>
      <trkpt lat="41.665636593" lon="2.481871274">
        <ele>158.75</ele>
        <time>2014-06-29T09:37:13Z</time>
      </trkpt>
      <trkpt lat="41.665891235" lon="2.481671281">
        <ele>158.75</ele>
        <time>2014-06-29T09:37:21Z</time>
      </trkpt>
      <trkpt lat="41.666033140" lon="2.481553599">
        <ele>158.75</ele>
        <time>2014-06-29T09:37:26Z</time>
      </trkpt>
      <trkpt lat="41.666190217" lon="2.481466260">
        <ele>158.75</ele>
        <time>2014-06-29T09:37:30Z</time>
      </trkpt>
      <trkpt lat="41.666334051" lon="2.481420327">
        <ele>157.79</ele>
        <time>2014-06-29T09:37:34Z</time>
      </trkpt>
      <trkpt lat="41.666652479" lon="2.481286720">
        <ele>157.31</ele>
        <time>2014-06-29T09:37:41Z</time>
      </trkpt>
      <trkpt lat="41.666942828" lon="2.481173564">
        <ele>156.83</ele>
        <time>2014-06-29T09:37:47Z</time>
      </trkpt>
      <trkpt lat="41.667240134" lon="2.481037526">
        <ele>156.35</ele>
        <time>2014-06-29T09:37:54Z</time>
      </trkpt>
      <trkpt lat="41.667404420" lon="2.480990168">
        <ele>156.35</ele>
        <time>2014-06-29T09:37:58Z</time>
      </trkpt>
      <trkpt lat="41.667496537" lon="2.481013386">
        <ele>155.87</ele>
        <time>2014-06-29T09:38:00Z</time>
      </trkpt>
      <trkpt lat="41.667787221" lon="2.480933171">
        <ele>154.91</ele>
        <time>2014-06-29T09:38:06Z</time>
      </trkpt>
      <trkpt lat="41.667996266" lon="2.480902242">
        <ele>154.91</ele>
        <time>2014-06-29T09:38:12Z</time>
      </trkpt>
      <trkpt lat="41.668197599" lon="2.480832923">
        <ele>154.43</ele>
        <time>2014-06-29T09:38:17Z</time>
      </trkpt>
      <trkpt lat="41.668510831" lon="2.480645336">
        <ele>154.43</ele>
        <time>2014-06-29T09:38:25Z</time>
      </trkpt>
      <trkpt lat="41.668587609" lon="2.480465042">
        <ele>156.35</ele>
        <time>2014-06-29T09:38:30Z</time>
      </trkpt>
      <trkpt lat="41.668697496" lon="2.480245017">
        <ele>157.79</ele>
        <time>2014-06-29T09:38:36Z</time>
      </trkpt>
      <trkpt lat="41.668846107" lon="2.480110822">
        <ele>159.24</ele>
        <time>2014-06-29T09:38:43Z</time>
      </trkpt>
      <trkpt lat="41.669038723" lon="2.480067907">
        <ele>159.24</ele>
        <time>2014-06-29T09:38:50Z</time>
      </trkpt>
      <trkpt lat="41.669086249" lon="2.480070757">
        <ele>159.24</ele>
        <time>2014-06-29T09:38:52Z</time>
      </trkpt>
      <trkpt lat="41.669186329" lon="2.480191037">
        <ele>159.24</ele>
        <time>2014-06-29T09:38:58Z</time>
      </trkpt>
      <trkpt lat="41.669302753" lon="2.480335457">
        <ele>159.72</ele>
        <time>2014-06-29T09:39:04Z</time>
      </trkpt>
      <trkpt lat="41.669364025" lon="2.480369991">
        <ele>159.72</ele>
        <time>2014-06-29T09:39:07Z</time>
      </trkpt>
      <trkpt lat="41.669445832" lon="2.480455235">
        <ele>159.72</ele>
        <time>2014-06-29T09:39:11Z</time>
      </trkpt>
      <trkpt lat="41.669679604" lon="2.480626058">
        <ele>159.72</ele>
        <time>2014-06-29T09:39:21Z</time>
      </trkpt>
      <trkpt lat="41.669839614" lon="2.480637960">
        <ele>159.72</ele>
        <time>2014-06-29T09:39:28Z</time>
      </trkpt>
      <trkpt lat="41.670005995" lon="2.480615581">
        <ele>160.20</ele>
        <time>2014-06-29T09:39:35Z</time>
      </trkpt>
      <trkpt lat="41.670174974" lon="2.480530923">
        <ele>160.20</ele>
        <time>2014-06-29T09:39:43Z</time>
      </trkpt>
      <trkpt lat="41.670260302" lon="2.480476692">
        <ele>160.20</ele>
        <time>2014-06-29T09:39:48Z</time>
      </trkpt>
      <trkpt lat="41.670418468" lon="2.480312826">
        <ele>160.20</ele>
        <time>2014-06-29T09:39:57Z</time>
      </trkpt>
      <trkpt lat="41.670585687" lon="2.480106883">
        <ele>160.70</ele>
        <time>2014-06-29T09:40:06Z</time>
      </trkpt>
      <trkpt lat="41.670704459" lon="2.479886271">
        <ele>160.70</ele>
        <time>2014-06-29T09:40:14Z</time>
      </trkpt>
      <trkpt lat="41.670804287" lon="2.479683429">
        <ele>160.70</ele>
        <time>2014-06-29T09:40:21Z</time>
      </trkpt>
      <trkpt lat="41.670894141" lon="2.479423003">
        <ele>160.70</ele>
        <time>2014-06-29T09:40:29Z</time>
      </trkpt>
      <trkpt lat="41.670931944" lon="2.479183281">
        <ele>160.70</ele>
        <time>2014-06-29T09:40:35Z</time>
      </trkpt>
      <trkpt lat="41.671068401" lon="2.479187640">
        <ele>158.80</ele>
        <time>2014-06-29T09:40:40Z</time>
      </trkpt>
      <trkpt lat="41.671120453" lon="2.479260059">
        <ele>157.80</ele>
        <time>2014-06-29T09:40:42Z</time>
      </trkpt>
      <trkpt lat="41.671174516" lon="2.479360810">
        <ele>157.30</ele>
        <time>2014-06-29T09:40:44Z</time>
      </trkpt>
      <trkpt lat="41.671455310" lon="2.479861042">
        <ele>154.00</ele>
        <time>2014-06-29T09:40:52Z</time>
      </trkpt>
      <trkpt lat="41.671598473" lon="2.480241915">
        <ele>153.00</ele>
        <time>2014-06-29T09:40:57Z</time>
      </trkpt>
      <trkpt lat="41.671660666" lon="2.480526732">
        <ele>153.50</ele>
        <time>2014-06-29T09:41:01Z</time>
      </trkpt>
      <trkpt lat="41.671669132" lon="2.480766036">
        <ele>153.00</ele>
        <time>2014-06-29T09:41:05Z</time>
      </trkpt>
      <trkpt lat="41.671679107" lon="2.481238943">
        <ele>153.50</ele>
        <time>2014-06-29T09:41:14Z</time>
      </trkpt>
      <trkpt lat="41.671789999" lon="2.481626606">
        <ele>154.40</ele>
        <time>2014-06-29T09:41:23Z</time>
      </trkpt>
      <trkpt lat="41.671867280" lon="2.481841434">
        <ele>154.90</ele>
        <time>2014-06-29T09:41:30Z</time>
      </trkpt>
      <trkpt lat="41.671980017" lon="2.482026674">
        <ele>155.40</ele>
        <time>2014-06-29T09:41:36Z</time>
      </trkpt>
      <trkpt lat="41.672004324" lon="2.482287603">
        <ele>155.90</ele>
        <time>2014-06-29T09:41:43Z</time>
      </trkpt>
      <trkpt lat="41.671951938" lon="2.482563619">
        <ele>157.80</ele>
        <time>2014-06-29T09:41:52Z</time>
      </trkpt>
      <trkpt lat="41.671837860" lon="2.482766545">
        <ele>159.20</ele>
        <time>2014-06-29T09:42:00Z</time>
      </trkpt>
      <trkpt lat="41.671683381" lon="2.482915659">
        <ele>160.20</ele>
        <time>2014-06-29T09:42:08Z</time>
      </trkpt>
      <trkpt lat="41.671482886" lon="2.483052116">
        <ele>161.20</ele>
        <time>2014-06-29T09:42:17Z</time>
      </trkpt>
      <trkpt lat="41.671313572" lon="2.483107269">
        <ele>161.60</ele>
        <time>2014-06-29T09:42:24Z</time>
      </trkpt>
      <trkpt lat="41.671163200" lon="2.483210450">
        <ele>162.60</ele>
        <time>2014-06-29T09:42:31Z</time>
      </trkpt>
      <trkpt lat="41.671007968" lon="2.483370628">
        <ele>163.10</ele>
        <time>2014-06-29T09:42:38Z</time>
      </trkpt>
      <trkpt lat="41.670839575" lon="2.483628288">
        <ele>163.10</ele>
        <time>2014-06-29T09:42:46Z</time>
      </trkpt>
      <trkpt lat="41.670816273" lon="2.483652176">
        <ele>163.10</ele>
        <time>2014-06-29T09:42:47Z</time>
      </trkpt>
      <trkpt lat="41.670717199" lon="2.483791148">
        <ele>163.10</ele>
        <time>2014-06-29T09:42:52Z</time>
      </trkpt>
      <trkpt lat="41.670477309" lon="2.483977981">
        <ele>163.10</ele>
        <time>2014-06-29T09:43:01Z</time>
      </trkpt>
      <trkpt lat="41.670259715" lon="2.484031793">
        <ele>163.10</ele>
        <time>2014-06-29T09:43:08Z</time>
      </trkpt>
      <trkpt lat="41.670063495" lon="2.484040594">
        <ele>163.10</ele>
        <time>2014-06-29T09:43:15Z</time>
      </trkpt>
      <trkpt lat="41.669896695" lon="2.484043695">
        <ele>164.04</ele>
        <time>2014-06-29T09:43:22Z</time>
      </trkpt>
      <trkpt lat="41.669758393" lon="2.484072110">
        <ele>166.45</ele>
        <time>2014-06-29T09:43:30Z</time>
      </trkpt>
      <trkpt lat="41.669598467" lon="2.484159365">
        <ele>167.89</ele>
        <time>2014-06-29T09:43:38Z</time>
      </trkpt>
      <trkpt lat="41.669421441" lon="2.484278724">
        <ele>169.33</ele>
        <time>2014-06-29T09:43:46Z</time>
      </trkpt>
      <trkpt lat="41.669212312" lon="2.484487852">
        <ele>170.77</ele>
        <time>2014-06-29T09:43:55Z</time>
      </trkpt>
      <trkpt lat="41.669073089" lon="2.484651718">
        <ele>171.73</ele>
        <time>2014-06-29T09:44:02Z</time>
      </trkpt>
      <trkpt lat="41.668908469" lon="2.484840395">
        <ele>172.69</ele>
        <time>2014-06-29T09:44:10Z</time>
      </trkpt>
      <trkpt lat="41.668768575" lon="2.485065030">
        <ele>173.17</ele>
        <time>2014-06-29T09:44:17Z</time>
      </trkpt>
      <trkpt lat="41.668615102" lon="2.485391505">
        <ele>173.17</ele>
        <time>2014-06-29T09:44:26Z</time>
      </trkpt>
      <trkpt lat="41.668515525" lon="2.485672718">
        <ele>173.66</ele>
        <time>2014-06-29T09:44:33Z</time>
      </trkpt>
      <trkpt lat="41.668432209" lon="2.485884864">
        <ele>174.14</ele>
        <time>2014-06-29T09:44:39Z</time>
      </trkpt>
      <trkpt lat="41.668306564" lon="2.486091813">
        <ele>174.14</ele>
        <time>2014-06-29T09:44:45Z</time>
      </trkpt>
      <trkpt lat="41.668163569" lon="2.486292141">
        <ele>175.58</ele>
        <time>2014-06-29T09:44:52Z</time>
      </trkpt>
      <trkpt lat="41.668056448" lon="2.486506382">
        <ele>176.06</ele>
        <time>2014-06-29T09:44:58Z</time>
      </trkpt>
      <trkpt lat="41.667931725" lon="2.486733448">
        <ele>177.02</ele>
        <time>2014-06-29T09:45:04Z</time>
      </trkpt>
      <trkpt lat="41.667784791" lon="2.486992700">
        <ele>178.94</ele>
        <time>2014-06-29T09:45:12Z</time>
      </trkpt>
      <trkpt lat="41.667618577" lon="2.487316577">
        <ele>180.38</ele>
        <time>2014-06-29T09:45:21Z</time>
      </trkpt>
      <trkpt lat="41.667442306" lon="2.487545570">
        <ele>182.79</ele>
        <time>2014-06-29T09:45:29Z</time>
      </trkpt>
      <trkpt lat="41.667278188" lon="2.487743216">
        <ele>185.19</ele>
        <time>2014-06-29T09:45:36Z</time>
      </trkpt>
      <trkpt lat="41.667084063" lon="2.487915967">
        <ele>186.63</ele>
        <time>2014-06-29T09:45:44Z</time>
      </trkpt>
      <trkpt lat="41.666921790" lon="2.488036582">
        <ele>187.59</ele>
        <time>2014-06-29T09:45:51Z</time>
      </trkpt>
      <trkpt lat="41.666721881" lon="2.488198102">
        <ele>190.00</ele>
        <time>2014-06-29T09:46:00Z</time>
      </trkpt>
      <trkpt lat="41.666589950" lon="2.488299020">
        <ele>191.44</ele>
        <time>2014-06-29T09:46:07Z</time>
      </trkpt>
      <trkpt lat="41.666387863" lon="2.488437573">
        <ele>192.88</ele>
        <time>2014-06-29T09:46:16Z</time>
      </trkpt>
      <trkpt lat="41.666177728" lon="2.488566989">
        <ele>194.80</ele>
        <time>2014-06-29T09:46:25Z</time>
      </trkpt>
      <trkpt lat="41.666011934" lon="2.488655921">
        <ele>195.28</ele>
        <time>2014-06-29T09:46:32Z</time>
      </trkpt>
      <trkpt lat="41.665821665" lon="2.488726162">
        <ele>196.25</ele>
        <time>2014-06-29T09:46:40Z</time>
      </trkpt>
      <trkpt lat="41.665618236" lon="2.488760276">
        <ele>197.21</ele>
        <time>2014-06-29T09:46:48Z</time>
      </trkpt>
      <trkpt lat="41.665370132" lon="2.488831941">
        <ele>198.17</ele>
        <time>2014-06-29T09:46:56Z</time>
      </trkpt>
      <trkpt lat="41.665135690" lon="2.488952808">
        <ele>198.17</ele>
        <time>2014-06-29T09:47:03Z</time>
      </trkpt>
      <trkpt lat="41.664962017" lon="2.489020450">
        <ele>198.17</ele>
        <time>2014-06-29T09:47:09Z</time>
      </trkpt>
      <trkpt lat="41.664820279" lon="2.489128744">
        <ele>198.17</ele>
        <time>2014-06-29T09:47:17Z</time>
      </trkpt>
      <trkpt lat="41.664778370" lon="2.489187418">
        <ele>198.65</ele>
        <time>2014-06-29T09:47:25Z</time>
      </trkpt>
      <trkpt lat="41.664765545" lon="2.489235111">
        <ele>198.65</ele>
        <time>2014-06-29T09:47:34Z</time>
      </trkpt>
      <trkpt lat="41.664752134" lon="2.489260340">
        <ele>198.65</ele>
        <time>2014-06-29T09:47:43Z</time>
      </trkpt>
      <trkpt lat="41.664724977" lon="2.489287414">
        <ele>198.65</ele>
        <time>2014-06-29T09:47:59Z</time>
      </trkpt>
      <trkpt lat="41.664725396" lon="2.489284983">
        <ele>198.65</ele>
        <time>2014-06-29T09:48:10Z</time>
      </trkpt>
      <trkpt lat="41.664713410" lon="2.489289761">
        <ele>198.65</ele>
        <time>2014-06-29T09:48:21Z</time>
      </trkpt>
      <trkpt lat="41.664716679" lon="2.489271907">
        <ele>198.65</ele>
        <time>2014-06-29T09:48:30Z</time>
      </trkpt>
      <trkpt lat="41.664705028" lon="2.489273248">
        <ele>198.65</ele>
        <time>2014-06-29T09:48:39Z</time>
      </trkpt>
      <trkpt lat="41.664712907" lon="2.489277020">
        <ele>198.65</ele>
        <time>2014-06-29T09:48:47Z</time>
      </trkpt>
      <trkpt lat="41.664679547" lon="2.489323456">
        <ele>198.65</ele>
        <time>2014-06-29T09:48:57Z</time>
      </trkpt>
      <trkpt lat="41.664682900" lon="2.489338208">
        <ele>198.65</ele>
        <time>2014-06-29T09:49:07Z</time>
      </trkpt>
      <trkpt lat="41.664684827" lon="2.489355475">
        <ele>198.65</ele>
        <time>2014-06-29T09:49:16Z</time>
      </trkpt>
      <trkpt lat="41.664688683" lon="2.489345500">
        <ele>198.65</ele>
        <time>2014-06-29T09:49:22Z</time>
      </trkpt>
      <trkpt lat="41.664665968" lon="2.489347931">
        <ele>198.65</ele>
        <time>2014-06-29T09:49:35Z</time>
      </trkpt>
      <trkpt lat="41.664645349" lon="2.489328904">
        <ele>199.13</ele>
        <time>2014-06-29T09:49:53Z</time>
      </trkpt>
      <trkpt lat="41.664657251" lon="2.489369976">
        <ele>199.13</ele>
        <time>2014-06-29T09:50:08Z</time>
      </trkpt>
      <trkpt lat="41.664612492" lon="2.489351954">
        <ele>199.13</ele>
        <time>2014-06-29T09:50:24Z</time>
      </trkpt>
      <trkpt lat="41.664601595" lon="2.489356481">
        <ele>199.13</ele>
        <time>2014-06-29T09:50:39Z</time>
      </trkpt>
      <trkpt lat="41.664599584" lon="2.489352541">
        <ele>199.13</ele>
        <time>2014-06-29T09:50:55Z</time>
      </trkpt>
      <trkpt lat="41.664600673" lon="2.489358744">
        <ele>199.13</ele>
        <time>2014-06-29T09:51:06Z</time>
      </trkpt>
      <trkpt lat="41.664603691" lon="2.489365868">
        <ele>199.61</ele>
        <time>2014-06-29T09:51:24Z</time>
      </trkpt>
      <trkpt lat="41.664618359" lon="2.489324378">
        <ele>199.61</ele>
        <time>2014-06-29T09:51:46Z</time>
      </trkpt>
      <trkpt lat="41.664608133" lon="2.489372155">
        <ele>199.61</ele>
        <time>2014-06-29T09:52:02Z</time>
      </trkpt>
      <trkpt lat="41.664610396" lon="2.489409370">
        <ele>199.61</ele>
        <time>2014-06-29T09:52:18Z</time>
      </trkpt>
      <trkpt lat="41.664597907" lon="2.489418926">
        <ele>200.09</ele>
        <time>2014-06-29T09:52:38Z</time>
      </trkpt>
      <trkpt lat="41.664597069" lon="2.489482377">
        <ele>200.09</ele>
        <time>2014-06-29T09:52:58Z</time>
      </trkpt>
      <trkpt lat="41.664609977" lon="2.489465529">
        <ele>200.09</ele>
        <time>2014-06-29T09:53:12Z</time>
      </trkpt>
      <trkpt lat="41.664640571" lon="2.489455052">
        <ele>200.09</ele>
        <time>2014-06-29T09:53:32Z</time>
      </trkpt>
      <trkpt lat="41.664631435" lon="2.489417920">
        <ele>200.09</ele>
        <time>2014-06-29T09:53:49Z</time>
      </trkpt>
      <trkpt lat="41.664638895" lon="2.489394786">
        <ele>200.09</ele>
        <time>2014-06-29T09:54:04Z</time>
      </trkpt>
      <trkpt lat="41.664648701" lon="2.489370227">
        <ele>200.09</ele>
        <time>2014-06-29T09:54:23Z</time>
      </trkpt>
      <trkpt lat="41.664669070" lon="2.489346003">
        <ele>200.09</ele>
        <time>2014-06-29T09:54:45Z</time>
      </trkpt>
      <trkpt lat="41.664690779" lon="2.489315828">
        <ele>200.09</ele>
        <time>2014-06-29T09:55:02Z</time>
      </trkpt>
      <trkpt lat="41.664694048" lon="2.489322366">
        <ele>199.61</ele>
        <time>2014-06-29T09:55:24Z</time>
      </trkpt>
      <trkpt lat="41.664695808" lon="2.489355810">
        <ele>199.61</ele>
        <time>2014-06-29T09:55:42Z</time>
      </trkpt>
      <trkpt lat="41.664676026" lon="2.489368551">
        <ele>199.61</ele>
        <time>2014-06-29T09:56:02Z</time>
      </trkpt>
      <trkpt lat="41.664688935" lon="2.489355140">
        <ele>198.65</ele>
        <time>2014-06-29T09:56:21Z</time>
      </trkpt>
      <trkpt lat="41.664658676" lon="2.489436276">
        <ele>198.65</ele>
        <time>2014-06-29T09:56:37Z</time>
      </trkpt>
      <trkpt lat="41.664647528" lon="2.489435941">
        <ele>198.65</ele>
        <time>2014-06-29T09:56:53Z</time>
      </trkpt>
      <trkpt lat="41.664645852" lon="2.489456644">
        <ele>198.65</ele>
        <time>2014-06-29T09:57:09Z</time>
      </trkpt>
      <trkpt lat="41.664656245" lon="2.489480533">
        <ele>198.65</ele>
        <time>2014-06-29T09:57:23Z</time>
      </trkpt>
      <trkpt lat="41.664611653" lon="2.489502661">
        <ele>198.65</ele>
        <time>2014-06-29T09:57:41Z</time>
      </trkpt>
      <trkpt lat="41.664597153" lon="2.489529316">
        <ele>198.65</ele>
        <time>2014-06-29T09:57:56Z</time>
      </trkpt>
      <trkpt lat="41.664605870" lon="2.489527052">
        <ele>198.65</ele>
        <time>2014-06-29T09:58:16Z</time>
      </trkpt>
      <trkpt lat="41.664587597" lon="2.489522023">
        <ele>198.65</ele>
        <time>2014-06-29T09:58:33Z</time>
      </trkpt>
      <trkpt lat="41.664595057" lon="2.489532249">
        <ele>198.65</ele>
        <time>2014-06-29T09:58:44Z</time>
      </trkpt>
      <trkpt lat="41.664624645" lon="2.489506181">
        <ele>198.65</ele>
        <time>2014-06-29T09:59:00Z</time>
      </trkpt>
      <trkpt lat="41.664621963" lon="2.489453124">
        <ele>198.65</ele>
        <time>2014-06-29T09:59:16Z</time>
      </trkpt>
      <trkpt lat="41.664615761" lon="2.489425631">
        <ele>198.65</ele>
        <time>2014-06-29T09:59:32Z</time>
      </trkpt>
      <trkpt lat="41.664623891" lon="2.489451448">
        <ele>198.65</ele>
        <time>2014-06-29T09:59:46Z</time>
      </trkpt>
      <trkpt lat="41.664645097" lon="2.489410041">
        <ele>198.65</ele>
        <time>2014-06-29T10:00:02Z</time>
      </trkpt>
      <trkpt lat="41.664674685" lon="2.489404174">
        <ele>198.65</ele>
        <time>2014-06-29T10:00:20Z</time>
      </trkpt>
      <trkpt lat="41.664679212" lon="2.489426553">
        <ele>198.65</ele>
        <time>2014-06-29T10:00:38Z</time>
      </trkpt>
      <trkpt lat="41.664688683" lon="2.489421524">
        <ele>198.65</ele>
        <time>2014-06-29T10:00:57Z</time>
      </trkpt>
      <trkpt lat="41.664656497" lon="2.489474246">
        <ele>198.65</ele>
        <time>2014-06-29T10:01:12Z</time>
      </trkpt>
      <trkpt lat="41.664659263" lon="2.489452286">
        <ele>198.65</ele>
        <time>2014-06-29T10:01:34Z</time>
      </trkpt>
      <trkpt lat="41.664651970" lon="2.489415741">
        <ele>198.65</ele>
        <time>2014-06-29T10:01:52Z</time>
      </trkpt>
      <trkpt lat="41.664682648" lon="2.489405599">
        <ele>198.65</ele>
        <time>2014-06-29T10:02:14Z</time>
      </trkpt>
      <trkpt lat="41.664694299" lon="2.489401408">
        <ele>198.65</ele>
        <time>2014-06-29T10:02:35Z</time>
      </trkpt>
      <trkpt lat="41.664697819" lon="2.489464356">
        <ele>198.65</ele>
        <time>2014-06-29T10:02:54Z</time>
      </trkpt>
      <trkpt lat="41.664668734" lon="2.489428146">
        <ele>199.13</ele>
        <time>2014-06-29T10:03:13Z</time>
      </trkpt>
      <trkpt lat="41.664655994" lon="2.489373328">
        <ele>199.13</ele>
        <time>2014-06-29T10:03:29Z</time>
      </trkpt>
      <trkpt lat="41.664655575" lon="2.489389924">
        <ele>199.13</ele>
        <time>2014-06-29T10:03:37Z</time>
      </trkpt>
      <trkpt lat="41.664657335" lon="2.489382465">
        <ele>199.13</ele>
        <time>2014-06-29T10:03:49Z</time>
      </trkpt>
      <trkpt lat="41.664653814" lon="2.489376346">
        <ele>199.13</ele>
        <time>2014-06-29T10:04:03Z</time>
      </trkpt>
      <trkpt lat="41.664627747" lon="2.489413226">
        <ele>199.13</ele>
        <time>2014-06-29T10:04:10Z</time>
      </trkpt>
      <trkpt lat="41.664589777" lon="2.489473995">
        <ele>201.53</ele>
        <time>2014-06-29T10:04:16Z</time>
      </trkpt>
      <trkpt lat="41.664525152" lon="2.489558820">
        <ele>202.49</ele>
        <time>2014-06-29T10:04:24Z</time>
      </trkpt>
      <trkpt lat="41.664469329" lon="2.489612632">
        <ele>203.46</ele>
        <time>2014-06-29T10:04:29Z</time>
      </trkpt>
      <trkpt lat="41.664393389" lon="2.489622355">
        <ele>203.94</ele>
        <time>2014-06-29T10:04:34Z</time>
      </trkpt>
      <trkpt lat="41.664268750" lon="2.489691086">
        <ele>204.42</ele>
        <time>2014-06-29T10:04:42Z</time>
      </trkpt>
      <trkpt lat="41.664122989" lon="2.489813881">
        <ele>205.38</ele>
        <time>2014-06-29T10:04:53Z</time>
      </trkpt>
      <trkpt lat="41.663990974" lon="2.489839781">
        <ele>206.34</ele>
        <time>2014-06-29T10:05:02Z</time>
      </trkpt>
      <trkpt lat="41.663832891" lon="2.489831902">
        <ele>206.82</ele>
        <time>2014-06-29T10:05:10Z</time>
      </trkpt>
      <trkpt lat="41.663704815" lon="2.489788149">
        <ele>206.82</ele>
        <time>2014-06-29T10:05:17Z</time>
      </trkpt>
      <trkpt lat="41.663627534" lon="2.489762416">
        <ele>206.82</ele>
        <time>2014-06-29T10:05:22Z</time>
      </trkpt>
      <trkpt lat="41.663508344" lon="2.489768451">
        <ele>206.82</ele>
        <time>2014-06-29T10:05:30Z</time>
      </trkpt>
      <trkpt lat="41.663378927" lon="2.489857718">
        <ele>206.82</ele>
        <time>2014-06-29T10:05:37Z</time>
      </trkpt>
      <trkpt lat="41.663307094" lon="2.489895605">
        <ele>206.82</ele>
        <time>2014-06-29T10:05:44Z</time>
      </trkpt>
      <trkpt lat="41.663234423" lon="2.489857886">
        <ele>206.82</ele>
        <time>2014-06-29T10:05:52Z</time>
      </trkpt>
      <trkpt lat="41.663190669" lon="2.489801224">
        <ele>206.82</ele>
        <time>2014-06-29T10:06:00Z</time>
      </trkpt>
      <trkpt lat="41.663115065" lon="2.489763506">
        <ele>208.26</ele>
        <time>2014-06-29T10:06:09Z</time>
      </trkpt>
      <trkpt lat="41.663009788" lon="2.489725117">
        <ele>209.22</ele>
        <time>2014-06-29T10:06:18Z</time>
      </trkpt>
      <trkpt lat="41.662936195" lon="2.489704749">
        <ele>210.67</ele>
        <time>2014-06-29T10:06:24Z</time>
      </trkpt>
      <trkpt lat="41.662847850" lon="2.489647584">
        <ele>212.59</ele>
        <time>2014-06-29T10:06:33Z</time>
      </trkpt>
      <trkpt lat="41.662799654" lon="2.489581954">
        <ele>214.51</ele>
        <time>2014-06-29T10:06:41Z</time>
      </trkpt>
      <trkpt lat="41.662780375" lon="2.489545828">
        <ele>214.51</ele>
        <time>2014-06-29T10:06:44Z</time>
      </trkpt>
      <trkpt lat="41.662726647" lon="2.489426302">
        <ele>216.43</ele>
        <time>2014-06-29T10:06:53Z</time>
      </trkpt>
      <trkpt lat="41.662726731" lon="2.489384560">
        <ele>217.40</ele>
        <time>2014-06-29T10:06:56Z</time>
      </trkpt>
      <trkpt lat="41.662740980" lon="2.489311135">
        <ele>218.84</ele>
        <time>2014-06-29T10:07:03Z</time>
      </trkpt>
      <trkpt lat="41.662751709" lon="2.489320355">
        <ele>218.84</ele>
        <time>2014-06-29T10:07:05Z</time>
      </trkpt>
      <trkpt lat="41.662824213" lon="2.489347512">
        <ele>218.84</ele>
        <time>2014-06-29T10:07:12Z</time>
      </trkpt>
      <trkpt lat="41.662949187" lon="2.489298562">
        <ele>218.84</ele>
        <time>2014-06-29T10:07:20Z</time>
      </trkpt>
      <trkpt lat="41.663084052" lon="2.489222454">
        <ele>219.32</ele>
        <time>2014-06-29T10:07:30Z</time>
      </trkpt>
      <trkpt lat="41.663178683" lon="2.489167469">
        <ele>220.76</ele>
        <time>2014-06-29T10:07:38Z</time>
      </trkpt>
      <trkpt lat="41.663200057" lon="2.489141569">
        <ele>220.76</ele>
        <time>2014-06-29T10:07:40Z</time>
      </trkpt>
      <trkpt lat="41.663219252" lon="2.488980720">
        <ele>222.20</ele>
        <time>2014-06-29T10:07:50Z</time>
      </trkpt>
      <trkpt lat="41.663201314" lon="2.488821212">
        <ele>223.64</ele>
        <time>2014-06-29T10:07:59Z</time>
      </trkpt>
      <trkpt lat="41.663194609" lon="2.488757258">
        <ele>224.61</ele>
        <time>2014-06-29T10:08:03Z</time>
      </trkpt>
      <trkpt lat="41.663213636" lon="2.488578975">
        <ele>225.09</ele>
        <time>2014-06-29T10:08:12Z</time>
      </trkpt>
      <trkpt lat="41.663246158" lon="2.488453414">
        <ele>225.57</ele>
        <time>2014-06-29T10:08:20Z</time>
      </trkpt>
      <trkpt lat="41.663269878" lon="2.488387868">
        <ele>226.05</ele>
        <time>2014-06-29T10:08:24Z</time>
      </trkpt>
      <trkpt lat="41.663369707" lon="2.488220649">
        <ele>227.01</ele>
        <time>2014-06-29T10:08:34Z</time>
      </trkpt>
      <trkpt lat="41.663471379" lon="2.488073295">
        <ele>228.45</ele>
        <time>2014-06-29T10:08:43Z</time>
      </trkpt>
      <trkpt lat="41.663531645" lon="2.487983860">
        <ele>229.41</ele>
        <time>2014-06-29T10:08:49Z</time>
      </trkpt>
      <trkpt lat="41.663555282" lon="2.487831896">
        <ele>231.33</ele>
        <time>2014-06-29T10:08:58Z</time>
      </trkpt>
      <trkpt lat="41.663478169" lon="2.487807086">
        <ele>233.26</ele>
        <time>2014-06-29T10:09:06Z</time>
      </trkpt>
      <trkpt lat="41.663368533" lon="2.487833237">
        <ele>234.22</ele>
        <time>2014-06-29T10:09:14Z</time>
      </trkpt>
      <trkpt lat="41.663294940" lon="2.487837596">
        <ele>235.66</ele>
        <time>2014-06-29T10:09:20Z</time>
      </trkpt>
      <trkpt lat="41.663172313" lon="2.487886798">
        <ele>236.62</ele>
        <time>2014-06-29T10:09:29Z</time>
      </trkpt>
      <trkpt lat="41.663109616" lon="2.487935832">
        <ele>237.10</ele>
        <time>2014-06-29T10:09:34Z</time>
      </trkpt>
      <trkpt lat="41.662994952" lon="2.487999618">
        <ele>239.99</ele>
        <time>2014-06-29T10:09:44Z</time>
      </trkpt>
      <trkpt lat="41.662973830" lon="2.488010766">
        <ele>240.95</ele>
        <time>2014-06-29T10:09:46Z</time>
      </trkpt>
      <trkpt lat="41.662876683" lon="2.488103554">
        <ele>242.39</ele>
        <time>2014-06-29T10:09:54Z</time>
      </trkpt>
      <trkpt lat="41.662820357" lon="2.488149990">
        <ele>243.35</ele>
        <time>2014-06-29T10:09:59Z</time>
      </trkpt>
      <trkpt lat="41.662740729" lon="2.488205813">
        <ele>244.79</ele>
        <time>2014-06-29T10:10:06Z</time>
      </trkpt>
      <trkpt lat="41.662667722" lon="2.488265325">
        <ele>246.72</ele>
        <time>2014-06-29T10:10:14Z</time>
      </trkpt>
      <trkpt lat="41.662657748" lon="2.488273706">
        <ele>246.72</ele>
        <time>2014-06-29T10:10:15Z</time>
      </trkpt>
      <trkpt lat="41.662531517" lon="2.488326848">
        <ele>246.72</ele>
        <time>2014-06-29T10:10:23Z</time>
      </trkpt>
      <trkpt lat="41.662447781" lon="2.488302456">
        <ele>247.20</ele>
        <time>2014-06-29T10:10:30Z</time>
      </trkpt>
      <trkpt lat="41.662324064" lon="2.488224086">
        <ele>248.16</ele>
        <time>2014-06-29T10:10:40Z</time>
      </trkpt>
      <trkpt lat="41.662223901" lon="2.488185864">
        <ele>249.12</ele>
        <time>2014-06-29T10:10:47Z</time>
      </trkpt>
      <trkpt lat="41.662148380" lon="2.488152169">
        <ele>249.60</ele>
        <time>2014-06-29T10:10:55Z</time>
      </trkpt>
      <trkpt lat="41.662133292" lon="2.488131382">
        <ele>249.60</ele>
        <time>2014-06-29T10:11:09Z</time>
      </trkpt>
      <trkpt lat="41.662100351" lon="2.488130963">
        <ele>249.60</ele>
        <time>2014-06-29T10:11:21Z</time>
      </trkpt>
      <trkpt lat="41.662072691" lon="2.488147810">
        <ele>249.60</ele>
        <time>2014-06-29T10:11:25Z</time>
      </trkpt>
      <trkpt lat="41.661975629" lon="2.488253422">
        <ele>248.16</ele>
        <time>2014-06-29T10:11:32Z</time>
      </trkpt>
      <trkpt lat="41.661959619" lon="2.488279909">
        <ele>247.68</ele>
        <time>2014-06-29T10:11:34Z</time>
      </trkpt>
      <trkpt lat="41.661819977" lon="2.488346126">
        <ele>246.72</ele>
        <time>2014-06-29T10:11:42Z</time>
      </trkpt>
      <trkpt lat="41.661793406" lon="2.488355849">
        <ele>246.72</ele>
        <time>2014-06-29T10:11:43Z</time>
      </trkpt>
      <trkpt lat="41.661637670" lon="2.488329111">
        <ele>244.31</ele>
        <time>2014-06-29T10:11:49Z</time>
      </trkpt>
      <trkpt lat="41.661575141" lon="2.488303043">
        <ele>244.31</ele>
        <time>2014-06-29T10:11:55Z</time>
      </trkpt>
      <trkpt lat="41.661557372" lon="2.488309581">
        <ele>244.31</ele>
        <time>2014-06-29T10:11:57Z</time>
      </trkpt>
      <trkpt lat="41.661512529" lon="2.488391891">
        <ele>246.72</ele>
        <time>2014-06-29T10:12:04Z</time>
      </trkpt>
      <trkpt lat="41.661506242" lon="2.488445200">
        <ele>247.20</ele>
        <time>2014-06-29T10:12:08Z</time>
      </trkpt>
      <trkpt lat="41.661490233" lon="2.488552489">
        <ele>249.12</ele>
        <time>2014-06-29T10:12:16Z</time>
      </trkpt>
      <trkpt lat="41.661491741" lon="2.488701854">
        <ele>251.52</ele>
        <time>2014-06-29T10:12:25Z</time>
      </trkpt>
      <trkpt lat="41.661508338" lon="2.488750972">
        <ele>251.52</ele>
        <time>2014-06-29T10:12:28Z</time>
      </trkpt>
      <trkpt lat="41.661512948" lon="2.488924561">
        <ele>252.00</ele>
        <time>2014-06-29T10:12:36Z</time>
      </trkpt>
      <trkpt lat="41.661512026" lon="2.489002597">
        <ele>252.00</ele>
        <time>2014-06-29T10:12:38Z</time>
      </trkpt>
      <trkpt lat="41.661486042" lon="2.489130505">
        <ele>250.56</ele>
        <time>2014-06-29T10:12:41Z</time>
      </trkpt>
      <trkpt lat="41.661389231" lon="2.489266962">
        <ele>250.56</ele>
        <time>2014-06-29T10:12:46Z</time>
      </trkpt>
      <trkpt lat="41.661335587" lon="2.489290180">
        <ele>250.56</ele>
        <time>2014-06-29T10:12:50Z</time>
      </trkpt>
      <trkpt lat="41.661297533" lon="2.489298729">
        <ele>252.00</ele>
        <time>2014-06-29T10:12:53Z</time>
      </trkpt>
      <trkpt lat="41.661204913" lon="2.489348350">
        <ele>253.44</ele>
        <time>2014-06-29T10:13:01Z</time>
      </trkpt>
      <trkpt lat="41.661120758" lon="2.489377100">
        <ele>254.89</ele>
        <time>2014-06-29T10:13:09Z</time>
      </trkpt>
      <trkpt lat="41.661005172" lon="2.489435522">
        <ele>256.81</ele>
        <time>2014-06-29T10:13:19Z</time>
      </trkpt>
      <trkpt lat="41.660980529" lon="2.489453459">
        <ele>257.29</ele>
        <time>2014-06-29T10:13:21Z</time>
      </trkpt>
      <trkpt lat="41.660905930" lon="2.489558149">
        <ele>258.73</ele>
        <time>2014-06-29T10:13:29Z</time>
      </trkpt>
      <trkpt lat="41.660899225" lon="2.489584468">
        <ele>259.21</ele>
        <time>2014-06-29T10:13:31Z</time>
      </trkpt>
      <trkpt lat="41.660832002" lon="2.489759147">
        <ele>261.14</ele>
        <time>2014-06-29T10:13:41Z</time>
      </trkpt>
      <trkpt lat="41.660798474" lon="2.489935838">
        <ele>262.10</ele>
        <time>2014-06-29T10:13:49Z</time>
      </trkpt>
      <trkpt lat="41.660788332" lon="2.489975903">
        <ele>262.10</ele>
        <time>2014-06-29T10:13:51Z</time>
      </trkpt>
      <trkpt lat="41.660714991" lon="2.490111187">
        <ele>264.50</ele>
        <time>2014-06-29T10:14:01Z</time>
      </trkpt>
      <trkpt lat="41.660705770" lon="2.490122251">
        <ele>264.50</ele>
        <time>2014-06-29T10:14:02Z</time>
      </trkpt>
      <trkpt lat="41.660661346" lon="2.490217889">
        <ele>264.98</ele>
        <time>2014-06-29T10:14:10Z</time>
      </trkpt>
      <trkpt lat="41.660595129" lon="2.490310257">
        <ele>265.94</ele>
        <time>2014-06-29T10:14:18Z</time>
      </trkpt>
      <trkpt lat="41.660560428" lon="2.490429113">
        <ele>267.38</ele>
        <time>2014-06-29T10:14:26Z</time>
      </trkpt>
      <trkpt lat="41.660507203" lon="2.490557021">
        <ele>268.35</ele>
        <time>2014-06-29T10:14:34Z</time>
      </trkpt>
      <trkpt lat="41.660428581" lon="2.490643103">
        <ele>268.83</ele>
        <time>2014-06-29T10:14:41Z</time>
      </trkpt>
      <trkpt lat="41.660368818" lon="2.490716109">
        <ele>269.79</ele>
        <time>2014-06-29T10:14:47Z</time>
      </trkpt>
      <trkpt lat="41.660272342" lon="2.490843263">
        <ele>271.23</ele>
        <time>2014-06-29T10:14:57Z</time>
      </trkpt>
      <trkpt lat="41.660204868" lon="2.490969159">
        <ele>272.19</ele>
        <time>2014-06-29T10:15:05Z</time>
      </trkpt>
      <trkpt lat="41.660144937" lon="2.491137551">
        <ele>272.19</ele>
        <time>2014-06-29T10:15:12Z</time>
      </trkpt>
      <trkpt lat="41.660077379" lon="2.491277948">
        <ele>272.67</ele>
        <time>2014-06-29T10:15:21Z</time>
      </trkpt>
      <trkpt lat="41.660073859" lon="2.491348524">
        <ele>272.67</ele>
        <time>2014-06-29T10:15:25Z</time>
      </trkpt>
      <trkpt lat="41.660100429" lon="2.491451705">
        <ele>271.23</ele>
        <time>2014-06-29T10:15:29Z</time>
      </trkpt>
      <trkpt lat="41.660162958" lon="2.491656475">
        <ele>270.75</ele>
        <time>2014-06-29T10:15:36Z</time>
      </trkpt>
      <trkpt lat="41.660169748" lon="2.491675586">
        <ele>270.75</ele>
        <time>2014-06-29T10:15:37Z</time>
      </trkpt>
      <trkpt lat="41.660204952" lon="2.491808187">
        <ele>270.75</ele>
        <time>2014-06-29T10:15:43Z</time>
      </trkpt>
      <trkpt lat="41.660220207" lon="2.491944226">
        <ele>272.19</ele>
        <time>2014-06-29T10:15:50Z</time>
      </trkpt>
      <trkpt lat="41.660259183" lon="2.492123179">
        <ele>273.63</ele>
        <time>2014-06-29T10:15:58Z</time>
      </trkpt>
      <trkpt lat="41.660270247" lon="2.492239520">
        <ele>276.04</ele>
        <time>2014-06-29T10:16:05Z</time>
      </trkpt>
      <trkpt lat="41.660281730" lon="2.492282519">
        <ele>276.52</ele>
        <time>2014-06-29T10:16:08Z</time>
      </trkpt>
      <trkpt lat="41.660337386" lon="2.492363488">
        <ele>277.96</ele>
        <time>2014-06-29T10:16:15Z</time>
      </trkpt>
      <trkpt lat="41.660420115" lon="2.492463652">
        <ele>279.40</ele>
        <time>2014-06-29T10:16:23Z</time>
      </trkpt>
      <trkpt lat="41.660465461" lon="2.492529282">
        <ele>279.88</ele>
        <time>2014-06-29T10:16:27Z</time>
      </trkpt>
      <trkpt lat="41.660496977" lon="2.492674625">
        <ele>280.84</ele>
        <time>2014-06-29T10:16:35Z</time>
      </trkpt>
      <trkpt lat="41.660503096" lon="2.492714103">
        <ele>281.32</ele>
        <time>2014-06-29T10:16:37Z</time>
      </trkpt>
      <trkpt lat="41.660510053" lon="2.492810412">
        <ele>281.80</ele>
        <time>2014-06-29T10:16:42Z</time>
      </trkpt>
      <trkpt lat="41.660514998" lon="2.493007386">
        <ele>282.77</ele>
        <time>2014-06-29T10:16:52Z</time>
      </trkpt>
      <trkpt lat="41.660517345" lon="2.493238308">
        <ele>282.77</ele>
        <time>2014-06-29T10:16:59Z</time>
      </trkpt>
      <trkpt lat="41.660519944" lon="2.493429834">
        <ele>282.77</ele>
        <time>2014-06-29T10:17:04Z</time>
      </trkpt>
      <trkpt lat="41.660489350" lon="2.493712137">
        <ele>279.88</ele>
        <time>2014-06-29T10:17:10Z</time>
      </trkpt>
      <trkpt lat="41.660451463" lon="2.494028721">
        <ele>278.44</ele>
        <time>2014-06-29T10:17:17Z</time>
      </trkpt>
      <trkpt lat="41.660431263" lon="2.494274395">
        <ele>278.44</ele>
        <time>2014-06-29T10:17:23Z</time>
      </trkpt>
      <trkpt lat="41.660409889" lon="2.494472627">
        <ele>279.88</ele>
        <time>2014-06-29T10:17:29Z</time>
      </trkpt>
      <trkpt lat="41.660395808" lon="2.494621908">
        <ele>280.36</ele>
        <time>2014-06-29T10:17:34Z</time>
      </trkpt>
      <trkpt lat="41.660405028" lon="2.494735567">
        <ele>280.36</ele>
        <time>2014-06-29T10:17:40Z</time>
      </trkpt>
      <trkpt lat="41.660403100" lon="2.494770687">
        <ele>280.36</ele>
        <time>2014-06-29T10:17:53Z</time>
      </trkpt>
      <trkpt lat="41.660410727" lon="2.494778063">
        <ele>280.36</ele>
        <time>2014-06-29T10:18:10Z</time>
      </trkpt>
      <trkpt lat="41.660409973" lon="2.494786529">
        <ele>280.36</ele>
        <time>2014-06-29T10:18:19Z</time>
      </trkpt>
      <trkpt lat="41.660515669" lon="2.494829444">
        <ele>277.96</ele>
        <time>2014-06-29T10:18:24Z</time>
      </trkpt>
      <trkpt lat="41.660670734" lon="2.494952072">
        <ele>275.56</ele>
        <time>2014-06-29T10:18:28Z</time>
      </trkpt>
      <trkpt lat="41.660820854" lon="2.495051062">
        <ele>275.07</ele>
        <time>2014-06-29T10:18:31Z</time>
      </trkpt>
      <trkpt lat="41.660970722" lon="2.495247115">
        <ele>274.59</ele>
        <time>2014-06-29T10:18:36Z</time>
      </trkpt>
      <trkpt lat="41.661062169" lon="2.495550204">
        <ele>276.04</ele>
        <time>2014-06-29T10:18:44Z</time>
      </trkpt>
      <trkpt lat="41.661160237" lon="2.495745419">
        <ele>277.00</ele>
        <time>2014-06-29T10:18:51Z</time>
      </trkpt>
      <trkpt lat="41.661238692" lon="2.495988494">
        <ele>279.40</ele>
        <time>2014-06-29T10:19:00Z</time>
      </trkpt>
      <trkpt lat="41.661285127" lon="2.496112211">
        <ele>280.36</ele>
        <time>2014-06-29T10:19:05Z</time>
      </trkpt>
      <trkpt lat="41.661277835" lon="2.496288818">
        <ele>280.84</ele>
        <time>2014-06-29T10:19:12Z</time>
      </trkpt>
      <trkpt lat="41.661272387" lon="2.496498030">
        <ele>280.84</ele>
        <time>2014-06-29T10:19:20Z</time>
      </trkpt>
      <trkpt lat="41.661270543" lon="2.496719815">
        <ele>280.84</ele>
        <time>2014-06-29T10:19:27Z</time>
      </trkpt>
      <trkpt lat="41.661240368" lon="2.496792151">
        <ele>279.40</ele>
        <time>2014-06-29T10:19:29Z</time>
      </trkpt>
      <trkpt lat="41.661076921" lon="2.496967165">
        <ele>277.96</ele>
        <time>2014-06-29T10:19:36Z</time>
      </trkpt>
      <trkpt lat="41.660837618" lon="2.497083673">
        <ele>276.04</ele>
        <time>2014-06-29T10:19:43Z</time>
      </trkpt>
      <trkpt lat="41.660616000" lon="2.497312835">
        <ele>274.11</ele>
        <time>2014-06-29T10:19:50Z</time>
      </trkpt>
      <trkpt lat="41.660517094" lon="2.497503271">
        <ele>271.71</ele>
        <time>2014-06-29T10:19:55Z</time>
      </trkpt>
      <trkpt lat="41.660420031" lon="2.497572925">
        <ele>269.79</ele>
        <time>2014-06-29T10:19:58Z</time>
      </trkpt>
      <trkpt lat="41.660249543" lon="2.497513497">
        <ele>264.98</ele>
        <time>2014-06-29T10:20:03Z</time>
      </trkpt>
      <trkpt lat="41.660026920" lon="2.497497236">
        <ele>260.17</ele>
        <time>2014-06-29T10:20:09Z</time>
      </trkpt>
      <trkpt lat="41.659980820" lon="2.497547528">
        <ele>259.69</ele>
        <time>2014-06-29T10:20:11Z</time>
      </trkpt>
      <trkpt lat="41.659976712" lon="2.497795046">
        <ele>257.77</ele>
        <time>2014-06-29T10:20:17Z</time>
      </trkpt>
      <trkpt lat="41.660084252" lon="2.498063266">
        <ele>257.29</ele>
        <time>2014-06-29T10:20:23Z</time>
      </trkpt>
      <trkpt lat="41.660306456" lon="2.498286896">
        <ele>257.29</ele>
        <time>2014-06-29T10:20:32Z</time>
      </trkpt>
      <trkpt lat="41.660342163" lon="2.498330230">
        <ele>258.73</ele>
        <time>2014-06-29T10:20:34Z</time>
      </trkpt>
      <trkpt lat="41.660533774" lon="2.498536760">
        <ele>259.69</ele>
        <time>2014-06-29T10:20:44Z</time>
      </trkpt>
      <trkpt lat="41.660710716" lon="2.498635750">
        <ele>259.69</ele>
        <time>2014-06-29T10:20:52Z</time>
      </trkpt>
      <trkpt lat="41.660875169" lon="2.498851333">
        <ele>257.77</ele>
        <time>2014-06-29T10:21:00Z</time>
      </trkpt>
      <trkpt lat="41.660970387" lon="2.499060378">
        <ele>258.73</ele>
        <time>2014-06-29T10:21:06Z</time>
      </trkpt>
      <trkpt lat="41.660991090" lon="2.499177389">
        <ele>259.69</ele>
        <time>2014-06-29T10:21:10Z</time>
      </trkpt>
      <trkpt lat="41.661008106" lon="2.499317702">
        <ele>260.17</ele>
        <time>2014-06-29T10:21:15Z</time>
      </trkpt>
      <trkpt lat="41.660968543" lon="2.499481484">
        <ele>260.17</ele>
        <time>2014-06-29T10:21:21Z</time>
      </trkpt>
      <trkpt lat="41.660806688" lon="2.499533704">
        <ele>261.14</ele>
        <time>2014-06-29T10:21:29Z</time>
      </trkpt>
      <trkpt lat="41.660636787" lon="2.499642249">
        <ele>262.58</ele>
        <time>2014-06-29T10:21:37Z</time>
      </trkpt>
      <trkpt lat="41.660466970" lon="2.499830172">
        <ele>264.50</ele>
        <time>2014-06-29T10:21:46Z</time>
      </trkpt>
      <trkpt lat="41.660353730" lon="2.500002755">
        <ele>266.42</ele>
        <time>2014-06-29T10:21:54Z</time>
      </trkpt>
      <trkpt lat="41.660344678" lon="2.500251614">
        <ele>268.35</ele>
        <time>2014-06-29T10:22:02Z</time>
      </trkpt>
      <trkpt lat="41.660330429" lon="2.500459736">
        <ele>268.35</ele>
        <time>2014-06-29T10:22:09Z</time>
      </trkpt>
      <trkpt lat="41.660267732" lon="2.500669954">
        <ele>271.23</ele>
        <time>2014-06-29T10:22:18Z</time>
      </trkpt>
      <trkpt lat="41.660168993" lon="2.500813453">
        <ele>272.67</ele>
        <time>2014-06-29T10:22:26Z</time>
      </trkpt>
      <trkpt lat="41.660130269" lon="2.501080835">
        <ele>273.15</ele>
        <time>2014-06-29T10:22:36Z</time>
      </trkpt>
      <trkpt lat="41.660128006" lon="2.501106568">
        <ele>273.15</ele>
        <time>2014-06-29T10:22:37Z</time>
      </trkpt>
      <trkpt lat="41.660063717" lon="2.501326677">
        <ele>274.59</ele>
        <time>2014-06-29T10:22:46Z</time>
      </trkpt>
      <trkpt lat="41.659974617" lon="2.501587521">
        <ele>275.56</ele>
        <time>2014-06-29T10:22:57Z</time>
      </trkpt>
      <trkpt lat="41.659970174" lon="2.501648793">
        <ele>276.04</ele>
        <time>2014-06-29T10:23:01Z</time>
      </trkpt>
      <trkpt lat="41.659990878" lon="2.501667317">
        <ele>276.52</ele>
        <time>2014-06-29T10:23:04Z</time>
      </trkpt>
      <trkpt lat="41.660086096" lon="2.501520131">
        <ele>277.48</ele>
        <time>2014-06-29T10:23:13Z</time>
      </trkpt>
      <trkpt lat="41.660213334" lon="2.501427930">
        <ele>278.92</ele>
        <time>2014-06-29T10:23:21Z</time>
      </trkpt>
      <trkpt lat="41.660316012" lon="2.501322486">
        <ele>280.36</ele>
        <time>2014-06-29T10:23:28Z</time>
      </trkpt>
      <trkpt lat="41.660445848" lon="2.501191225">
        <ele>280.84</ele>
        <time>2014-06-29T10:23:36Z</time>
      </trkpt>
      <trkpt lat="41.660600326" lon="2.501013948">
        <ele>281.80</ele>
        <time>2014-06-29T10:23:46Z</time>
      </trkpt>
      <trkpt lat="41.660680876" lon="2.500883861">
        <ele>282.28</ele>
        <time>2014-06-29T10:23:53Z</time>
      </trkpt>
      <trkpt lat="41.660780369" lon="2.500721838">
        <ele>283.25</ele>
        <time>2014-06-29T10:24:01Z</time>
      </trkpt>
      <trkpt lat="41.660902661" lon="2.500632655">
        <ele>284.21</ele>
        <time>2014-06-29T10:24:09Z</time>
      </trkpt>
      <trkpt lat="41.661014057" lon="2.500705829">
        <ele>285.65</ele>
        <time>2014-06-29T10:24:17Z</time>
      </trkpt>
      <trkpt lat="41.661097960" lon="2.500725862">
        <ele>287.09</ele>
        <time>2014-06-29T10:24:22Z</time>
      </trkpt>
      <trkpt lat="41.661247660" lon="2.500829127">
        <ele>288.53</ele>
        <time>2014-06-29T10:24:32Z</time>
      </trkpt>
      <trkpt lat="41.661356038" lon="2.500924597">
        <ele>290.46</ele>
        <time>2014-06-29T10:24:40Z</time>
      </trkpt>
      <trkpt lat="41.661444384" lon="2.500999028">
        <ele>291.42</ele>
        <time>2014-06-29T10:24:47Z</time>
      </trkpt>
      <trkpt lat="41.661537339" lon="2.501073878">
        <ele>291.90</ele>
        <time>2014-06-29T10:24:54Z</time>
      </trkpt>
      <trkpt lat="41.661572040" lon="2.501100281">
        <ele>291.90</ele>
        <time>2014-06-29T10:25:00Z</time>
      </trkpt>
      <trkpt lat="41.661598611" lon="2.501129534">
        <ele>291.90</ele>
        <time>2014-06-29T10:25:06Z</time>
      </trkpt>
      <trkpt lat="41.661660721" lon="2.501184603">
        <ele>292.38</ele>
        <time>2014-06-29T10:25:12Z</time>
      </trkpt>
      <trkpt lat="41.661793574" lon="2.501279235">
        <ele>292.86</ele>
        <time>2014-06-29T10:25:20Z</time>
      </trkpt>
      <trkpt lat="41.661804805" lon="2.501289629">
        <ele>292.86</ele>
        <time>2014-06-29T10:25:21Z</time>
      </trkpt>
      <trkpt lat="41.661833052" lon="2.501307817">
        <ele>293.34</ele>
        <time>2014-06-29T10:25:27Z</time>
      </trkpt>
      <trkpt lat="41.661844955" lon="2.501315612">
        <ele>293.34</ele>
        <time>2014-06-29T10:25:35Z</time>
      </trkpt>
      <trkpt lat="41.661852079" lon="2.501317959">
        <ele>293.34</ele>
        <time>2014-06-29T10:25:45Z</time>
      </trkpt>
      <trkpt lat="41.661887116" lon="2.501348805">
        <ele>293.34</ele>
        <time>2014-06-29T10:25:52Z</time>
      </trkpt>
      <trkpt lat="41.661971773" lon="2.501486352">
        <ele>293.82</ele>
        <time>2014-06-29T10:26:00Z</time>
      </trkpt>
      <trkpt lat="41.662114601" lon="2.501648709">
        <ele>294.30</ele>
        <time>2014-06-29T10:26:08Z</time>
      </trkpt>
      <trkpt lat="41.662201605" lon="2.501697157">
        <ele>294.30</ele>
        <time>2014-06-29T10:26:15Z</time>
      </trkpt>
      <trkpt lat="41.662215603" lon="2.501706712">
        <ele>294.30</ele>
        <time>2014-06-29T10:26:23Z</time>
      </trkpt>
      <trkpt lat="41.662242257" lon="2.501748454">
        <ele>294.30</ele>
        <time>2014-06-29T10:26:31Z</time>
      </trkpt>
      <trkpt lat="41.662320460" lon="2.501805870">
        <ele>294.30</ele>
        <time>2014-06-29T10:26:41Z</time>
      </trkpt>
      <trkpt lat="41.662339571" lon="2.501818191">
        <ele>294.78</ele>
        <time>2014-06-29T10:26:47Z</time>
      </trkpt>
      <trkpt lat="41.662435125" lon="2.501861526">
        <ele>294.78</ele>
        <time>2014-06-29T10:26:57Z</time>
      </trkpt>
      <trkpt lat="41.662468820" lon="2.501875272">
        <ele>295.26</ele>
        <time>2014-06-29T10:27:05Z</time>
      </trkpt>
      <trkpt lat="41.662527828" lon="2.501894383">
        <ele>295.26</ele>
        <time>2014-06-29T10:27:14Z</time>
      </trkpt>
      <trkpt lat="41.662553058" lon="2.501903184">
        <ele>295.26</ele>
        <time>2014-06-29T10:27:23Z</time>
      </trkpt>
      <trkpt lat="41.662596309" lon="2.501929587">
        <ele>295.26</ele>
        <time>2014-06-29T10:27:31Z</time>
      </trkpt>
      <trkpt lat="41.662640984" lon="2.501948195">
        <ele>295.74</ele>
        <time>2014-06-29T10:27:38Z</time>
      </trkpt>
      <trkpt lat="41.662686665" lon="2.501981303">
        <ele>296.22</ele>
        <time>2014-06-29T10:27:41Z</time>
      </trkpt>
      <trkpt lat="41.662711224" lon="2.502095465">
        <ele>296.70</ele>
        <time>2014-06-29T10:27:49Z</time>
      </trkpt>
      <trkpt lat="41.662709045" lon="2.502103260">
        <ele>297.18</ele>
        <time>2014-06-29T10:27:50Z</time>
      </trkpt>
      <trkpt lat="41.662669483" lon="2.502149696">
        <ele>297.18</ele>
        <time>2014-06-29T10:27:55Z</time>
      </trkpt>
      <trkpt lat="41.662586837" lon="2.502213063">
        <ele>298.15</ele>
        <time>2014-06-29T10:28:03Z</time>
      </trkpt>
      <trkpt lat="41.662490026" lon="2.502302665">
        <ele>298.15</ele>
        <time>2014-06-29T10:28:11Z</time>
      </trkpt>
      <trkpt lat="41.662347198" lon="2.502445744">
        <ele>299.11</ele>
        <time>2014-06-29T10:28:22Z</time>
      </trkpt>
      <trkpt lat="41.662223565" lon="2.502560241">
        <ele>300.07</ele>
        <time>2014-06-29T10:28:31Z</time>
      </trkpt>
      <trkpt lat="41.662104710" lon="2.502708098">
        <ele>301.03</ele>
        <time>2014-06-29T10:28:41Z</time>
      </trkpt>
      <trkpt lat="41.662006558" lon="2.502814632">
        <ele>301.51</ele>
        <time>2014-06-29T10:28:49Z</time>
      </trkpt>
      <trkpt lat="41.661873118" lon="2.502904821">
        <ele>302.95</ele>
        <time>2014-06-29T10:28:58Z</time>
      </trkpt>
      <trkpt lat="41.661738169" lon="2.502996184">
        <ele>304.39</ele>
        <time>2014-06-29T10:29:07Z</time>
      </trkpt>
      <trkpt lat="41.661595090" lon="2.503080757">
        <ele>306.32</ele>
        <time>2014-06-29T10:29:16Z</time>
      </trkpt>
      <trkpt lat="41.661582685" lon="2.503088636">
        <ele>306.32</ele>
        <time>2014-06-29T10:29:17Z</time>
      </trkpt>
      <trkpt lat="41.661478833" lon="2.503171198">
        <ele>306.80</ele>
        <time>2014-06-29T10:29:25Z</time>
      </trkpt>
      <trkpt lat="41.661333407" lon="2.503330371">
        <ele>308.24</ele>
        <time>2014-06-29T10:29:36Z</time>
      </trkpt>
      <trkpt lat="41.661320834" lon="2.503336825">
        <ele>308.72</ele>
        <time>2014-06-29T10:29:37Z</time>
      </trkpt>
      <trkpt lat="41.661271297" lon="2.503498344">
        <ele>308.72</ele>
        <time>2014-06-29T10:29:45Z</time>
      </trkpt>
      <trkpt lat="41.661246487" lon="2.503753405">
        <ele>309.20</ele>
        <time>2014-06-29T10:29:55Z</time>
      </trkpt>
      <trkpt lat="41.661239781" lon="2.503961612">
        <ele>309.68</ele>
        <time>2014-06-29T10:30:03Z</time>
      </trkpt>
      <trkpt lat="41.661247828" lon="2.504185408">
        <ele>310.64</ele>
        <time>2014-06-29T10:30:12Z</time>
      </trkpt>
      <trkpt lat="41.661302143" lon="2.504411888">
        <ele>311.12</ele>
        <time>2014-06-29T10:30:21Z</time>
      </trkpt>
      <trkpt lat="41.661344136" lon="2.504603079">
        <ele>312.09</ele>
        <time>2014-06-29T10:30:29Z</time>
      </trkpt>
      <trkpt lat="41.661382274" lon="2.504767364">
        <ele>312.57</ele>
        <time>2014-06-29T10:30:36Z</time>
      </trkpt>
      <trkpt lat="41.661399540" lon="2.505040446">
        <ele>313.05</ele>
        <time>2014-06-29T10:30:46Z</time>
      </trkpt>
      <trkpt lat="41.661390572" lon="2.505074896">
        <ele>313.05</ele>
        <time>2014-06-29T10:30:47Z</time>
      </trkpt>
      <trkpt lat="41.661294431" lon="2.505113453">
        <ele>313.05</ele>
        <time>2014-06-29T10:30:52Z</time>
      </trkpt>
      <trkpt lat="41.661070718" lon="2.505113369">
        <ele>313.05</ele>
        <time>2014-06-29T10:31:00Z</time>
      </trkpt>
      <trkpt lat="41.660908780" lon="2.505092247">
        <ele>313.05</ele>
        <time>2014-06-29T10:31:06Z</time>
      </trkpt>
      <trkpt lat="41.660719098" lon="2.505037932">
        <ele>313.05</ele>
        <time>2014-06-29T10:31:13Z</time>
      </trkpt>
      <trkpt lat="41.660505024" lon="2.505029047">
        <ele>313.05</ele>
        <time>2014-06-29T10:31:22Z</time>
      </trkpt>
      <trkpt lat="41.660269492" lon="2.505083865">
        <ele>313.05</ele>
        <time>2014-06-29T10:31:31Z</time>
      </trkpt>
      <trkpt lat="41.660064303" lon="2.505106999">
        <ele>313.05</ele>
        <time>2014-06-29T10:31:39Z</time>
      </trkpt>
      <trkpt lat="41.659868418" lon="2.505090319">
        <ele>313.53</ele>
        <time>2014-06-29T10:31:47Z</time>
      </trkpt>
      <trkpt lat="41.659696924" lon="2.505133569">
        <ele>314.01</ele>
        <time>2014-06-29T10:31:54Z</time>
      </trkpt>
      <trkpt lat="41.659514450" lon="2.505298861">
        <ele>314.97</ele>
        <time>2014-06-29T10:32:03Z</time>
      </trkpt>
      <trkpt lat="41.659443288" lon="2.505453171">
        <ele>315.45</ele>
        <time>2014-06-29T10:32:09Z</time>
      </trkpt>
      <trkpt lat="41.659476313" lon="2.505624330">
        <ele>316.41</ele>
        <time>2014-06-29T10:32:16Z</time>
      </trkpt>
      <trkpt lat="41.659498441" lon="2.505825998">
        <ele>317.85</ele>
        <time>2014-06-29T10:32:24Z</time>
      </trkpt>
      <trkpt lat="41.659472373" lon="2.506052394">
        <ele>319.30</ele>
        <time>2014-06-29T10:32:32Z</time>
      </trkpt>
      <trkpt lat="41.659423004" lon="2.506126657">
        <ele>320.26</ele>
        <time>2014-06-29T10:32:37Z</time>
      </trkpt>
      <trkpt lat="41.659279338" lon="2.506125903">
        <ele>322.18</ele>
        <time>2014-06-29T10:32:45Z</time>
      </trkpt>
      <trkpt lat="41.659172720" lon="2.506153479">
        <ele>323.14</ele>
        <time>2014-06-29T10:32:50Z</time>
      </trkpt>
      <trkpt lat="41.659176660" lon="2.506257583">
        <ele>324.10</ele>
        <time>2014-06-29T10:32:55Z</time>
      </trkpt>
      <trkpt lat="41.659294928" lon="2.506449696">
        <ele>326.02</ele>
        <time>2014-06-29T10:33:04Z</time>
      </trkpt>
      <trkpt lat="41.659384699" lon="2.506617753">
        <ele>326.99</ele>
        <time>2014-06-29T10:33:12Z</time>
      </trkpt>
      <trkpt lat="41.659476480" lon="2.506769968">
        <ele>328.43</ele>
        <time>2014-06-29T10:33:19Z</time>
      </trkpt>
      <trkpt lat="41.659575303" lon="2.506912125">
        <ele>329.39</ele>
        <time>2014-06-29T10:33:26Z</time>
      </trkpt>
      <trkpt lat="41.659591312" lon="2.506973397">
        <ele>329.87</ele>
        <time>2014-06-29T10:33:29Z</time>
      </trkpt>
      <trkpt lat="41.659516294" lon="2.507133743">
        <ele>330.83</ele>
        <time>2014-06-29T10:33:38Z</time>
      </trkpt>
      <trkpt lat="41.659457956" lon="2.507323090">
        <ele>330.83</ele>
        <time>2014-06-29T10:33:43Z</time>
      </trkpt>
      <trkpt lat="41.659397942" lon="2.507438257">
        <ele>328.91</ele>
        <time>2014-06-29T10:33:46Z</time>
      </trkpt>
      <trkpt lat="41.659339520" lon="2.507562813">
        <ele>328.43</ele>
        <time>2014-06-29T10:33:49Z</time>
      </trkpt>
      <trkpt lat="41.659300377" lon="2.507658282">
        <ele>327.47</ele>
        <time>2014-06-29T10:33:51Z</time>
      </trkpt>
      <trkpt lat="41.659258719" lon="2.507962965">
        <ele>324.58</ele>
        <time>2014-06-29T10:33:57Z</time>
      </trkpt>
      <trkpt lat="41.659333401" lon="2.508113671">
        <ele>323.62</ele>
        <time>2014-06-29T10:34:02Z</time>
      </trkpt>
      <trkpt lat="41.659472457" lon="2.508332020">
        <ele>321.70</ele>
        <time>2014-06-29T10:34:09Z</time>
      </trkpt>
      <trkpt lat="41.659469021" lon="2.508647682">
        <ele>318.33</ele>
        <time>2014-06-29T10:34:15Z</time>
      </trkpt>
      <trkpt lat="41.659462566" lon="2.508733848">
        <ele>317.85</ele>
        <time>2014-06-29T10:34:17Z</time>
      </trkpt>
      <trkpt lat="41.659469188" lon="2.508904671">
        <ele>315.93</ele>
        <time>2014-06-29T10:34:22Z</time>
      </trkpt>
      <trkpt lat="41.659483102" lon="2.508982288">
        <ele>314.97</ele>
        <time>2014-06-29T10:34:24Z</time>
      </trkpt>
      <trkpt lat="41.659542111" lon="2.509166690">
        <ele>312.57</ele>
        <time>2014-06-29T10:34:30Z</time>
      </trkpt>
      <trkpt lat="41.659652333" lon="2.509304572">
        <ele>311.60</ele>
        <time>2014-06-29T10:34:39Z</time>
      </trkpt>
      <trkpt lat="41.659713772" lon="2.509346733">
        <ele>311.60</ele>
        <time>2014-06-29T10:34:43Z</time>
      </trkpt>
      <trkpt lat="41.659869843" lon="2.509429798">
        <ele>311.12</ele>
        <time>2014-06-29T10:34:51Z</time>
      </trkpt>
      <trkpt lat="41.660010240" lon="2.509464331">
        <ele>310.64</ele>
        <time>2014-06-29T10:34:56Z</time>
      </trkpt>
      <trkpt lat="41.660236887" lon="2.509513784">
        <ele>308.24</ele>
        <time>2014-06-29T10:35:02Z</time>
      </trkpt>
      <trkpt lat="41.660311234" lon="2.509538930">
        <ele>308.24</ele>
        <time>2014-06-29T10:35:07Z</time>
      </trkpt>
      <trkpt lat="41.660459594" lon="2.509682009">
        <ele>307.76</ele>
        <time>2014-06-29T10:35:13Z</time>
      </trkpt>
      <trkpt lat="41.660610636" lon="2.509852665">
        <ele>306.80</ele>
        <time>2014-06-29T10:35:19Z</time>
      </trkpt>
      <trkpt lat="41.660682133" lon="2.509920642">
        <ele>305.36</ele>
        <time>2014-06-29T10:35:22Z</time>
      </trkpt>
      <trkpt lat="41.660844407" lon="2.510069421">
        <ele>302.95</ele>
        <time>2014-06-29T10:35:28Z</time>
      </trkpt>
      <trkpt lat="41.660951109" lon="2.510222307">
        <ele>301.51</ele>
        <time>2014-06-29T10:35:32Z</time>
      </trkpt>
      <trkpt lat="41.661020427" lon="2.510320962">
        <ele>300.55</ele>
        <time>2014-06-29T10:35:38Z</time>
      </trkpt>
      <trkpt lat="41.661046327" lon="2.510324985">
        <ele>300.07</ele>
        <time>2014-06-29T10:35:48Z</time>
      </trkpt>
      <trkpt lat="41.661069042" lon="2.510335295">
        <ele>300.07</ele>
        <time>2014-06-29T10:35:57Z</time>
      </trkpt>
      <trkpt lat="41.661089997" lon="2.510353400">
        <ele>300.07</ele>
        <time>2014-06-29T10:36:06Z</time>
      </trkpt>
      <trkpt lat="41.661109694" lon="2.510374941">
        <ele>300.07</ele>
        <time>2014-06-29T10:36:15Z</time>
      </trkpt>
      <trkpt lat="41.661135762" lon="2.510380222">
        <ele>300.07</ele>
        <time>2014-06-29T10:36:23Z</time>
      </trkpt>
      <trkpt lat="41.661178761" lon="2.510381982">
        <ele>300.07</ele>
        <time>2014-06-29T10:36:29Z</time>
      </trkpt>
      <trkpt lat="41.661208852" lon="2.510388520">
        <ele>300.07</ele>
        <time>2014-06-29T10:36:32Z</time>
      </trkpt>
      <trkpt lat="41.661316727" lon="2.510440404">
        <ele>300.07</ele>
        <time>2014-06-29T10:36:41Z</time>
      </trkpt>
      <trkpt lat="41.661346902" lon="2.510459850">
        <ele>301.51</ele>
        <time>2014-06-29T10:36:43Z</time>
      </trkpt>
      <trkpt lat="41.661431895" lon="2.510579543">
        <ele>301.99</ele>
        <time>2014-06-29T10:36:50Z</time>
      </trkpt>
      <trkpt lat="41.661481851" lon="2.510766711">
        <ele>301.99</ele>
        <time>2014-06-29T10:36:56Z</time>
      </trkpt>
      <trkpt lat="41.661527029" lon="2.510961339">
        <ele>301.99</ele>
        <time>2014-06-29T10:37:03Z</time>
      </trkpt>
      <trkpt lat="41.661538009" lon="2.511006434">
        <ele>301.99</ele>
        <time>2014-06-29T10:37:05Z</time>
      </trkpt>
      <trkpt lat="41.661543709" lon="2.511052115">
        <ele>301.99</ele>
        <time>2014-06-29T10:37:07Z</time>
      </trkpt>
      <trkpt lat="41.661555192" lon="2.511203073">
        <ele>303.43</ele>
        <time>2014-06-29T10:37:14Z</time>
      </trkpt>
      <trkpt lat="41.661619398" lon="2.511441371">
        <ele>303.91</ele>
        <time>2014-06-29T10:37:22Z</time>
      </trkpt>
      <trkpt lat="41.661722914" lon="2.511678411">
        <ele>304.39</ele>
        <time>2014-06-29T10:37:30Z</time>
      </trkpt>
      <trkpt lat="41.661770775" lon="2.511967335">
        <ele>304.88</ele>
        <time>2014-06-29T10:37:39Z</time>
      </trkpt>
      <trkpt lat="41.661774631" lon="2.512272939">
        <ele>304.88</ele>
        <time>2014-06-29T10:37:48Z</time>
      </trkpt>
      <trkpt lat="41.661803967" lon="2.512487097">
        <ele>303.43</ele>
        <time>2014-06-29T10:37:55Z</time>
      </trkpt>
      <trkpt lat="41.661784018" lon="2.512693124">
        <ele>303.43</ele>
        <time>2014-06-29T10:38:01Z</time>
      </trkpt>
      <trkpt lat="41.661660301" lon="2.512920441">
        <ele>303.43</ele>
        <time>2014-06-29T10:38:10Z</time>
      </trkpt>
      <trkpt lat="41.661570196" lon="2.513079027">
        <ele>304.39</ele>
        <time>2014-06-29T10:38:17Z</time>
      </trkpt>
      <trkpt lat="41.661560892" lon="2.513103083">
        <ele>304.39</ele>
        <time>2014-06-29T10:38:18Z</time>
      </trkpt>
      <trkpt lat="41.661484030" lon="2.513262255">
        <ele>305.36</ele>
        <time>2014-06-29T10:38:25Z</time>
      </trkpt>
      <trkpt lat="41.661363414" lon="2.513304919">
        <ele>305.36</ele>
        <time>2014-06-29T10:38:31Z</time>
      </trkpt>
      <trkpt lat="41.661178091" lon="2.513372310">
        <ele>305.36</ele>
        <time>2014-06-29T10:38:38Z</time>
      </trkpt>
      <trkpt lat="41.661046076" lon="2.513455374">
        <ele>304.39</ele>
        <time>2014-06-29T10:38:42Z</time>
      </trkpt>
      <trkpt lat="41.660965442" lon="2.513529387">
        <ele>303.43</ele>
        <time>2014-06-29T10:38:45Z</time>
      </trkpt>
      <trkpt lat="41.660955048" lon="2.513695935">
        <ele>302.95</ele>
        <time>2014-06-29T10:38:51Z</time>
      </trkpt>
      <trkpt lat="41.660947504" lon="2.513858544">
        <ele>302.47</ele>
        <time>2014-06-29T10:38:57Z</time>
      </trkpt>
      <trkpt lat="41.660902326" lon="2.514039928">
        <ele>301.03</ele>
        <time>2014-06-29T10:39:01Z</time>
      </trkpt>
      <trkpt lat="41.660824626" lon="2.514182504">
        <ele>300.07</ele>
        <time>2014-06-29T10:39:06Z</time>
      </trkpt>
      <trkpt lat="41.660816831" lon="2.514235813">
        <ele>300.07</ele>
        <time>2014-06-29T10:39:10Z</time>
      </trkpt>
      <trkpt lat="41.660847508" lon="2.514434464">
        <ele>300.07</ele>
        <time>2014-06-29T10:39:19Z</time>
      </trkpt>
      <trkpt lat="41.660916408" lon="2.514625991">
        <ele>300.07</ele>
        <time>2014-06-29T10:39:26Z</time>
      </trkpt>
      <trkpt lat="41.661032832" lon="2.514900331">
        <ele>300.07</ele>
        <time>2014-06-29T10:39:34Z</time>
      </trkpt>
      <trkpt lat="41.661152693" lon="2.515110884">
        <ele>299.11</ele>
        <time>2014-06-29T10:39:40Z</time>
      </trkpt>
      <trkpt lat="41.661198459" lon="2.515174754">
        <ele>298.63</ele>
        <time>2014-06-29T10:39:42Z</time>
      </trkpt>
      <trkpt lat="41.661261155" lon="2.515297130">
        <ele>297.67</ele>
        <time>2014-06-29T10:39:45Z</time>
      </trkpt>
      <trkpt lat="41.661279679" lon="2.515636346">
        <ele>295.74</ele>
        <time>2014-06-29T10:39:50Z</time>
      </trkpt>
      <trkpt lat="41.661216144" lon="2.515959803">
        <ele>294.30</ele>
        <time>2014-06-29T10:39:55Z</time>
      </trkpt>
      <trkpt lat="41.661145066" lon="2.516368924">
        <ele>293.34</ele>
        <time>2014-06-29T10:40:02Z</time>
      </trkpt>
      <trkpt lat="41.661138779" lon="2.516491383">
        <ele>292.38</ele>
        <time>2014-06-29T10:40:04Z</time>
      </trkpt>
      <trkpt lat="41.661125117" lon="2.516619962">
        <ele>291.42</ele>
        <time>2014-06-29T10:40:06Z</time>
      </trkpt>
      <trkpt lat="41.661034257" lon="2.516846609">
        <ele>292.86</ele>
        <time>2014-06-29T10:40:12Z</time>
      </trkpt>
      <trkpt lat="41.660872067" lon="2.516961692">
        <ele>294.78</ele>
        <time>2014-06-29T10:40:20Z</time>
      </trkpt>
      <trkpt lat="41.660836612" lon="2.516995471">
        <ele>294.78</ele>
        <time>2014-06-29T10:40:22Z</time>
      </trkpt>
      <trkpt lat="41.660757151" lon="2.517140059">
        <ele>296.22</ele>
        <time>2014-06-29T10:40:28Z</time>
      </trkpt>
      <trkpt lat="41.660646762" lon="2.517304177">
        <ele>298.63</ele>
        <time>2014-06-29T10:40:36Z</time>
      </trkpt>
      <trkpt lat="41.660604685" lon="2.517357234">
        <ele>300.07</ele>
        <time>2014-06-29T10:40:40Z</time>
      </trkpt>
      <trkpt lat="41.660581886" lon="2.517400317">
        <ele>300.07</ele>
        <time>2014-06-29T10:40:42Z</time>
      </trkpt>
      <trkpt lat="41.660521452" lon="2.517506348">
        <ele>301.99</ele>
        <time>2014-06-29T10:40:49Z</time>
      </trkpt>
      <trkpt lat="41.660493876" lon="2.517599639">
        <ele>303.43</ele>
        <time>2014-06-29T10:40:54Z</time>
      </trkpt>
      <trkpt lat="41.660419361" lon="2.517753028">
        <ele>305.36</ele>
        <time>2014-06-29T10:41:04Z</time>
      </trkpt>
      <trkpt lat="41.660371332" lon="2.517852269">
        <ele>306.80</ele>
        <time>2014-06-29T10:41:11Z</time>
      </trkpt>
      <trkpt lat="41.660343504" lon="2.518012950">
        <ele>306.80</ele>
        <time>2014-06-29T10:41:18Z</time>
      </trkpt>
      <trkpt lat="41.660359933" lon="2.518277567">
        <ele>306.80</ele>
        <time>2014-06-29T10:41:25Z</time>
      </trkpt>
      <trkpt lat="41.660365297" lon="2.518445708">
        <ele>305.36</ele>
        <time>2014-06-29T10:41:28Z</time>
      </trkpt>
      <trkpt lat="41.660374769" lon="2.518742176">
        <ele>304.88</ele>
        <time>2014-06-29T10:41:35Z</time>
      </trkpt>
      <trkpt lat="41.660388767" lon="2.518808896">
        <ele>304.88</ele>
        <time>2014-06-29T10:41:37Z</time>
      </trkpt>
      <trkpt lat="41.660356413" lon="2.519071752">
        <ele>304.39</ele>
        <time>2014-06-29T10:41:44Z</time>
      </trkpt>
      <trkpt lat="41.660355574" lon="2.519158170">
        <ele>304.39</ele>
        <time>2014-06-29T10:41:46Z</time>
      </trkpt>
      <trkpt lat="41.660382648" lon="2.519476934">
        <ele>303.91</ele>
        <time>2014-06-29T10:41:53Z</time>
      </trkpt>
      <trkpt lat="41.660408632" lon="2.519592017">
        <ele>303.43</ele>
        <time>2014-06-29T10:41:56Z</time>
      </trkpt>
      <trkpt lat="41.660409470" lon="2.519698048">
        <ele>302.95</ele>
        <time>2014-06-29T10:42:00Z</time>
      </trkpt>
      <trkpt lat="41.660291201" lon="2.519941962">
        <ele>300.07</ele>
        <time>2014-06-29T10:42:05Z</time>
      </trkpt>
      <trkpt lat="41.660188104" lon="2.520163160">
        <ele>300.07</ele>
        <time>2014-06-29T10:42:09Z</time>
      </trkpt>
      <trkpt lat="41.660138483" lon="2.520466250">
        <ele>301.99</ele>
        <time>2014-06-29T10:42:17Z</time>
      </trkpt>
      <trkpt lat="41.660091377" lon="2.520689124">
        <ele>302.47</ele>
        <time>2014-06-29T10:42:23Z</time>
      </trkpt>
      <trkpt lat="41.660051730" lon="2.520774033">
        <ele>301.03</ele>
        <time>2014-06-29T10:42:25Z</time>
      </trkpt>
      <trkpt lat="41.659789544" lon="2.521054324">
        <ele>298.63</ele>
        <time>2014-06-29T10:42:31Z</time>
      </trkpt>
      <trkpt lat="41.659679406" lon="2.521217184">
        <ele>298.63</ele>
        <time>2014-06-29T10:42:36Z</time>
      </trkpt>
      <trkpt lat="41.659632049" lon="2.521349618">
        <ele>298.63</ele>
        <time>2014-06-29T10:42:42Z</time>
      </trkpt>
      <trkpt lat="41.659622828" lon="2.521456655">
        <ele>298.63</ele>
        <time>2014-06-29T10:42:46Z</time>
      </trkpt>
      <trkpt lat="41.659630959" lon="2.521554053">
        <ele>300.07</ele>
        <time>2014-06-29T10:42:50Z</time>
      </trkpt>
      <trkpt lat="41.659620733" lon="2.521689421">
        <ele>300.55</ele>
        <time>2014-06-29T10:42:58Z</time>
      </trkpt>
      <trkpt lat="41.659630791" lon="2.521743065">
        <ele>300.07</ele>
        <time>2014-06-29T10:43:06Z</time>
      </trkpt>
      <trkpt lat="41.659574046" lon="2.521954959">
        <ele>301.99</ele>
        <time>2014-06-29T10:43:17Z</time>
      </trkpt>
      <trkpt lat="41.659496010" lon="2.522129638">
        <ele>302.47</ele>
        <time>2014-06-29T10:43:26Z</time>
      </trkpt>
      <trkpt lat="41.659426440" lon="2.522268443">
        <ele>303.91</ele>
        <time>2014-06-29T10:43:34Z</time>
      </trkpt>
      <trkpt lat="41.659391991" lon="2.522493832">
        <ele>305.36</ele>
        <time>2014-06-29T10:43:44Z</time>
      </trkpt>
      <trkpt lat="41.659398110" lon="2.522699859">
        <ele>307.76</ele>
        <time>2014-06-29T10:43:53Z</time>
      </trkpt>
      <trkpt lat="41.659372964" lon="2.522858696">
        <ele>310.16</ele>
        <time>2014-06-29T10:44:00Z</time>
      </trkpt>
      <trkpt lat="41.659298868" lon="2.523016360">
        <ele>311.60</ele>
        <time>2014-06-29T10:44:08Z</time>
      </trkpt>
      <trkpt lat="41.659236004" lon="2.523124570">
        <ele>314.01</ele>
        <time>2014-06-29T10:44:16Z</time>
      </trkpt>
      <trkpt lat="41.659135840" lon="2.523271253">
        <ele>316.41</ele>
        <time>2014-06-29T10:44:25Z</time>
      </trkpt>
      <trkpt lat="41.659046908" lon="2.523448782">
        <ele>318.33</ele>
        <time>2014-06-29T10:44:34Z</time>
      </trkpt>
      <trkpt lat="41.659021427" lon="2.523525560">
        <ele>318.33</ele>
        <time>2014-06-29T10:44:37Z</time>
      </trkpt>
      <trkpt lat="41.659072808" lon="2.523737874">
        <ele>319.78</ele>
        <time>2014-06-29T10:44:46Z</time>
      </trkpt>
      <trkpt lat="41.659175235" lon="2.523901237">
        <ele>320.26</ele>
        <time>2014-06-29T10:44:55Z</time>
      </trkpt>
      <trkpt lat="41.659273135" lon="2.524072396">
        <ele>320.74</ele>
        <time>2014-06-29T10:45:03Z</time>
      </trkpt>
      <trkpt lat="41.659320409" lon="2.524244309">
        <ele>321.70</ele>
        <time>2014-06-29T10:45:10Z</time>
      </trkpt>
      <trkpt lat="41.659332731" lon="2.524396859">
        <ele>323.14</ele>
        <time>2014-06-29T10:45:17Z</time>
      </trkpt>
      <trkpt lat="41.659356954" lon="2.524571119">
        <ele>324.58</ele>
        <time>2014-06-29T10:45:26Z</time>
      </trkpt>
      <trkpt lat="41.659369527" lon="2.524688466">
        <ele>326.02</ele>
        <time>2014-06-29T10:45:32Z</time>
      </trkpt>
      <trkpt lat="41.659365923" lon="2.524864486">
        <ele>326.99</ele>
        <time>2014-06-29T10:45:39Z</time>
      </trkpt>
      <trkpt lat="41.659368186" lon="2.525081158">
        <ele>328.91</ele>
        <time>2014-06-29T10:45:48Z</time>
      </trkpt>
      <trkpt lat="41.659313201" lon="2.525094737">
        <ele>329.87</ele>
        <time>2014-06-29T10:45:55Z</time>
      </trkpt>
      <trkpt lat="41.659250001" lon="2.524915364">
        <ele>332.27</ele>
        <time>2014-06-29T10:46:05Z</time>
      </trkpt>
      <trkpt lat="41.659170122" lon="2.524750743">
        <ele>333.71</ele>
        <time>2014-06-29T10:46:14Z</time>
      </trkpt>
      <trkpt lat="41.659093260" lon="2.524581010">
        <ele>335.16</ele>
        <time>2014-06-29T10:46:22Z</time>
      </trkpt>
      <trkpt lat="41.658986391" lon="2.524380095">
        <ele>336.12</ele>
        <time>2014-06-29T10:46:32Z</time>
      </trkpt>
      <trkpt lat="41.658872397" lon="2.524255289">
        <ele>337.08</ele>
        <time>2014-06-29T10:46:40Z</time>
      </trkpt>
      <trkpt lat="41.658768461" lon="2.524157807">
        <ele>338.04</ele>
        <time>2014-06-29T10:46:47Z</time>
      </trkpt>
      <trkpt lat="41.658652120" lon="2.524041969">
        <ele>339.48</ele>
        <time>2014-06-29T10:46:56Z</time>
      </trkpt>
      <trkpt lat="41.658557405" lon="2.523860166">
        <ele>341.89</ele>
        <time>2014-06-29T10:47:06Z</time>
      </trkpt>
      <trkpt lat="41.658531086" lon="2.523720440">
        <ele>342.85</ele>
        <time>2014-06-29T10:47:13Z</time>
      </trkpt>
      <trkpt lat="41.658499653" lon="2.523495134">
        <ele>344.29</ele>
        <time>2014-06-29T10:47:21Z</time>
      </trkpt>
      <trkpt lat="41.658462019" lon="2.523282485">
        <ele>344.77</ele>
        <time>2014-06-29T10:47:30Z</time>
      </trkpt>
      <trkpt lat="41.658417175" lon="2.523114428">
        <ele>346.21</ele>
        <time>2014-06-29T10:47:38Z</time>
      </trkpt>
      <trkpt lat="41.658390270" lon="2.522978306">
        <ele>347.17</ele>
        <time>2014-06-29T10:47:45Z</time>
      </trkpt>
      <trkpt lat="41.658340313" lon="2.522799101">
        <ele>348.13</ele>
        <time>2014-06-29T10:47:53Z</time>
      </trkpt>
      <trkpt lat="41.658300667" lon="2.522644874">
        <ele>348.62</ele>
        <time>2014-06-29T10:48:00Z</time>
      </trkpt>
      <trkpt lat="41.658273258" lon="2.522460723">
        <ele>349.10</ele>
        <time>2014-06-29T10:48:08Z</time>
      </trkpt>
      <trkpt lat="41.658264373" lon="2.522242375">
        <ele>349.58</ele>
        <time>2014-06-29T10:48:17Z</time>
      </trkpt>
      <trkpt lat="41.658246268" lon="2.522040036">
        <ele>350.54</ele>
        <time>2014-06-29T10:48:24Z</time>
      </trkpt>
      <trkpt lat="41.658226236" lon="2.521808779">
        <ele>351.98</ele>
        <time>2014-06-29T10:48:32Z</time>
      </trkpt>
      <trkpt lat="41.658239311" lon="2.521558328">
        <ele>353.42</ele>
        <time>2014-06-29T10:48:42Z</time>
      </trkpt>
      <trkpt lat="41.658248196" lon="2.521340482">
        <ele>355.83</ele>
        <time>2014-06-29T10:48:51Z</time>
      </trkpt>
      <trkpt lat="41.658257249" lon="2.521154236">
        <ele>357.27</ele>
        <time>2014-06-29T10:48:59Z</time>
      </trkpt>
      <trkpt lat="41.658292285" lon="2.520978635">
        <ele>359.19</ele>
        <time>2014-06-29T10:49:07Z</time>
      </trkpt>
      <trkpt lat="41.658350791" lon="2.520756180">
        <ele>360.15</ele>
        <time>2014-06-29T10:49:16Z</time>
      </trkpt>
      <trkpt lat="41.658351378" lon="2.520532048">
        <ele>361.59</ele>
        <time>2014-06-29T10:49:26Z</time>
      </trkpt>
      <trkpt lat="41.658368058" lon="2.520324260">
        <ele>361.59</ele>
        <time>2014-06-29T10:49:34Z</time>
      </trkpt>
      <trkpt lat="41.658401082" lon="2.520143211">
        <ele>362.07</ele>
        <time>2014-06-29T10:49:41Z</time>
      </trkpt>
      <trkpt lat="41.658407788" lon="2.520110689">
        <ele>362.07</ele>
        <time>2014-06-29T10:49:42Z</time>
      </trkpt>
      <trkpt lat="41.658345845" lon="2.519944392">
        <ele>362.55</ele>
        <time>2014-06-29T10:49:50Z</time>
      </trkpt>
      <trkpt lat="41.658264038" lon="2.520025697">
        <ele>364.48</ele>
        <time>2014-06-29T10:49:58Z</time>
      </trkpt>
      <trkpt lat="41.658254147" lon="2.520075737">
        <ele>364.96</ele>
        <time>2014-06-29T10:50:01Z</time>
      </trkpt>
      <trkpt lat="41.658219279" lon="2.520234322">
        <ele>366.40</ele>
        <time>2014-06-29T10:50:09Z</time>
      </trkpt>
      <trkpt lat="41.658195307" lon="2.520419311">
        <ele>366.88</ele>
        <time>2014-06-29T10:50:17Z</time>
      </trkpt>
      <trkpt lat="41.658180890" lon="2.520569934">
        <ele>368.32</ele>
        <time>2014-06-29T10:50:24Z</time>
      </trkpt>
      <trkpt lat="41.658178710" lon="2.520593822">
        <ele>368.32</ele>
        <time>2014-06-29T10:50:25Z</time>
      </trkpt>
      <trkpt lat="41.658153313" lon="2.520716785">
        <ele>368.80</ele>
        <time>2014-06-29T10:50:30Z</time>
      </trkpt>
      <trkpt lat="41.658093215" lon="2.520875454">
        <ele>370.24</ele>
        <time>2014-06-29T10:50:38Z</time>
      </trkpt>
      <trkpt lat="41.658028423" lon="2.521054659">
        <ele>371.21</ele>
        <time>2014-06-29T10:50:47Z</time>
      </trkpt>
      <trkpt lat="41.657970336" lon="2.521216011">
        <ele>372.17</ele>
        <time>2014-06-29T10:50:56Z</time>
      </trkpt>
      <trkpt lat="41.657916441" lon="2.521403346">
        <ele>373.13</ele>
        <time>2014-06-29T10:51:04Z</time>
      </trkpt>
      <trkpt lat="41.657896911" lon="2.521640219">
        <ele>373.61</ele>
        <time>2014-06-29T10:51:11Z</time>
      </trkpt>
      <trkpt lat="41.657882326" lon="2.521914810">
        <ele>374.57</ele>
        <time>2014-06-29T10:51:19Z</time>
      </trkpt>
      <trkpt lat="41.657816109" lon="2.522178002">
        <ele>375.05</ele>
        <time>2014-06-29T10:51:28Z</time>
      </trkpt>
      <trkpt lat="41.657798759" lon="2.522483438">
        <ele>375.05</ele>
        <time>2014-06-29T10:51:36Z</time>
      </trkpt>
      <trkpt lat="41.657872687" lon="2.522784600">
        <ele>375.53</ele>
        <time>2014-06-29T10:51:42Z</time>
      </trkpt>
      <trkpt lat="41.657899509" lon="2.523194559">
        <ele>375.53</ele>
        <time>2014-06-29T10:51:50Z</time>
      </trkpt>
      <trkpt lat="41.657920045" lon="2.523603009">
        <ele>374.57</ele>
        <time>2014-06-29T10:51:59Z</time>
      </trkpt>
      <trkpt lat="41.657851648" lon="2.523852706">
        <ele>374.57</ele>
        <time>2014-06-29T10:52:06Z</time>
      </trkpt>
      <trkpt lat="41.657815103" lon="2.524003497">
        <ele>376.01</ele>
        <time>2014-06-29T10:52:11Z</time>
      </trkpt>
      <trkpt lat="41.657834968" lon="2.524260737">
        <ele>377.45</ele>
        <time>2014-06-29T10:52:19Z</time>
      </trkpt>
      <trkpt lat="41.657802447" lon="2.524541615">
        <ele>378.90</ele>
        <time>2014-06-29T10:52:28Z</time>
      </trkpt>
      <trkpt lat="41.657779480" lon="2.524591990">
        <ele>378.90</ele>
        <time>2014-06-29T10:52:30Z</time>
      </trkpt>
      <trkpt lat="41.657814098" lon="2.524694920">
        <ele>379.38</ele>
        <time>2014-06-29T10:52:34Z</time>
      </trkpt>
      <trkpt lat="41.657904371" lon="2.524719898">
        <ele>380.82</ele>
        <time>2014-06-29T10:52:38Z</time>
      </trkpt>
      <trkpt lat="41.658020376" lon="2.524734901">
        <ele>381.78</ele>
        <time>2014-06-29T10:52:43Z</time>
      </trkpt>
      <trkpt lat="41.658288597" lon="2.524900528">
        <ele>381.78</ele>
        <time>2014-06-29T10:52:53Z</time>
      </trkpt>
      <trkpt lat="41.658402675" lon="2.525151733">
        <ele>382.74</ele>
        <time>2014-06-29T10:53:01Z</time>
      </trkpt>
      <trkpt lat="41.658442489" lon="2.525510563">
        <ele>383.22</ele>
        <time>2014-06-29T10:53:09Z</time>
      </trkpt>
      <trkpt lat="41.658443495" lon="2.525560519">
        <ele>383.22</ele>
        <time>2014-06-29T10:53:10Z</time>
      </trkpt>
      <trkpt lat="41.658450284" lon="2.525890347">
        <ele>383.22</ele>
        <time>2014-06-29T10:53:17Z</time>
      </trkpt>
      <trkpt lat="41.658421450" lon="2.526220929">
        <ele>383.22</ele>
        <time>2014-06-29T10:53:25Z</time>
      </trkpt>
      <trkpt lat="41.658385324" lon="2.526535250">
        <ele>383.70</ele>
        <time>2014-06-29T10:53:33Z</time>
      </trkpt>
      <trkpt lat="41.658363783" lon="2.526836412">
        <ele>386.11</ele>
        <time>2014-06-29T10:53:42Z</time>
      </trkpt>
      <trkpt lat="41.658295973" lon="2.527055934">
        <ele>388.51</ele>
        <time>2014-06-29T10:53:50Z</time>
      </trkpt>
      <trkpt lat="41.658180387" lon="2.527280569">
        <ele>388.99</ele>
        <time>2014-06-29T10:53:59Z</time>
      </trkpt>
      <trkpt lat="41.658087264" lon="2.527509060">
        <ele>390.91</ele>
        <time>2014-06-29T10:54:09Z</time>
      </trkpt>
      <trkpt lat="41.658057843" lon="2.527749369">
        <ele>394.28</ele>
        <time>2014-06-29T10:54:19Z</time>
      </trkpt>
      <trkpt lat="41.658106291" lon="2.527982386">
        <ele>396.20</ele>
        <time>2014-06-29T10:54:29Z</time>
      </trkpt>
      <trkpt lat="41.658115930" lon="2.528102415">
        <ele>398.12</ele>
        <time>2014-06-29T10:54:35Z</time>
      </trkpt>
      <trkpt lat="41.658067147" lon="2.528172236">
        <ele>398.60</ele>
        <time>2014-06-29T10:54:40Z</time>
      </trkpt>
      <trkpt lat="41.658023729" lon="2.528170057">
        <ele>399.08</ele>
        <time>2014-06-29T10:54:43Z</time>
      </trkpt>
      <trkpt lat="41.657927672" lon="2.528032845">
        <ele>401.01</ele>
        <time>2014-06-29T10:54:53Z</time>
      </trkpt>
      <trkpt lat="41.657806470" lon="2.527942907">
        <ele>401.97</ele>
        <time>2014-06-29T10:55:01Z</time>
      </trkpt>
      <trkpt lat="41.657768751" lon="2.527924216">
        <ele>402.45</ele>
        <time>2014-06-29T10:55:03Z</time>
      </trkpt>
      <trkpt lat="41.657674120" lon="2.527876187">
        <ele>402.93</ele>
        <time>2014-06-29T10:55:09Z</time>
      </trkpt>
      <trkpt lat="41.657524000" lon="2.527876523">
        <ele>403.41</ele>
        <time>2014-06-29T10:55:19Z</time>
      </trkpt>
      <trkpt lat="41.657391817" lon="2.527900243">
        <ele>403.89</ele>
        <time>2014-06-29T10:55:27Z</time>
      </trkpt>
      <trkpt lat="41.657252091" lon="2.527974004">
        <ele>404.37</ele>
        <time>2014-06-29T10:55:35Z</time>
      </trkpt>
      <trkpt lat="41.657091745" lon="2.528064612">
        <ele>404.37</ele>
        <time>2014-06-29T10:55:43Z</time>
      </trkpt>
      <trkpt lat="41.656963837" lon="2.528146420">
        <ele>404.85</ele>
        <time>2014-06-29T10:55:50Z</time>
      </trkpt>
      <trkpt lat="41.656783123" lon="2.528282374">
        <ele>404.85</ele>
        <time>2014-06-29T10:55:58Z</time>
      </trkpt>
      <trkpt lat="41.656659323" lon="2.528426794">
        <ele>405.33</ele>
        <time>2014-06-29T10:56:04Z</time>
      </trkpt>
      <trkpt lat="41.656624789" lon="2.528694261">
        <ele>406.29</ele>
        <time>2014-06-29T10:56:12Z</time>
      </trkpt>
      <trkpt lat="41.656573995" lon="2.528825941">
        <ele>407.26</ele>
        <time>2014-06-29T10:56:18Z</time>
      </trkpt>
      <trkpt lat="41.656458576" lon="2.528944209">
        <ele>409.18</ele>
        <time>2014-06-29T10:56:25Z</time>
      </trkpt>
      <trkpt lat="41.656307367" lon="2.529046804">
        <ele>410.62</ele>
        <time>2014-06-29T10:56:34Z</time>
      </trkpt>
      <trkpt lat="41.656186919" lon="2.529138837">
        <ele>413.02</ele>
        <time>2014-06-29T10:56:41Z</time>
      </trkpt>
      <trkpt lat="41.656083402" lon="2.529229613">
        <ele>413.98</ele>
        <time>2014-06-29T10:56:48Z</time>
      </trkpt>
      <trkpt lat="41.655939988" lon="2.529375123">
        <ele>416.87</ele>
        <time>2014-06-29T10:56:58Z</time>
      </trkpt>
      <trkpt lat="41.655797412" lon="2.529510910">
        <ele>418.31</ele>
        <time>2014-06-29T10:57:07Z</time>
      </trkpt>
      <trkpt lat="41.655707474" lon="2.529693216">
        <ele>419.27</ele>
        <time>2014-06-29T10:57:15Z</time>
      </trkpt>
      <trkpt lat="41.655611166" lon="2.529871918">
        <ele>419.75</ele>
        <time>2014-06-29T10:57:23Z</time>
      </trkpt>
      <trkpt lat="41.655495663" lon="2.530119604">
        <ele>420.23</ele>
        <time>2014-06-29T10:57:32Z</time>
      </trkpt>
      <trkpt lat="41.655424417" lon="2.530250864">
        <ele>420.23</ele>
        <time>2014-06-29T10:57:35Z</time>
      </trkpt>
      <trkpt lat="41.655343112" lon="2.530596702">
        <ele>418.31</ele>
        <time>2014-06-29T10:57:40Z</time>
      </trkpt>
      <trkpt lat="41.655341939" lon="2.530757299">
        <ele>417.83</ele>
        <time>2014-06-29T10:57:42Z</time>
      </trkpt>
      <trkpt lat="41.655247894" lon="2.531149488">
        <ele>417.35</ele>
        <time>2014-06-29T10:57:48Z</time>
      </trkpt>
      <trkpt lat="41.655253845" lon="2.531296171">
        <ele>417.35</ele>
        <time>2014-06-29T10:57:53Z</time>
      </trkpt>
      <trkpt lat="41.655275554" lon="2.531338835">
        <ele>418.79</ele>
        <time>2014-06-29T10:57:56Z</time>
      </trkpt>
      <trkpt lat="41.655309250" lon="2.531390133">
        <ele>419.27</ele>
        <time>2014-06-29T10:58:01Z</time>
      </trkpt>
      <trkpt lat="41.655320733" lon="2.531461714">
        <ele>419.27</ele>
        <time>2014-06-29T10:58:06Z</time>
      </trkpt>
      <trkpt lat="41.655433553" lon="2.531566823">
        <ele>419.27</ele>
        <time>2014-06-29T10:58:14Z</time>
      </trkpt>
      <trkpt lat="41.655564730" lon="2.531650055">
        <ele>419.27</ele>
        <time>2014-06-29T10:58:22Z</time>
      </trkpt>
      <trkpt lat="41.655730021" lon="2.531715267">
        <ele>419.27</ele>
        <time>2014-06-29T10:58:29Z</time>
      </trkpt>
      <trkpt lat="41.655911322" lon="2.531772263">
        <ele>419.27</ele>
        <time>2014-06-29T10:58:37Z</time>
      </trkpt>
      <trkpt lat="41.656064794" lon="2.531839151">
        <ele>419.75</ele>
        <time>2014-06-29T10:58:45Z</time>
      </trkpt>
      <trkpt lat="41.656211478" lon="2.531971753">
        <ele>420.71</ele>
        <time>2014-06-29T10:58:54Z</time>
      </trkpt>
      <trkpt lat="41.656314324" lon="2.532141738">
        <ele>421.68</ele>
        <time>2014-06-29T10:59:01Z</time>
      </trkpt>
      <trkpt lat="41.656391856" lon="2.532378443">
        <ele>422.16</ele>
        <time>2014-06-29T10:59:09Z</time>
      </trkpt>
      <trkpt lat="41.656455475" lon="2.532575250">
        <ele>424.08</ele>
        <time>2014-06-29T10:59:16Z</time>
      </trkpt>
      <trkpt lat="41.656567206" lon="2.532791838">
        <ele>426.00</ele>
        <time>2014-06-29T10:59:25Z</time>
      </trkpt>
      <trkpt lat="41.656682960" lon="2.533072716">
        <ele>427.44</ele>
        <time>2014-06-29T10:59:35Z</time>
      </trkpt>
      <trkpt lat="41.656682876" lon="2.533336243">
        <ele>429.37</ele>
        <time>2014-06-29T10:59:44Z</time>
      </trkpt>
      <trkpt lat="41.656682373" lon="2.533621395">
        <ele>429.85</ele>
        <time>2014-06-29T10:59:53Z</time>
      </trkpt>
      <trkpt lat="41.656766108" lon="2.533853574">
        <ele>430.33</ele>
        <time>2014-06-29T11:00:00Z</time>
      </trkpt>
      <trkpt lat="41.656937853" lon="2.534196729">
        <ele>430.33</ele>
        <time>2014-06-29T11:00:09Z</time>
      </trkpt>
      <trkpt lat="41.657082693" lon="2.534381298">
        <ele>430.33</ele>
        <time>2014-06-29T11:00:17Z</time>
      </trkpt>
      <trkpt lat="41.657231388" lon="2.534488168">
        <ele>431.29</ele>
        <time>2014-06-29T11:00:24Z</time>
      </trkpt>
      <trkpt lat="41.657377233" lon="2.534560755">
        <ele>432.73</ele>
        <time>2014-06-29T11:00:31Z</time>
      </trkpt>
      <trkpt lat="41.657523832" lon="2.534641221">
        <ele>434.65</ele>
        <time>2014-06-29T11:00:39Z</time>
      </trkpt>
      <trkpt lat="41.657631707" lon="2.534719424">
        <ele>436.58</ele>
        <time>2014-06-29T11:00:46Z</time>
      </trkpt>
      <trkpt lat="41.657736481" lon="2.534790671">
        <ele>438.98</ele>
        <time>2014-06-29T11:00:53Z</time>
      </trkpt>
      <trkpt lat="41.657862210" lon="2.534920171">
        <ele>441.86</ele>
        <time>2014-06-29T11:01:04Z</time>
      </trkpt>
      <trkpt lat="41.657962122" lon="2.535048582">
        <ele>443.31</ele>
        <time>2014-06-29T11:01:12Z</time>
      </trkpt>
      <trkpt lat="41.658026244" lon="2.535225021">
        <ele>444.27</ele>
        <time>2014-06-29T11:01:21Z</time>
      </trkpt>
      <trkpt lat="41.658053066" lon="2.535287634">
        <ele>444.75</ele>
        <time>2014-06-29T11:01:24Z</time>
      </trkpt>
      <trkpt lat="41.658136549" lon="2.535451584">
        <ele>444.75</ele>
        <time>2014-06-29T11:01:32Z</time>
      </trkpt>
      <trkpt lat="41.658218943" lon="2.535628190">
        <ele>445.23</ele>
        <time>2014-06-29T11:01:40Z</time>
      </trkpt>
      <trkpt lat="41.658315838" lon="2.535830865">
        <ele>446.67</ele>
        <time>2014-06-29T11:01:49Z</time>
      </trkpt>
      <trkpt lat="41.658427988" lon="2.535928849">
        <ele>447.63</ele>
        <time>2014-06-29T11:01:57Z</time>
      </trkpt>
      <trkpt lat="41.658587160" lon="2.536015937">
        <ele>449.55</ele>
        <time>2014-06-29T11:02:07Z</time>
      </trkpt>
      <trkpt lat="41.658677434" lon="2.536168236">
        <ele>451.48</ele>
        <time>2014-06-29T11:02:15Z</time>
      </trkpt>
      <trkpt lat="41.658738621" lon="2.536339646">
        <ele>453.88</ele>
        <time>2014-06-29T11:02:24Z</time>
      </trkpt>
      <trkpt lat="41.658777849" lon="2.536448527">
        <ele>455.80</ele>
        <time>2014-06-29T11:02:30Z</time>
      </trkpt>
      <trkpt lat="41.658800648" lon="2.536618093">
        <ele>457.24</ele>
        <time>2014-06-29T11:02:39Z</time>
      </trkpt>
      <trkpt lat="41.658846580" lon="2.536775421">
        <ele>458.69</ele>
        <time>2014-06-29T11:02:47Z</time>
      </trkpt>
      <trkpt lat="41.658883042" lon="2.536870891">
        <ele>459.65</ele>
        <time>2014-06-29T11:02:52Z</time>
      </trkpt>
      <trkpt lat="41.658901733" lon="2.536938282">
        <ele>459.65</ele>
        <time>2014-06-29T11:02:56Z</time>
      </trkpt>
      <trkpt lat="41.658932830" lon="2.537143638">
        <ele>460.13</ele>
        <time>2014-06-29T11:03:04Z</time>
      </trkpt>
      <trkpt lat="41.658956635" lon="2.537430802">
        <ele>460.13</ele>
        <time>2014-06-29T11:03:11Z</time>
      </trkpt>
      <trkpt lat="41.659003741" lon="2.537672704">
        <ele>460.61</ele>
        <time>2014-06-29T11:03:19Z</time>
      </trkpt>
      <trkpt lat="41.659069371" lon="2.537881497">
        <ele>462.05</ele>
        <time>2014-06-29T11:03:27Z</time>
      </trkpt>
      <trkpt lat="41.659161069" lon="2.538091380">
        <ele>463.01</ele>
        <time>2014-06-29T11:03:36Z</time>
      </trkpt>
      <trkpt lat="41.659255114" lon="2.538290534">
        <ele>463.49</ele>
        <time>2014-06-29T11:03:44Z</time>
      </trkpt>
      <trkpt lat="41.659364331" lon="2.538521540">
        <ele>463.97</ele>
        <time>2014-06-29T11:03:53Z</time>
      </trkpt>
      <trkpt lat="41.659466338" lon="2.538741229">
        <ele>464.45</ele>
        <time>2014-06-29T11:04:02Z</time>
      </trkpt>
      <trkpt lat="41.659571531" lon="2.538958991">
        <ele>464.93</ele>
        <time>2014-06-29T11:04:11Z</time>
      </trkpt>
      <trkpt lat="41.659700948" lon="2.539191924">
        <ele>466.38</ele>
        <time>2014-06-29T11:04:21Z</time>
      </trkpt>
      <trkpt lat="41.659783426" lon="2.539363334">
        <ele>468.30</ele>
        <time>2014-06-29T11:04:29Z</time>
      </trkpt>
      <trkpt lat="41.659860539" lon="2.539587299">
        <ele>471.18</ele>
        <time>2014-06-29T11:04:39Z</time>
      </trkpt>
      <trkpt lat="41.659944107" lon="2.539800031">
        <ele>472.63</ele>
        <time>2014-06-29T11:04:49Z</time>
      </trkpt>
      <trkpt lat="41.660064722" lon="2.539934812">
        <ele>473.59</ele>
        <time>2014-06-29T11:04:58Z</time>
      </trkpt>
      <trkpt lat="41.660204197" lon="2.539983930">
        <ele>474.07</ele>
        <time>2014-06-29T11:05:05Z</time>
      </trkpt>
      <trkpt lat="41.660463869" lon="2.540041682">
        <ele>475.51</ele>
        <time>2014-06-29T11:05:16Z</time>
      </trkpt>
      <trkpt lat="41.660692192" lon="2.540123489">
        <ele>476.47</ele>
        <time>2014-06-29T11:05:26Z</time>
      </trkpt>
      <trkpt lat="41.660931495" lon="2.540188532">
        <ele>476.47</ele>
        <time>2014-06-29T11:05:33Z</time>
      </trkpt>
      <trkpt lat="41.661144060" lon="2.540253408">
        <ele>476.47</ele>
        <time>2014-06-29T11:05:39Z</time>
      </trkpt>
      <trkpt lat="41.661343717" lon="2.540400008">
        <ele>476.47</ele>
        <time>2014-06-29T11:05:46Z</time>
      </trkpt>
      <trkpt lat="41.661385794" lon="2.540626319">
        <ele>476.95</ele>
        <time>2014-06-29T11:05:51Z</time>
      </trkpt>
      <trkpt lat="41.661398199" lon="2.540904431">
        <ele>476.95</ele>
        <time>2014-06-29T11:05:57Z</time>
      </trkpt>
      <trkpt lat="41.661398870" lon="2.541245742">
        <ele>474.07</ele>
        <time>2014-06-29T11:06:02Z</time>
      </trkpt>
      <trkpt lat="41.661358637" lon="2.541551765">
        <ele>473.11</ele>
        <time>2014-06-29T11:06:05Z</time>
      </trkpt>
      <trkpt lat="41.661370036" lon="2.541911936">
        <ele>471.18</ele>
        <time>2014-06-29T11:06:08Z</time>
      </trkpt>
      <trkpt lat="41.661425189" lon="2.542428512">
        <ele>470.70</ele>
        <time>2014-06-29T11:06:13Z</time>
      </trkpt>
      <trkpt lat="41.661433571" lon="2.542651722">
        <ele>471.18</ele>
        <time>2014-06-29T11:06:17Z</time>
      </trkpt>
      <trkpt lat="41.661380597" lon="2.542767309">
        <ele>472.63</ele>
        <time>2014-06-29T11:06:21Z</time>
      </trkpt>
      <trkpt lat="41.661245146" lon="2.542869233">
        <ele>475.03</ele>
        <time>2014-06-29T11:06:29Z</time>
      </trkpt>
      <trkpt lat="41.661126290" lon="2.542956321">
        <ele>476.47</ele>
        <time>2014-06-29T11:06:36Z</time>
      </trkpt>
      <trkpt lat="41.661003076" lon="2.543067632">
        <ele>478.39</ele>
        <time>2014-06-29T11:06:44Z</time>
      </trkpt>
      <trkpt lat="41.660906768" lon="2.543232421">
        <ele>480.32</ele>
        <time>2014-06-29T11:06:52Z</time>
      </trkpt>
      <trkpt lat="41.660891010" lon="2.543379188">
        <ele>481.76</ele>
        <time>2014-06-29T11:06:59Z</time>
      </trkpt>
      <trkpt lat="41.660984385" lon="2.543515310">
        <ele>483.20</ele>
        <time>2014-06-29T11:07:08Z</time>
      </trkpt>
      <trkpt lat="41.661123608" lon="2.543728294">
        <ele>483.68</ele>
        <time>2014-06-29T11:07:18Z</time>
      </trkpt>
      <trkpt lat="41.661226287" lon="2.543977153">
        <ele>484.16</ele>
        <time>2014-06-29T11:07:24Z</time>
      </trkpt>
      <trkpt lat="41.661252857" lon="2.544034988">
        <ele>483.68</ele>
        <time>2014-06-29T11:07:25Z</time>
      </trkpt>
      <trkpt lat="41.661261071" lon="2.544285607">
        <ele>481.28</ele>
        <time>2014-06-29T11:07:29Z</time>
      </trkpt>
      <trkpt lat="41.661167026" lon="2.544515439">
        <ele>478.87</ele>
        <time>2014-06-29T11:07:32Z</time>
      </trkpt>
      <trkpt lat="41.660990084" lon="2.544671174">
        <ele>477.91</ele>
        <time>2014-06-29T11:07:36Z</time>
      </trkpt>
      <trkpt lat="41.660828230" lon="2.544574866">
        <ele>477.91</ele>
        <time>2014-06-29T11:07:40Z</time>
      </trkpt>
      <trkpt lat="41.660665705" lon="2.544585679">
        <ele>477.91</ele>
        <time>2014-06-29T11:07:44Z</time>
      </trkpt>
      <trkpt lat="41.660419025" lon="2.544772344">
        <ele>477.91</ele>
        <time>2014-06-29T11:07:52Z</time>
      </trkpt>
      <trkpt lat="41.660368566" lon="2.544822132">
        <ele>478.87</ele>
        <time>2014-06-29T11:07:54Z</time>
      </trkpt>
      <trkpt lat="41.660212747" lon="2.544962613">
        <ele>480.32</ele>
        <time>2014-06-29T11:08:01Z</time>
      </trkpt>
      <trkpt lat="41.660046031" lon="2.545025980">
        <ele>481.76</ele>
        <time>2014-06-29T11:08:08Z</time>
      </trkpt>
      <trkpt lat="41.659842686" lon="2.545035787">
        <ele>484.16</ele>
        <time>2014-06-29T11:08:16Z</time>
      </trkpt>
      <trkpt lat="41.659737828" lon="2.545093371">
        <ele>484.64</ele>
        <time>2014-06-29T11:08:22Z</time>
      </trkpt>
      <trkpt lat="41.659556528" lon="2.545172077">
        <ele>484.64</ele>
        <time>2014-06-29T11:08:29Z</time>
      </trkpt>
      <trkpt lat="41.659416466" lon="2.545210550">
        <ele>484.64</ele>
        <time>2014-06-29T11:08:32Z</time>
      </trkpt>
      <trkpt lat="41.659301382" lon="2.545235863">
        <ele>483.20</ele>
        <time>2014-06-29T11:08:34Z</time>
      </trkpt>
      <trkpt lat="41.659176911" lon="2.545280203">
        <ele>482.72</ele>
        <time>2014-06-29T11:08:36Z</time>
      </trkpt>
      <trkpt lat="41.658921012" lon="2.545554627">
        <ele>481.28</ele>
        <time>2014-06-29T11:08:41Z</time>
      </trkpt>
      <trkpt lat="41.658875414" lon="2.545621095">
        <ele>481.28</ele>
        <time>2014-06-29T11:08:42Z</time>
      </trkpt>
      <trkpt lat="41.658656060" lon="2.545823937">
        <ele>480.32</ele>
        <time>2014-06-29T11:08:47Z</time>
      </trkpt>
      <trkpt lat="41.658620772" lon="2.545819495">
        <ele>480.32</ele>
        <time>2014-06-29T11:08:48Z</time>
      </trkpt>
      <trkpt lat="41.658484147" lon="2.545783369">
        <ele>481.76</ele>
        <time>2014-06-29T11:08:52Z</time>
      </trkpt>
      <trkpt lat="41.658254064" lon="2.545691000">
        <ele>484.64</ele>
        <time>2014-06-29T11:09:00Z</time>
      </trkpt>
      <trkpt lat="41.658014760" lon="2.545465276">
        <ele>485.12</ele>
        <time>2014-06-29T11:09:09Z</time>
      </trkpt>
      <trkpt lat="41.657854331" lon="2.545394784">
        <ele>483.68</ele>
        <time>2014-06-29T11:09:12Z</time>
      </trkpt>
      <trkpt lat="41.657737319" lon="2.545449434">
        <ele>482.72</ele>
        <time>2014-06-29T11:09:14Z</time>
      </trkpt>
      <trkpt lat="41.657393829" lon="2.545649845">
        <ele>484.16</ele>
        <time>2014-06-29T11:09:23Z</time>
      </trkpt>
      <trkpt lat="41.657135331" lon="2.545711536">
        <ele>485.12</ele>
        <time>2014-06-29T11:09:31Z</time>
      </trkpt>
      <trkpt lat="41.656988564" lon="2.545739532">
        <ele>485.12</ele>
        <time>2014-06-29T11:09:38Z</time>
      </trkpt>
      <trkpt lat="41.656983954" lon="2.545739783">
        <ele>485.12</ele>
        <time>2014-06-29T11:09:43Z</time>
      </trkpt>
      <trkpt lat="41.656906421" lon="2.545713212">
        <ele>485.12</ele>
        <time>2014-06-29T11:09:47Z</time>
      </trkpt>
      <trkpt lat="41.656623532" lon="2.545650013">
        <ele>485.12</ele>
        <time>2014-06-29T11:09:55Z</time>
      </trkpt>
      <trkpt lat="41.656451452" lon="2.545637859">
        <ele>484.16</ele>
        <time>2014-06-29T11:10:01Z</time>
      </trkpt>
      <trkpt lat="41.656268475" lon="2.545671638">
        <ele>484.16</ele>
        <time>2014-06-29T11:10:08Z</time>
      </trkpt>
      <trkpt lat="41.656096562" lon="2.545710949">
        <ele>483.68</ele>
        <time>2014-06-29T11:10:14Z</time>
      </trkpt>
      <trkpt lat="41.655987094" lon="2.545686474">
        <ele>483.20</ele>
        <time>2014-06-29T11:10:17Z</time>
      </trkpt>
      <trkpt lat="41.655728680" lon="2.545493271">
        <ele>479.84</ele>
        <time>2014-06-29T11:10:22Z</time>
      </trkpt>
      <trkpt lat="41.655679227" lon="2.545445494">
        <ele>478.87</ele>
        <time>2014-06-29T11:10:23Z</time>
      </trkpt>
      <trkpt lat="41.655523994" lon="2.545150116">
        <ele>475.03</ele>
        <time>2014-06-29T11:10:28Z</time>
      </trkpt>
      <trkpt lat="41.655329031" lon="2.545040984">
        <ele>473.11</ele>
        <time>2014-06-29T11:10:33Z</time>
      </trkpt>
      <trkpt lat="41.655284439" lon="2.545052299">
        <ele>473.11</ele>
        <time>2014-06-29T11:10:34Z</time>
      </trkpt>
      <trkpt lat="41.655242362" lon="2.545074260">
        <ele>472.63</ele>
        <time>2014-06-29T11:10:35Z</time>
      </trkpt>
      <trkpt lat="41.655152173" lon="2.545118768">
        <ele>472.14</ele>
        <time>2014-06-29T11:10:37Z</time>
      </trkpt>
      <trkpt lat="41.654901219" lon="2.545143327">
        <ele>467.82</ele>
        <time>2014-06-29T11:10:42Z</time>
      </trkpt>
      <trkpt lat="41.654650600" lon="2.545080966">
        <ele>463.49</ele>
        <time>2014-06-29T11:10:47Z</time>
      </trkpt>
      <trkpt lat="41.654477178" lon="2.545009971">
        <ele>459.65</ele>
        <time>2014-06-29T11:10:50Z</time>
      </trkpt>
      <trkpt lat="41.654316665" lon="2.544926487">
        <ele>456.76</ele>
        <time>2014-06-29T11:10:53Z</time>
      </trkpt>
      <trkpt lat="41.654139974" lon="2.544812158">
        <ele>452.92</ele>
        <time>2014-06-29T11:10:57Z</time>
      </trkpt>
      <trkpt lat="41.654001673" lon="2.544738062">
        <ele>449.55</ele>
        <time>2014-06-29T11:11:00Z</time>
      </trkpt>
      <trkpt lat="41.653853564" lon="2.544670420">
        <ele>446.19</ele>
        <time>2014-06-29T11:11:03Z</time>
      </trkpt>
      <trkpt lat="41.653686848" lon="2.544602443">
        <ele>442.82</ele>
        <time>2014-06-29T11:11:07Z</time>
      </trkpt>
      <trkpt lat="41.653567071" lon="2.544484006">
        <ele>440.42</ele>
        <time>2014-06-29T11:11:13Z</time>
      </trkpt>
      <trkpt lat="41.653482330" lon="2.544439415">
        <ele>439.46</ele>
        <time>2014-06-29T11:11:17Z</time>
      </trkpt>
      <trkpt lat="41.653338077" lon="2.544330282">
        <ele>437.54</ele>
        <time>2014-06-29T11:11:23Z</time>
      </trkpt>
      <trkpt lat="41.653175552" lon="2.544328354">
        <ele>435.13</ele>
        <time>2014-06-29T11:11:28Z</time>
      </trkpt>
      <trkpt lat="41.653141606" lon="2.544337575">
        <ele>435.13</ele>
        <time>2014-06-29T11:11:29Z</time>
      </trkpt>
      <trkpt lat="41.652999700" lon="2.544390464">
        <ele>432.73</ele>
        <time>2014-06-29T11:11:33Z</time>
      </trkpt>
      <trkpt lat="41.652721337" lon="2.544394236">
        <ele>430.33</ele>
        <time>2014-06-29T11:11:39Z</time>
      </trkpt>
      <trkpt lat="41.652455044" lon="2.544399684">
        <ele>427.92</ele>
        <time>2014-06-29T11:11:44Z</time>
      </trkpt>
      <trkpt lat="41.652117672" lon="2.544510745">
        <ele>426.48</ele>
        <time>2014-06-29T11:11:51Z</time>
      </trkpt>
      <trkpt lat="41.652015497" lon="2.544568915">
        <ele>425.04</ele>
        <time>2014-06-29T11:11:53Z</time>
      </trkpt>
      <trkpt lat="41.651814834" lon="2.544743929">
        <ele>421.19</ele>
        <time>2014-06-29T11:11:57Z</time>
      </trkpt>
      <trkpt lat="41.651716263" lon="2.544843255">
        <ele>419.27</ele>
        <time>2014-06-29T11:11:59Z</time>
      </trkpt>
      <trkpt lat="41.651533621" lon="2.544929002">
        <ele>417.35</ele>
        <time>2014-06-29T11:12:03Z</time>
      </trkpt>
      <trkpt lat="41.651428596" lon="2.544896145">
        <ele>415.91</ele>
        <time>2014-06-29T11:12:05Z</time>
      </trkpt>
      <trkpt lat="41.651270094" lon="2.544895306">
        <ele>414.47</ele>
        <time>2014-06-29T11:12:08Z</time>
      </trkpt>
      <trkpt lat="41.651218462" lon="2.544921877">
        <ele>413.98</ele>
        <time>2014-06-29T11:12:09Z</time>
      </trkpt>
      <trkpt lat="41.650890729" lon="2.544971749">
        <ele>410.14</ele>
        <time>2014-06-29T11:12:15Z</time>
      </trkpt>
      <trkpt lat="41.650806156" lon="2.544884661">
        <ele>409.66</ele>
        <time>2014-06-29T11:12:17Z</time>
      </trkpt>
      <trkpt lat="41.650705489" lon="2.544774356">
        <ele>408.22</ele>
        <time>2014-06-29T11:12:19Z</time>
      </trkpt>
      <trkpt lat="41.650462246" lon="2.544629516">
        <ele>406.29</ele>
        <time>2014-06-29T11:12:23Z</time>
      </trkpt>
      <trkpt lat="41.650253621" lon="2.544595989">
        <ele>405.33</ele>
        <time>2014-06-29T11:12:26Z</time>
      </trkpt>
      <trkpt lat="41.649987076" lon="2.544663547">
        <ele>403.41</ele>
        <time>2014-06-29T11:12:30Z</time>
      </trkpt>
      <trkpt lat="41.649707456" lon="2.544655752">
        <ele>400.05</ele>
        <time>2014-06-29T11:12:35Z</time>
      </trkpt>
      <trkpt lat="41.649624140" lon="2.544546032">
        <ele>399.57</ele>
        <time>2014-06-29T11:12:37Z</time>
      </trkpt>
      <trkpt lat="41.649507129" lon="2.544350902">
        <ele>398.60</ele>
        <time>2014-06-29T11:12:40Z</time>
      </trkpt>
      <trkpt lat="41.649436134" lon="2.543961814">
        <ele>397.16</ele>
        <time>2014-06-29T11:12:45Z</time>
      </trkpt>
      <trkpt lat="41.649294564" lon="2.543132424">
        <ele>393.80</ele>
        <time>2014-06-29T11:12:53Z</time>
      </trkpt>
      <trkpt lat="41.649110162" lon="2.542624397">
        <ele>390.91</ele>
        <time>2014-06-29T11:12:58Z</time>
      </trkpt>
      <trkpt lat="41.649085435" lon="2.542540075">
        <ele>390.91</ele>
        <time>2014-06-29T11:12:59Z</time>
      </trkpt>
      <trkpt lat="41.649031791" lon="2.542280153">
        <ele>389.95</ele>
        <time>2014-06-29T11:13:02Z</time>
      </trkpt>
      <trkpt lat="41.649011255" lon="2.541807413">
        <ele>389.47</ele>
        <time>2014-06-29T11:13:07Z</time>
      </trkpt>
      <trkpt lat="41.648814951" lon="2.541498205">
        <ele>387.55</ele>
        <time>2014-06-29T11:13:11Z</time>
      </trkpt>
      <trkpt lat="41.648595345" lon="2.541388486">
        <ele>386.11</ele>
        <time>2014-06-29T11:13:14Z</time>
      </trkpt>
      <trkpt lat="41.648433491" lon="2.541363424">
        <ele>385.15</ele>
        <time>2014-06-29T11:13:16Z</time>
      </trkpt>
      <trkpt lat="41.648192427" lon="2.541288154">
        <ele>383.70</ele>
        <time>2014-06-29T11:13:19Z</time>
      </trkpt>
      <trkpt lat="41.647985478" lon="2.541232834">
        <ele>382.26</ele>
        <time>2014-06-29T11:13:22Z</time>
      </trkpt>
      <trkpt lat="41.647737541" lon="2.541057903">
        <ele>378.42</ele>
        <time>2014-06-29T11:13:27Z</time>
      </trkpt>
      <trkpt lat="41.647615920" lon="2.540943071">
        <ele>376.49</ele>
        <time>2014-06-29T11:13:30Z</time>
      </trkpt>
      <trkpt lat="41.647432105" lon="2.540787922">
        <ele>373.13</ele>
        <time>2014-06-29T11:13:34Z</time>
      </trkpt>
      <trkpt lat="41.647059026" lon="2.540736122">
        <ele>369.76</ele>
        <time>2014-06-29T11:13:40Z</time>
      </trkpt>
      <trkpt lat="41.646684271" lon="2.540794796">
        <ele>366.88</ele>
        <time>2014-06-29T11:13:46Z</time>
      </trkpt>
      <trkpt lat="41.646398784" lon="2.540722963">
        <ele>362.55</ele>
        <time>2014-06-29T11:13:51Z</time>
      </trkpt>
      <trkpt lat="41.646205916" lon="2.540637300">
        <ele>358.71</ele>
        <time>2014-06-29T11:13:54Z</time>
      </trkpt>
      <trkpt lat="41.646148500" lon="2.540611232">
        <ele>357.27</ele>
        <time>2014-06-29T11:13:55Z</time>
      </trkpt>
      <trkpt lat="41.645949011" lon="2.540408641">
        <ele>353.90</ele>
        <time>2014-06-29T11:13:59Z</time>
      </trkpt>
      <trkpt lat="41.645847590" lon="2.540303951">
        <ele>353.42</ele>
        <time>2014-06-29T11:14:01Z</time>
      </trkpt>
      <trkpt lat="41.645711048" lon="2.540232537">
        <ele>351.02</ele>
        <time>2014-06-29T11:14:04Z</time>
      </trkpt>
      <trkpt lat="41.645428495" lon="2.540145449">
        <ele>350.06</ele>
        <time>2014-06-29T11:14:11Z</time>
      </trkpt>
      <trkpt lat="41.645289606" lon="2.540121645">
        <ele>351.98</ele>
        <time>2014-06-29T11:14:17Z</time>
      </trkpt>
      <trkpt lat="41.645123561" lon="2.540059200">
        <ele>353.42</ele>
        <time>2014-06-29T11:14:25Z</time>
      </trkpt>
      <trkpt lat="41.644937315" lon="2.539978231">
        <ele>355.34</ele>
        <time>2014-06-29T11:14:35Z</time>
      </trkpt>
      <trkpt lat="41.644785938" lon="2.539893657">
        <ele>356.79</ele>
        <time>2014-06-29T11:14:43Z</time>
      </trkpt>
      <trkpt lat="41.644662640" lon="2.539870355">
        <ele>358.23</ele>
        <time>2014-06-29T11:14:50Z</time>
      </trkpt>
      <trkpt lat="41.644609834" lon="2.539920312">
        <ele>359.19</ele>
        <time>2014-06-29T11:14:54Z</time>
      </trkpt>
      <trkpt lat="41.644558788" lon="2.540070515">
        <ele>360.15</ele>
        <time>2014-06-29T11:15:02Z</time>
      </trkpt>
      <trkpt lat="41.644555603" lon="2.540090548">
        <ele>360.15</ele>
        <time>2014-06-29T11:15:03Z</time>
      </trkpt>
      <trkpt lat="41.644507910" lon="2.540302610">
        <ele>362.55</ele>
        <time>2014-06-29T11:15:14Z</time>
      </trkpt>
      <trkpt lat="41.644492404" lon="2.540356841">
        <ele>363.52</ele>
        <time>2014-06-29T11:15:17Z</time>
      </trkpt>
      <trkpt lat="41.644454685" lon="2.540407719">
        <ele>364.00</ele>
        <time>2014-06-29T11:15:21Z</time>
      </trkpt>
      <trkpt lat="41.644343122" lon="2.540471003">
        <ele>365.92</ele>
        <time>2014-06-29T11:15:30Z</time>
      </trkpt>
      <trkpt lat="41.644291154" lon="2.540424399">
        <ele>366.40</ele>
        <time>2014-06-29T11:15:35Z</time>
      </trkpt>
      <trkpt lat="41.644282688" lon="2.540393721">
        <ele>367.36</ele>
        <time>2014-06-29T11:15:37Z</time>
      </trkpt>
      <trkpt lat="41.644277492" lon="2.540282997">
        <ele>368.80</ele>
        <time>2014-06-29T11:15:44Z</time>
      </trkpt>
      <trkpt lat="41.644213202" lon="2.540115526">
        <ele>370.24</ele>
        <time>2014-06-29T11:15:54Z</time>
      </trkpt>
      <trkpt lat="41.644135586" lon="2.540010333">
        <ele>371.69</ele>
        <time>2014-06-29T11:16:02Z</time>
      </trkpt>
      <trkpt lat="41.644063418" lon="2.539919138">
        <ele>372.65</ele>
        <time>2014-06-29T11:16:10Z</time>
      </trkpt>
      <trkpt lat="41.643978341" lon="2.539832134">
        <ele>374.57</ele>
        <time>2014-06-29T11:16:18Z</time>
      </trkpt>
      <trkpt lat="41.643907766" lon="2.539737418">
        <ele>375.05</ele>
        <time>2014-06-29T11:16:25Z</time>
      </trkpt>
      <trkpt lat="41.643866443" lon="2.539689139">
        <ele>375.53</ele>
        <time>2014-06-29T11:16:29Z</time>
      </trkpt>
      <trkpt lat="41.643798717" lon="2.539623927">
        <ele>376.97</ele>
        <time>2014-06-29T11:16:35Z</time>
      </trkpt>
      <trkpt lat="41.643751695" lon="2.539595429">
        <ele>376.97</ele>
        <time>2014-06-29T11:16:39Z</time>
      </trkpt>
      <trkpt lat="41.643645077" lon="2.539534325">
        <ele>377.94</ele>
        <time>2014-06-29T11:16:48Z</time>
      </trkpt>
      <trkpt lat="41.643536280" lon="2.539487805">
        <ele>379.38</ele>
        <time>2014-06-29T11:16:57Z</time>
      </trkpt>
      <trkpt lat="41.643453467" lon="2.539453104">
        <ele>380.82</ele>
        <time>2014-06-29T11:17:04Z</time>
      </trkpt>
      <trkpt lat="41.643399320" lon="2.539396526">
        <ele>381.30</ele>
        <time>2014-06-29T11:17:09Z</time>
      </trkpt>
      <trkpt lat="41.643378784" lon="2.539373476">
        <ele>381.78</ele>
        <time>2014-06-29T11:17:11Z</time>
      </trkpt>
      <trkpt lat="41.643354476" lon="2.539314216">
        <ele>382.74</ele>
        <time>2014-06-29T11:17:15Z</time>
      </trkpt>
      <trkpt lat="41.643301587" lon="2.539235594">
        <ele>383.70</ele>
        <time>2014-06-29T11:17:21Z</time>
      </trkpt>
      <trkpt lat="41.643247272" lon="2.539168622">
        <ele>384.18</ele>
        <time>2014-06-29T11:17:26Z</time>
      </trkpt>
      <trkpt lat="41.643119196" lon="2.539084301">
        <ele>385.63</ele>
        <time>2014-06-29T11:17:36Z</time>
      </trkpt>
      <trkpt lat="41.643010567" lon="2.539040379">
        <ele>386.59</ele>
        <time>2014-06-29T11:17:44Z</time>
      </trkpt>
      <trkpt lat="41.642860782" lon="2.538941641">
        <ele>387.55</ele>
        <time>2014-06-29T11:17:55Z</time>
      </trkpt>
      <trkpt lat="41.642745112" lon="2.538842315">
        <ele>388.51</ele>
        <time>2014-06-29T11:18:02Z</time>
      </trkpt>
      <trkpt lat="41.642627598" lon="2.538744917">
        <ele>388.99</ele>
        <time>2014-06-29T11:18:10Z</time>
      </trkpt>
      <trkpt lat="41.642494912" lon="2.538598821">
        <ele>389.47</ele>
        <time>2014-06-29T11:18:19Z</time>
      </trkpt>
      <trkpt lat="41.642320569" lon="2.538547356">
        <ele>389.47</ele>
        <time>2014-06-29T11:18:24Z</time>
      </trkpt>
      <trkpt lat="41.642228619" lon="2.538550289">
        <ele>389.47</ele>
        <time>2014-06-29T11:18:26Z</time>
      </trkpt>
      <trkpt lat="41.642130216" lon="2.538538555">
        <ele>388.03</ele>
        <time>2014-06-29T11:18:28Z</time>
      </trkpt>
      <trkpt lat="41.641900384" lon="2.538422046">
        <ele>387.55</ele>
        <time>2014-06-29T11:18:33Z</time>
      </trkpt>
      <trkpt lat="41.641715814" lon="2.538190454">
        <ele>387.55</ele>
        <time>2014-06-29T11:18:40Z</time>
      </trkpt>
      <trkpt lat="41.641637192" lon="2.537996832">
        <ele>388.99</ele>
        <time>2014-06-29T11:18:45Z</time>
      </trkpt>
      <trkpt lat="41.641626044" lon="2.537944948">
        <ele>388.99</ele>
        <time>2014-06-29T11:18:46Z</time>
      </trkpt>
      <trkpt lat="41.641603078" lon="2.537692234">
        <ele>388.03</ele>
        <time>2014-06-29T11:18:50Z</time>
      </trkpt>
      <trkpt lat="41.641589918" lon="2.537550915">
        <ele>388.03</ele>
        <time>2014-06-29T11:18:52Z</time>
      </trkpt>
      <trkpt lat="41.641635767" lon="2.537137268">
        <ele>387.07</ele>
        <time>2014-06-29T11:18:58Z</time>
      </trkpt>
      <trkpt lat="41.641561587" lon="2.536870975">
        <ele>387.07</ele>
        <time>2014-06-29T11:19:03Z</time>
      </trkpt>
      <trkpt lat="41.641526132" lon="2.536815319">
        <ele>387.07</ele>
        <time>2014-06-29T11:19:04Z</time>
      </trkpt>
      <trkpt lat="41.641345334" lon="2.536370576">
        <ele>384.18</ele>
        <time>2014-06-29T11:19:10Z</time>
      </trkpt>
      <trkpt lat="41.641200663" lon="2.535868835">
        <ele>380.82</ele>
        <time>2014-06-29T11:19:15Z</time>
      </trkpt>
      <trkpt lat="41.641161603" lon="2.535764899">
        <ele>380.82</ele>
        <time>2014-06-29T11:19:16Z</time>
      </trkpt>
      <trkpt lat="41.641085998" lon="2.535566667">
        <ele>379.38</ele>
        <time>2014-06-29T11:19:18Z</time>
      </trkpt>
      <trkpt lat="41.640998659" lon="2.535426103">
        <ele>378.42</ele>
        <time>2014-06-29T11:19:20Z</time>
      </trkpt>
      <trkpt lat="41.640863626" lon="2.535309594">
        <ele>378.42</ele>
        <time>2014-06-29T11:19:23Z</time>
      </trkpt>
      <trkpt lat="41.640659443" lon="2.535196355">
        <ele>378.42</ele>
        <time>2014-06-29T11:19:28Z</time>
      </trkpt>
      <trkpt lat="41.640270942" lon="2.535244048">
        <ele>377.94</ele>
        <time>2014-06-29T11:19:35Z</time>
      </trkpt>
      <trkpt lat="41.640023760" lon="2.535131395">
        <ele>376.49</ele>
        <time>2014-06-29T11:19:40Z</time>
      </trkpt>
      <trkpt lat="41.639917561" lon="2.535056042">
        <ele>375.53</ele>
        <time>2014-06-29T11:19:42Z</time>
      </trkpt>
      <trkpt lat="41.639613298" lon="2.534967194">
        <ele>373.61</ele>
        <time>2014-06-29T11:19:47Z</time>
      </trkpt>
      <trkpt lat="41.639403331" lon="2.534959398">
        <ele>372.17</ele>
        <time>2014-06-29T11:19:50Z</time>
      </trkpt>
      <trkpt lat="41.639139301" lon="2.534928301">
        <ele>369.28</ele>
        <time>2014-06-29T11:19:54Z</time>
      </trkpt>
      <trkpt lat="41.638874517" lon="2.534834173">
        <ele>368.80</ele>
        <time>2014-06-29T11:19:58Z</time>
      </trkpt>
      <trkpt lat="41.638464726" lon="2.534601072">
        <ele>368.32</ele>
        <time>2014-06-29T11:20:06Z</time>
      </trkpt>
      <trkpt lat="41.638193990" lon="2.534666954">
        <ele>368.32</ele>
        <time>2014-06-29T11:20:12Z</time>
      </trkpt>
      <trkpt lat="41.638158283" lon="2.534701320">
        <ele>368.32</ele>
        <time>2014-06-29T11:20:13Z</time>
      </trkpt>
      <trkpt lat="41.637961225" lon="2.534887817">
        <ele>369.76</ele>
        <time>2014-06-29T11:20:19Z</time>
      </trkpt>
      <trkpt lat="41.637901713" lon="2.534928888">
        <ele>370.24</ele>
        <time>2014-06-29T11:20:21Z</time>
      </trkpt>
      <trkpt lat="41.637804315" lon="2.534888990">
        <ele>371.21</ele>
        <time>2014-06-29T11:20:25Z</time>
      </trkpt>
      <trkpt lat="41.637668529" lon="2.534700481">
        <ele>371.69</ele>
        <time>2014-06-29T11:20:31Z</time>
      </trkpt>
      <trkpt lat="41.637498795" lon="2.534576345">
        <ele>373.13</ele>
        <time>2014-06-29T11:20:37Z</time>
      </trkpt>
      <trkpt lat="41.637211380" lon="2.534473835">
        <ele>374.57</ele>
        <time>2014-06-29T11:20:45Z</time>
      </trkpt>
      <trkpt lat="41.637002838" lon="2.534319105">
        <ele>375.05</ele>
        <time>2014-06-29T11:20:52Z</time>
      </trkpt>
      <trkpt lat="41.636795637" lon="2.534213577">
        <ele>376.01</ele>
        <time>2014-06-29T11:21:00Z</time>
      </trkpt>
      <trkpt lat="41.636600004" lon="2.534137637">
        <ele>376.97</ele>
        <time>2014-06-29T11:21:07Z</time>
      </trkpt>
      <trkpt lat="41.636560776" lon="2.534077957">
        <ele>376.97</ele>
        <time>2014-06-29T11:21:09Z</time>
      </trkpt>
      <trkpt lat="41.636647864" lon="2.533836391">
        <ele>377.45</ele>
        <time>2014-06-29T11:21:16Z</time>
      </trkpt>
      <trkpt lat="41.636677369" lon="2.533724493">
        <ele>377.45</ele>
        <time>2014-06-29T11:21:19Z</time>
      </trkpt>
      <trkpt lat="41.636725984" lon="2.533375638">
        <ele>377.45</ele>
        <time>2014-06-29T11:21:27Z</time>
      </trkpt>
      <trkpt lat="41.636642667" lon="2.533119068">
        <ele>377.45</ele>
        <time>2014-06-29T11:21:33Z</time>
      </trkpt>
      <trkpt lat="41.636466731" lon="2.532955788">
        <ele>377.45</ele>
        <time>2014-06-29T11:21:39Z</time>
      </trkpt>
      <trkpt lat="41.636421553" lon="2.532890912">
        <ele>377.45</ele>
        <time>2014-06-29T11:21:41Z</time>
      </trkpt>
      <trkpt lat="41.636488105" lon="2.532593355">
        <ele>377.45</ele>
        <time>2014-06-29T11:21:48Z</time>
      </trkpt>
      <trkpt lat="41.636548203" lon="2.532266796">
        <ele>377.94</ele>
        <time>2014-06-29T11:21:56Z</time>
      </trkpt>
      <trkpt lat="41.636433287" lon="2.531961024">
        <ele>377.94</ele>
        <time>2014-06-29T11:22:03Z</time>
      </trkpt>
      <trkpt lat="41.636355839" lon="2.531667071">
        <ele>377.94</ele>
        <time>2014-06-29T11:22:09Z</time>
      </trkpt>
      <trkpt lat="41.636353492" lon="2.531248981">
        <ele>377.94</ele>
        <time>2014-06-29T11:22:17Z</time>
      </trkpt>
      <trkpt lat="41.636292472" lon="2.530992160">
        <ele>377.94</ele>
        <time>2014-06-29T11:22:22Z</time>
      </trkpt>
      <trkpt lat="41.636155930" lon="2.530919740">
        <ele>378.42</ele>
        <time>2014-06-29T11:22:26Z</time>
      </trkpt>
      <trkpt lat="41.636025508" lon="2.530940443">
        <ele>378.42</ele>
        <time>2014-06-29T11:22:29Z</time>
      </trkpt>
      <trkpt lat="41.635745385" lon="2.531081595">
        <ele>376.01</ele>
        <time>2014-06-29T11:22:35Z</time>
      </trkpt>
      <trkpt lat="41.635698865" lon="2.531220650">
        <ele>375.05</ele>
        <time>2014-06-29T11:22:37Z</time>
      </trkpt>
      <trkpt lat="41.635621919" lon="2.531610577">
        <ele>371.69</ele>
        <time>2014-06-29T11:22:41Z</time>
      </trkpt>
      <trkpt lat="41.635587973" lon="2.531843258">
        <ele>369.76</ele>
        <time>2014-06-29T11:22:43Z</time>
      </trkpt>
      <trkpt lat="41.635509686" lon="2.532154059">
        <ele>368.80</ele>
        <time>2014-06-29T11:22:47Z</time>
      </trkpt>
      <trkpt lat="41.635359650" lon="2.532138804">
        <ele>368.80</ele>
        <time>2014-06-29T11:22:51Z</time>
      </trkpt>
      <trkpt lat="41.635324781" lon="2.532114580">
        <ele>368.80</ele>
        <time>2014-06-29T11:22:52Z</time>
      </trkpt>
      <trkpt lat="41.635235094" lon="2.532012824">
        <ele>368.80</ele>
        <time>2014-06-29T11:22:55Z</time>
      </trkpt>
      <trkpt lat="41.635070809" lon="2.531836050">
        <ele>368.80</ele>
        <time>2014-06-29T11:22:59Z</time>
      </trkpt>
      <trkpt lat="41.634858663" lon="2.531836469">
        <ele>365.92</ele>
        <time>2014-06-29T11:23:03Z</time>
      </trkpt>
      <trkpt lat="41.634672836" lon="2.532139726">
        <ele>362.55</ele>
        <time>2014-06-29T11:23:07Z</time>
      </trkpt>
      <trkpt lat="41.634643081" lon="2.532228742">
        <ele>362.55</ele>
        <time>2014-06-29T11:23:08Z</time>
      </trkpt>
      <trkpt lat="41.634630508" lon="2.532426974">
        <ele>362.07</ele>
        <time>2014-06-29T11:23:11Z</time>
      </trkpt>
      <trkpt lat="41.634647607" lon="2.532757975">
        <ele>364.00</ele>
        <time>2014-06-29T11:23:19Z</time>
      </trkpt>
      <trkpt lat="41.634674848" lon="2.532974396">
        <ele>365.44</ele>
        <time>2014-06-29T11:23:25Z</time>
      </trkpt>
      <trkpt lat="41.634715333" lon="2.533278408">
        <ele>367.84</ele>
        <time>2014-06-29T11:23:34Z</time>
      </trkpt>
      <trkpt lat="41.634607960" lon="2.533452248">
        <ele>368.80</ele>
        <time>2014-06-29T11:23:41Z</time>
      </trkpt>
      <trkpt lat="41.634474521" lon="2.533413021">
        <ele>370.24</ele>
        <time>2014-06-29T11:23:47Z</time>
      </trkpt>
      <trkpt lat="41.634359940" lon="2.533448393">
        <ele>371.69</ele>
        <time>2014-06-29T11:23:53Z</time>
      </trkpt>
      <trkpt lat="41.634228847" lon="2.533516370">
        <ele>372.65</ele>
        <time>2014-06-29T11:24:00Z</time>
      </trkpt>
      <trkpt lat="41.634109908" lon="2.533561129">
        <ele>374.09</ele>
        <time>2014-06-29T11:24:06Z</time>
      </trkpt>
      <trkpt lat="41.634015779" lon="2.533584934">
        <ele>374.09</ele>
        <time>2014-06-29T11:24:10Z</time>
      </trkpt>
      <trkpt lat="41.633777146" lon="2.533406232">
        <ele>372.17</ele>
        <time>2014-06-29T11:24:15Z</time>
      </trkpt>
      <trkpt lat="41.633690896" lon="2.533289304">
        <ele>373.61</ele>
        <time>2014-06-29T11:24:20Z</time>
      </trkpt>
      <trkpt lat="41.633581932" lon="2.533161648">
        <ele>375.53</ele>
        <time>2014-06-29T11:24:28Z</time>
      </trkpt>
      <trkpt lat="41.633482774" lon="2.533043379">
        <ele>377.94</ele>
        <time>2014-06-29T11:24:36Z</time>
      </trkpt>
      <trkpt lat="41.633390070" lon="2.532931397">
        <ele>379.38</ele>
        <time>2014-06-29T11:24:45Z</time>
      </trkpt>
      <trkpt lat="41.633373390" lon="2.532909939">
        <ele>379.86</ele>
        <time>2014-06-29T11:24:47Z</time>
      </trkpt>
      <trkpt lat="41.633257384" lon="2.532756299">
        <ele>381.30</ele>
        <time>2014-06-29T11:24:57Z</time>
      </trkpt>
      <trkpt lat="41.633241962" lon="2.532717994">
        <ele>381.30</ele>
        <time>2014-06-29T11:24:58Z</time>
      </trkpt>
      <trkpt lat="41.633223521" lon="2.532294624">
        <ele>377.94</ele>
        <time>2014-06-29T11:25:03Z</time>
      </trkpt>
      <trkpt lat="41.633126627" lon="2.531830266">
        <ele>375.05</ele>
        <time>2014-06-29T11:25:07Z</time>
      </trkpt>
      <trkpt lat="41.633066277" lon="2.531720128">
        <ele>374.09</ele>
        <time>2014-06-29T11:25:08Z</time>
      </trkpt>
      <trkpt lat="41.632938956" lon="2.531498008">
        <ele>373.13</ele>
        <time>2014-06-29T11:25:10Z</time>
      </trkpt>
      <trkpt lat="41.632612062" lon="2.531068100">
        <ele>372.65</ele>
        <time>2014-06-29T11:25:15Z</time>
      </trkpt>
      <trkpt lat="41.632560429" lon="2.531005319">
        <ele>372.65</ele>
        <time>2014-06-29T11:25:16Z</time>
      </trkpt>
      <trkpt lat="41.632196822" lon="2.530663254">
        <ele>372.65</ele>
        <time>2014-06-29T11:25:24Z</time>
      </trkpt>
      <trkpt lat="41.632141669" lon="2.530599551">
        <ele>374.09</ele>
        <time>2014-06-29T11:25:26Z</time>
      </trkpt>
      <trkpt lat="41.632041589" lon="2.530524701">
        <ele>375.53</ele>
        <time>2014-06-29T11:25:31Z</time>
      </trkpt>
      <trkpt lat="41.631953915" lon="2.530567281">
        <ele>376.49</ele>
        <time>2014-06-29T11:25:35Z</time>
      </trkpt>
      <trkpt lat="41.631800442" lon="2.530790575">
        <ele>377.45</ele>
        <time>2014-06-29T11:25:44Z</time>
      </trkpt>
      <trkpt lat="41.631653256" lon="2.531041278">
        <ele>378.42</ele>
        <time>2014-06-29T11:25:53Z</time>
      </trkpt>
      <trkpt lat="41.631480756" lon="2.531306733">
        <ele>379.38</ele>
        <time>2014-06-29T11:26:03Z</time>
      </trkpt>
      <trkpt lat="41.631331977" lon="2.531444112">
        <ele>380.34</ele>
        <time>2014-06-29T11:26:10Z</time>
      </trkpt>
      <trkpt lat="41.631141792" lon="2.531418296">
        <ele>380.34</ele>
        <time>2014-06-29T11:26:17Z</time>
      </trkpt>
      <trkpt lat="41.630917828" lon="2.531406645">
        <ele>380.34</ele>
        <time>2014-06-29T11:26:24Z</time>
      </trkpt>
      <trkpt lat="41.630680871" lon="2.531521225">
        <ele>381.30</ele>
        <time>2014-06-29T11:26:31Z</time>
      </trkpt>
      <trkpt lat="41.630386666" lon="2.531614851">
        <ele>381.30</ele>
        <time>2014-06-29T11:26:40Z</time>
      </trkpt>
      <trkpt lat="41.630167480" lon="2.531559196">
        <ele>382.74</ele>
        <time>2014-06-29T11:26:47Z</time>
      </trkpt>
      <trkpt lat="41.629962626" lon="2.531486943">
        <ele>383.70</ele>
        <time>2014-06-29T11:26:54Z</time>
      </trkpt>
      <trkpt lat="41.629793144" lon="2.531381499">
        <ele>385.15</ele>
        <time>2014-06-29T11:27:01Z</time>
      </trkpt>
      <trkpt lat="41.629628607" lon="2.531273792">
        <ele>386.59</ele>
        <time>2014-06-29T11:27:07Z</time>
      </trkpt>
      <trkpt lat="41.629477146" lon="2.531175807">
        <ele>387.55</ele>
        <time>2014-06-29T11:27:13Z</time>
      </trkpt>
      <trkpt lat="41.629411264" lon="2.530998111">
        <ele>388.03</ele>
        <time>2014-06-29T11:27:18Z</time>
      </trkpt>
      <trkpt lat="41.629379665" lon="2.530559654">
        <ele>385.15</ele>
        <time>2014-06-29T11:27:25Z</time>
      </trkpt>
      <trkpt lat="41.629376060" lon="2.530477511">
        <ele>384.66</ele>
        <time>2014-06-29T11:27:26Z</time>
      </trkpt>
      <trkpt lat="41.629307329" lon="2.530090435">
        <ele>383.22</ele>
        <time>2014-06-29T11:27:30Z</time>
      </trkpt>
      <trkpt lat="41.629044137" lon="2.529426420">
        <ele>380.34</ele>
        <time>2014-06-29T11:27:36Z</time>
      </trkpt>
      <trkpt lat="41.628778263" lon="2.528900288">
        <ele>380.34</ele>
        <time>2014-06-29T11:27:42Z</time>
      </trkpt>
      <trkpt lat="41.628582043" lon="2.528488150">
        <ele>380.34</ele>
        <time>2014-06-29T11:27:48Z</time>
      </trkpt>
      <trkpt lat="41.628356486" lon="2.528238453">
        <ele>378.90</ele>
        <time>2014-06-29T11:27:53Z</time>
      </trkpt>
      <trkpt lat="41.627976534" lon="2.527872667">
        <ele>376.01</ele>
        <time>2014-06-29T11:27:59Z</time>
      </trkpt>
      <trkpt lat="41.627894307" lon="2.527821705">
        <ele>376.01</ele>
        <time>2014-06-29T11:28:00Z</time>
      </trkpt>
      <trkpt lat="41.627449145" lon="2.527543342">
        <ele>373.13</ele>
        <time>2014-06-29T11:28:05Z</time>
      </trkpt>
      <trkpt lat="41.627353926" lon="2.527490033">
        <ele>373.13</ele>
        <time>2014-06-29T11:28:06Z</time>
      </trkpt>
      <trkpt lat="41.626970286" lon="2.527326670">
        <ele>367.84</ele>
        <time>2014-06-29T11:28:10Z</time>
      </trkpt>
      <trkpt lat="41.626818909" lon="2.527290376">
        <ele>364.96</ele>
        <time>2014-06-29T11:28:12Z</time>
      </trkpt>
      <trkpt lat="41.626651606" lon="2.527263722">
        <ele>361.11</ele>
        <time>2014-06-29T11:28:15Z</time>
      </trkpt>
      <trkpt lat="41.626584887" lon="2.527248467">
        <ele>359.19</ele>
        <time>2014-06-29T11:28:17Z</time>
      </trkpt>
      <trkpt lat="41.626498050" lon="2.527140591">
        <ele>358.23</ele>
        <time>2014-06-29T11:28:22Z</time>
      </trkpt>
      <trkpt lat="41.626369891" lon="2.526981587">
        <ele>356.79</ele>
        <time>2014-06-29T11:28:27Z</time>
      </trkpt>
      <trkpt lat="41.626330160" lon="2.526939845">
        <ele>356.31</ele>
        <time>2014-06-29T11:28:29Z</time>
      </trkpt>
      <trkpt lat="41.626276181" lon="2.526738176">
        <ele>356.31</ele>
        <time>2014-06-29T11:28:36Z</time>
      </trkpt>
      <trkpt lat="41.626232092" lon="2.526633319">
        <ele>355.83</ele>
        <time>2014-06-29T11:28:39Z</time>
      </trkpt>
      <trkpt lat="41.626089265" lon="2.526402146">
        <ele>355.34</ele>
        <time>2014-06-29T11:28:47Z</time>
      </trkpt>
      <trkpt lat="41.625826743" lon="2.526186060">
        <ele>354.38</ele>
        <time>2014-06-29T11:28:56Z</time>
      </trkpt>
      <trkpt lat="41.625560618" lon="2.525948098">
        <ele>354.38</ele>
        <time>2014-06-29T11:29:06Z</time>
      </trkpt>
      <trkpt lat="41.625421730" lon="2.525717596">
        <ele>354.38</ele>
        <time>2014-06-29T11:29:13Z</time>
      </trkpt>
      <trkpt lat="41.625252667" lon="2.525455242">
        <ele>354.38</ele>
        <time>2014-06-29T11:29:20Z</time>
      </trkpt>
      <trkpt lat="41.625007329" lon="2.525168665">
        <ele>353.90</ele>
        <time>2014-06-29T11:29:28Z</time>
      </trkpt>
      <trkpt lat="41.624907835" lon="2.525011337">
        <ele>353.42</ele>
        <time>2014-06-29T11:29:32Z</time>
      </trkpt>
      <trkpt lat="41.624724272" lon="2.524532646">
        <ele>351.98</ele>
        <time>2014-06-29T11:29:41Z</time>
      </trkpt>
      <trkpt lat="41.624543809" lon="2.524040125">
        <ele>350.06</ele>
        <time>2014-06-29T11:29:48Z</time>
      </trkpt>
      <trkpt lat="41.624358318" lon="2.523647266">
        <ele>347.17</ele>
        <time>2014-06-29T11:29:53Z</time>
      </trkpt>
      <trkpt lat="41.624293274" lon="2.523461942">
        <ele>345.73</ele>
        <time>2014-06-29T11:29:55Z</time>
      </trkpt>
      <trkpt lat="41.624187746" lon="2.523079224">
        <ele>344.77</ele>
        <time>2014-06-29T11:29:59Z</time>
      </trkpt>
      <trkpt lat="41.624125301" lon="2.522904210">
        <ele>344.77</ele>
        <time>2014-06-29T11:30:01Z</time>
      </trkpt>
      <trkpt lat="41.624012229" lon="2.522670858">
        <ele>343.81</ele>
        <time>2014-06-29T11:30:04Z</time>
      </trkpt>
      <trkpt lat="41.623675528" lon="2.522310939">
        <ele>342.85</ele>
        <time>2014-06-29T11:30:10Z</time>
      </trkpt>
      <trkpt lat="41.623447037" lon="2.522099631">
        <ele>340.92</ele>
        <time>2014-06-29T11:30:14Z</time>
      </trkpt>
      <trkpt lat="41.623330445" lon="2.521968035">
        <ele>339.96</ele>
        <time>2014-06-29T11:30:17Z</time>
      </trkpt>
      <trkpt lat="41.623096758" lon="2.521805259">
        <ele>337.56</ele>
        <time>2014-06-29T11:30:23Z</time>
      </trkpt>
      <trkpt lat="41.622928617" lon="2.521847168">
        <ele>336.60</ele>
        <time>2014-06-29T11:30:26Z</time>
      </trkpt>
      <trkpt lat="41.622716387" lon="2.521856221">
        <ele>335.16</ele>
        <time>2014-06-29T11:30:29Z</time>
      </trkpt>
      <trkpt lat="41.622506672" lon="2.521761505">
        <ele>332.75</ele>
        <time>2014-06-29T11:30:32Z</time>
      </trkpt>
      <trkpt lat="41.622291424" lon="2.521590347">
        <ele>330.35</ele>
        <time>2014-06-29T11:30:35Z</time>
      </trkpt>
      <trkpt lat="41.622044661" lon="2.521582132">
        <ele>326.99</ele>
        <time>2014-06-29T11:30:39Z</time>
      </trkpt>
      <trkpt lat="41.621980120" lon="2.521730408">
        <ele>326.02</ele>
        <time>2014-06-29T11:30:41Z</time>
      </trkpt>
      <trkpt lat="41.621953550" lon="2.521921935">
        <ele>325.06</ele>
        <time>2014-06-29T11:30:43Z</time>
      </trkpt>
      <trkpt lat="41.621952292" lon="2.522259977">
        <ele>320.74</ele>
        <time>2014-06-29T11:30:48Z</time>
      </trkpt>
      <trkpt lat="41.621893619" lon="2.522261066">
        <ele>320.26</ele>
        <time>2014-06-29T11:30:50Z</time>
      </trkpt>
      <trkpt lat="41.621838131" lon="2.522129219">
        <ele>318.81</ele>
        <time>2014-06-29T11:30:53Z</time>
      </trkpt>
      <trkpt lat="41.621761353" lon="2.521914056">
        <ele>317.37</ele>
        <time>2014-06-29T11:30:56Z</time>
      </trkpt>
      <trkpt lat="41.621582399" lon="2.521557070">
        <ele>313.53</ele>
        <time>2014-06-29T11:31:00Z</time>
      </trkpt>
      <trkpt lat="41.621385508" lon="2.521240905">
        <ele>310.16</ele>
        <time>2014-06-29T11:31:04Z</time>
      </trkpt>
      <trkpt lat="41.621178308" lon="2.521112913">
        <ele>305.36</ele>
        <time>2014-06-29T11:31:08Z</time>
      </trkpt>
      <trkpt lat="41.621096752" lon="2.521065639">
        <ele>303.91</ele>
        <time>2014-06-29T11:31:11Z</time>
      </trkpt>
      <trkpt lat="41.621175961" lon="2.521007385">
        <ele>302.95</ele>
        <time>2014-06-29T11:31:14Z</time>
      </trkpt>
      <trkpt lat="41.621375031" lon="2.520969080">
        <ele>301.99</ele>
        <time>2014-06-29T11:31:18Z</time>
      </trkpt>
      <trkpt lat="41.621652807" lon="2.521040326">
        <ele>300.55</ele>
        <time>2014-06-29T11:31:23Z</time>
      </trkpt>
      <trkpt lat="41.621814913" lon="2.520969499">
        <ele>299.59</ele>
        <time>2014-06-29T11:31:26Z</time>
      </trkpt>
      <trkpt lat="41.622112974" lon="2.520738829">
        <ele>297.18</ele>
        <time>2014-06-29T11:31:31Z</time>
      </trkpt>
      <trkpt lat="41.622240295" lon="2.520625841">
        <ele>294.78</ele>
        <time>2014-06-29T11:31:33Z</time>
      </trkpt>
      <trkpt lat="41.622411621" lon="2.520520900">
        <ele>291.42</ele>
        <time>2014-06-29T11:31:36Z</time>
      </trkpt>
      <trkpt lat="41.622461242" lon="2.520397183">
        <ele>289.97</ele>
        <time>2014-06-29T11:31:39Z</time>
      </trkpt>
      <trkpt lat="41.622337441" lon="2.520362565">
        <ele>288.53</ele>
        <time>2014-06-29T11:31:42Z</time>
      </trkpt>
      <trkpt lat="41.622281198" lon="2.520383101">
        <ele>288.05</ele>
        <time>2014-06-29T11:31:43Z</time>
      </trkpt>
      <trkpt lat="41.622067376" lon="2.520455185">
        <ele>283.73</ele>
        <time>2014-06-29T11:31:47Z</time>
      </trkpt>
      <trkpt lat="41.622006188" lon="2.520465328">
        <ele>283.25</ele>
        <time>2014-06-29T11:31:49Z</time>
      </trkpt>
      <trkpt lat="41.621730675" lon="2.520414030">
        <ele>278.44</ele>
        <time>2014-06-29T11:31:54Z</time>
      </trkpt>
      <trkpt lat="41.621664458" lon="2.520397853">
        <ele>277.00</ele>
        <time>2014-06-29T11:31:55Z</time>
      </trkpt>
      <trkpt lat="41.621520708" lon="2.520344293">
        <ele>275.07</ele>
        <time>2014-06-29T11:31:57Z</time>
      </trkpt>
      <trkpt lat="41.621168082" lon="2.520292996">
        <ele>271.23</ele>
        <time>2014-06-29T11:32:01Z</time>
      </trkpt>
      <trkpt lat="41.620811180" lon="2.520213368">
        <ele>268.35</ele>
        <time>2014-06-29T11:32:05Z</time>
      </trkpt>
      <trkpt lat="41.620536924" lon="2.520171123">
        <ele>264.50</ele>
        <time>2014-06-29T11:32:08Z</time>
      </trkpt>
      <trkpt lat="41.620284629" lon="2.520118652">
        <ele>261.14</ele>
        <time>2014-06-29T11:32:11Z</time>
      </trkpt>
      <trkpt lat="41.620204917" lon="2.520108091">
        <ele>260.65</ele>
        <time>2014-06-29T11:32:12Z</time>
      </trkpt>
      <trkpt lat="41.619923453" lon="2.520188976">
        <ele>256.33</ele>
        <time>2014-06-29T11:32:16Z</time>
      </trkpt>
      <trkpt lat="41.619739135" lon="2.520278160">
        <ele>252.48</ele>
        <time>2014-06-29T11:32:19Z</time>
      </trkpt>
      <trkpt lat="41.619516595" lon="2.520327278">
        <ele>249.12</ele>
        <time>2014-06-29T11:32:23Z</time>
      </trkpt>
      <trkpt lat="41.619479966" lon="2.520324176">
        <ele>248.64</ele>
        <time>2014-06-29T11:32:24Z</time>
      </trkpt>
      <trkpt lat="41.619390112" lon="2.520289643">
        <ele>247.20</ele>
        <time>2014-06-29T11:32:26Z</time>
      </trkpt>
      <trkpt lat="41.619061123" lon="2.520380587">
        <ele>243.35</ele>
        <time>2014-06-29T11:32:31Z</time>
      </trkpt>
      <trkpt lat="41.618854844" lon="2.520490054">
        <ele>239.99</ele>
        <time>2014-06-29T11:32:34Z</time>
      </trkpt>
      <trkpt lat="41.618552844" lon="2.520557612">
        <ele>237.10</ele>
        <time>2014-06-29T11:32:39Z</time>
      </trkpt>
      <trkpt lat="41.618309517" lon="2.520777386">
        <ele>233.74</ele>
        <time>2014-06-29T11:32:44Z</time>
      </trkpt>
      <trkpt lat="41.618209354" lon="2.521118529">
        <ele>230.37</ele>
        <time>2014-06-29T11:32:48Z</time>
      </trkpt>
      <trkpt lat="41.618083122" lon="2.521364203">
        <ele>227.49</ele>
        <time>2014-06-29T11:32:51Z</time>
      </trkpt>
      <trkpt lat="41.618018833" lon="2.521510467">
        <ele>225.57</ele>
        <time>2014-06-29T11:32:53Z</time>
      </trkpt>
      <trkpt lat="41.617913137" lon="2.521641560">
        <ele>222.20</ele>
        <time>2014-06-29T11:32:58Z</time>
      </trkpt>
      <trkpt lat="41.617884220" lon="2.521549108">
        <ele>221.72</ele>
        <time>2014-06-29T11:33:00Z</time>
      </trkpt>
      <trkpt lat="41.617787660" lon="2.521178041">
        <ele>219.80</ele>
        <time>2014-06-29T11:33:05Z</time>
      </trkpt>
      <trkpt lat="41.617721946" lon="2.520955753">
        <ele>218.36</ele>
        <time>2014-06-29T11:33:08Z</time>
      </trkpt>
      <trkpt lat="41.617674085" lon="2.520728687">
        <ele>217.88</ele>
        <time>2014-06-29T11:33:11Z</time>
      </trkpt>
      <trkpt lat="41.617711217" lon="2.520423334">
        <ele>216.43</ele>
        <time>2014-06-29T11:33:16Z</time>
      </trkpt>
      <trkpt lat="41.617719515" lon="2.520184366">
        <ele>214.99</ele>
        <time>2014-06-29T11:33:20Z</time>
      </trkpt>
      <trkpt lat="41.617762766" lon="2.520141116">
        <ele>214.03</ele>
        <time>2014-06-29T11:33:21Z</time>
      </trkpt>
      <trkpt lat="41.617859996" lon="2.520053357">
        <ele>212.59</ele>
        <time>2014-06-29T11:33:23Z</time>
      </trkpt>
      <trkpt lat="41.617921687" lon="2.519892844">
        <ele>211.15</ele>
        <time>2014-06-29T11:33:26Z</time>
      </trkpt>
      <trkpt lat="41.617890171" lon="2.519803073">
        <ele>209.70</ele>
        <time>2014-06-29T11:33:28Z</time>
      </trkpt>
      <trkpt lat="41.617833341" lon="2.519729061">
        <ele>209.22</ele>
        <time>2014-06-29T11:33:32Z</time>
      </trkpt>
      <trkpt lat="41.617822445" lon="2.519666281">
        <ele>208.74</ele>
        <time>2014-06-29T11:33:36Z</time>
      </trkpt>
      <trkpt lat="41.617737285" lon="2.519627473">
        <ele>207.78</ele>
        <time>2014-06-29T11:33:41Z</time>
      </trkpt>
      <trkpt lat="41.617708283" lon="2.519628897">
        <ele>207.30</ele>
        <time>2014-06-29T11:33:42Z</time>
      </trkpt>
      <trkpt lat="41.617427490" lon="2.519637196">
        <ele>205.86</ele>
        <time>2014-06-29T11:33:49Z</time>
      </trkpt>
      <trkpt lat="41.617027505" lon="2.519692432">
        <ele>204.90</ele>
        <time>2014-06-29T11:33:57Z</time>
      </trkpt>
      <trkpt lat="41.616864980" lon="2.519724200">
        <ele>203.94</ele>
        <time>2014-06-29T11:34:00Z</time>
      </trkpt>
      <trkpt lat="41.616551413" lon="2.519863004">
        <ele>201.53</ele>
        <time>2014-06-29T11:34:06Z</time>
      </trkpt>
      <trkpt lat="41.616396180" lon="2.519981105">
        <ele>201.53</ele>
        <time>2014-06-29T11:34:12Z</time>
      </trkpt>
      <trkpt lat="41.616349577" lon="2.520028379">
        <ele>202.49</ele>
        <time>2014-06-29T11:34:16Z</time>
      </trkpt>
      <trkpt lat="41.616317223" lon="2.520054111">
        <ele>202.49</ele>
        <time>2014-06-29T11:34:18Z</time>
      </trkpt>
      <trkpt lat="41.616232063" lon="2.520237507">
        <ele>202.49</ele>
        <time>2014-06-29T11:34:23Z</time>
      </trkpt>
      <trkpt lat="41.616162325" lon="2.520394920">
        <ele>202.49</ele>
        <time>2014-06-29T11:34:26Z</time>
      </trkpt>
      <trkpt lat="41.616055037" lon="2.520712091">
        <ele>201.53</ele>
        <time>2014-06-29T11:34:31Z</time>
      </trkpt>
      <trkpt lat="41.616021090" lon="2.520832539">
        <ele>201.53</ele>
        <time>2014-06-29T11:34:33Z</time>
      </trkpt>
      <trkpt lat="41.615954957" lon="2.521219615">
        <ele>200.57</ele>
        <time>2014-06-29T11:34:39Z</time>
      </trkpt>
      <trkpt lat="41.615913131" lon="2.521500241">
        <ele>199.61</ele>
        <time>2014-06-29T11:34:43Z</time>
      </trkpt>
      <trkpt lat="41.615836772" lon="2.521948841">
        <ele>198.65</ele>
        <time>2014-06-29T11:34:50Z</time>
      </trkpt>
      <trkpt lat="41.615759491" lon="2.522528617">
        <ele>196.73</ele>
        <time>2014-06-29T11:34:57Z</time>
      </trkpt>
      <trkpt lat="41.615680114" lon="2.523096826">
        <ele>194.80</ele>
        <time>2014-06-29T11:35:03Z</time>
      </trkpt>
      <trkpt lat="41.615628063" lon="2.523496475">
        <ele>193.84</ele>
        <time>2014-06-29T11:35:07Z</time>
      </trkpt>
      <trkpt lat="41.615570647" lon="2.524223605">
        <ele>190.96</ele>
        <time>2014-06-29T11:35:14Z</time>
      </trkpt>
      <trkpt lat="41.615563606" lon="2.524337432">
        <ele>190.96</ele>
        <time>2014-06-29T11:35:15Z</time>
      </trkpt>
      <trkpt lat="41.615509543" lon="2.525155002">
        <ele>187.59</ele>
        <time>2014-06-29T11:35:22Z</time>
      </trkpt>
      <trkpt lat="41.615511973" lon="2.525811138">
        <ele>185.67</ele>
        <time>2014-06-29T11:35:28Z</time>
      </trkpt>
      <trkpt lat="41.615571401" lon="2.526535502">
        <ele>183.27</ele>
        <time>2014-06-29T11:35:35Z</time>
      </trkpt>
      <trkpt lat="41.615575592" lon="2.526635163">
        <ele>182.79</ele>
        <time>2014-06-29T11:35:36Z</time>
      </trkpt>
      <trkpt lat="41.615569389" lon="2.526836999">
        <ele>181.83</ele>
        <time>2014-06-29T11:35:38Z</time>
      </trkpt>
      <trkpt lat="41.615410301" lon="2.527801504">
        <ele>178.46</ele>
        <time>2014-06-29T11:35:47Z</time>
      </trkpt>
      <trkpt lat="41.615197484" lon="2.528887296">
        <ele>176.06</ele>
        <time>2014-06-29T11:35:57Z</time>
      </trkpt>
      <trkpt lat="41.615165801" lon="2.529509066">
        <ele>174.14</ele>
        <time>2014-06-29T11:36:03Z</time>
      </trkpt>
      <trkpt lat="41.615161945" lon="2.529614007">
        <ele>173.66</ele>
        <time>2014-06-29T11:36:04Z</time>
      </trkpt>
      <trkpt lat="41.615144846" lon="2.530460747">
        <ele>170.77</ele>
        <time>2014-06-29T11:36:12Z</time>
      </trkpt>
      <trkpt lat="41.615137386" lon="2.530568371">
        <ele>170.77</ele>
        <time>2014-06-29T11:36:13Z</time>
      </trkpt>
      <trkpt lat="41.615090699" lon="2.531286784">
        <ele>168.37</ele>
        <time>2014-06-29T11:36:20Z</time>
      </trkpt>
      <trkpt lat="41.615175356" lon="2.531629017">
        <ele>166.93</ele>
        <time>2014-06-29T11:36:25Z</time>
      </trkpt>
      <trkpt lat="41.615196646" lon="2.531986924">
        <ele>165.48</ele>
        <time>2014-06-29T11:36:29Z</time>
      </trkpt>
      <trkpt lat="41.615061949" lon="2.532567874">
        <ele>164.52</ele>
        <time>2014-06-29T11:36:36Z</time>
      </trkpt>
      <trkpt lat="41.614916104" lon="2.533083361">
        <ele>162.60</ele>
        <time>2014-06-29T11:36:43Z</time>
      </trkpt>
      <trkpt lat="41.614719129" lon="2.533752404">
        <ele>160.68</ele>
        <time>2014-06-29T11:36:52Z</time>
      </trkpt>
      <trkpt lat="41.614498685" lon="2.534427315">
        <ele>158.75</ele>
        <time>2014-06-29T11:37:01Z</time>
      </trkpt>
      <trkpt lat="41.614458452" lon="2.534574418">
        <ele>158.75</ele>
        <time>2014-06-29T11:37:03Z</time>
      </trkpt>
      <trkpt lat="41.614209929" lon="2.535343960">
        <ele>155.39</ele>
        <time>2014-06-29T11:37:14Z</time>
      </trkpt>
      <trkpt lat="41.614139772" lon="2.535551664">
        <ele>153.95</ele>
        <time>2014-06-29T11:37:17Z</time>
      </trkpt>
      <trkpt lat="41.614062826" lon="2.535827093">
        <ele>152.99</ele>
        <time>2014-06-29T11:37:21Z</time>
      </trkpt>
      <trkpt lat="41.613953945" lon="2.536131608">
        <ele>152.51</ele>
        <time>2014-06-29T11:37:26Z</time>
      </trkpt>
      <trkpt lat="41.613778260" lon="2.536489599">
        <ele>151.06</ele>
        <time>2014-06-29T11:37:34Z</time>
      </trkpt>
      <trkpt lat="41.613715145" lon="2.536621781">
        <ele>150.10</ele>
        <time>2014-06-29T11:37:39Z</time>
      </trkpt>
      <trkpt lat="41.613641049" lon="2.536760334">
        <ele>149.62</ele>
        <time>2014-06-29T11:37:45Z</time>
      </trkpt>
      <trkpt lat="41.613520768" lon="2.536975833">
        <ele>149.62</ele>
        <time>2014-06-29T11:37:51Z</time>
      </trkpt>
      <trkpt lat="41.613426388" lon="2.537102316">
        <ele>149.14</ele>
        <time>2014-06-29T11:37:54Z</time>
      </trkpt>
      <trkpt lat="41.613352125" lon="2.537178591">
        <ele>148.66</ele>
        <time>2014-06-29T11:37:56Z</time>
      </trkpt>
      <trkpt lat="41.613202340" lon="2.537344720">
        <ele>147.70</ele>
        <time>2014-06-29T11:38:00Z</time>
      </trkpt>
      <trkpt lat="41.613045431" lon="2.537524177">
        <ele>147.22</ele>
        <time>2014-06-29T11:38:04Z</time>
      </trkpt>
      <trkpt lat="41.612718369" lon="2.537879821">
        <ele>146.26</ele>
        <time>2014-06-29T11:38:12Z</time>
      </trkpt>
      <trkpt lat="41.612680818" lon="2.537924245">
        <ele>145.78</ele>
        <time>2014-06-29T11:38:13Z</time>
      </trkpt>
      <trkpt lat="41.612412932" lon="2.538288271">
        <ele>144.82</ele>
        <time>2014-06-29T11:38:20Z</time>
      </trkpt>
      <trkpt lat="41.612292652" lon="2.538451634">
        <ele>144.34</ele>
        <time>2014-06-29T11:38:23Z</time>
      </trkpt>
      <trkpt lat="41.612215203" lon="2.538595049">
        <ele>143.37</ele>
        <time>2014-06-29T11:38:26Z</time>
      </trkpt>
      <trkpt lat="41.612152255" lon="2.538757239">
        <ele>142.41</ele>
        <time>2014-06-29T11:38:29Z</time>
      </trkpt>
      <trkpt lat="41.611954107" lon="2.539050857">
        <ele>141.45</ele>
        <time>2014-06-29T11:38:36Z</time>
      </trkpt>
      <trkpt lat="41.611795940" lon="2.539233498">
        <ele>140.97</ele>
        <time>2014-06-29T11:38:41Z</time>
      </trkpt>
      <trkpt lat="41.611690831" lon="2.539339278">
        <ele>140.01</ele>
        <time>2014-06-29T11:38:46Z</time>
      </trkpt>
      <trkpt lat="41.611635762" lon="2.539413374">
        <ele>139.53</ele>
        <time>2014-06-29T11:38:53Z</time>
      </trkpt>
      <trkpt lat="41.611594691" lon="2.539485123">
        <ele>139.53</ele>
        <time>2014-06-29T11:38:59Z</time>
      </trkpt>
      <trkpt lat="41.611587818" lon="2.539505910">
        <ele>139.53</ele>
        <time>2014-06-29T11:39:00Z</time>
      </trkpt>
      <trkpt lat="41.611630398" lon="2.539734066">
        <ele>139.53</ele>
        <time>2014-06-29T11:39:07Z</time>
      </trkpt>
      <trkpt lat="41.611638696" lon="2.539935986">
        <ele>140.49</ele>
        <time>2014-06-29T11:39:13Z</time>
      </trkpt>
      <trkpt lat="41.611663506" lon="2.540190460">
        <ele>141.45</ele>
        <time>2014-06-29T11:39:20Z</time>
      </trkpt>
      <trkpt lat="41.611663171" lon="2.540511403">
        <ele>143.37</ele>
        <time>2014-06-29T11:39:29Z</time>
      </trkpt>
      <trkpt lat="41.611634924" lon="2.540670827">
        <ele>144.34</ele>
        <time>2014-06-29T11:39:35Z</time>
      </trkpt>
      <trkpt lat="41.611585638" lon="2.540737631">
        <ele>144.82</ele>
        <time>2014-06-29T11:39:39Z</time>
      </trkpt>
      <trkpt lat="41.611281543" lon="2.540922284">
        <ele>143.37</ele>
        <time>2014-06-29T11:39:48Z</time>
      </trkpt>
      <trkpt lat="41.611236197" lon="2.540938545">
        <ele>143.37</ele>
        <time>2014-06-29T11:39:49Z</time>
      </trkpt>
      <trkpt lat="41.610826573" lon="2.541105094">
        <ele>141.45</ele>
        <time>2014-06-29T11:39:57Z</time>
      </trkpt>
      <trkpt lat="41.610326341" lon="2.541315647">
        <ele>139.05</ele>
        <time>2014-06-29T11:40:05Z</time>
      </trkpt>
      <trkpt lat="41.610118554" lon="2.541382618">
        <ele>138.09</ele>
        <time>2014-06-29T11:40:08Z</time>
      </trkpt>
      <trkpt lat="41.609885956" lon="2.541341966">
        <ele>136.16</ele>
        <time>2014-06-29T11:40:12Z</time>
      </trkpt>
      <trkpt lat="41.609759138" lon="2.541331908">
        <ele>134.72</ele>
        <time>2014-06-29T11:40:17Z</time>
      </trkpt>
      <trkpt lat="41.609761066" lon="2.541337188">
        <ele>134.72</ele>
        <time>2014-06-29T11:40:28Z</time>
      </trkpt>
      <trkpt lat="41.609757881" lon="2.541353952">
        <ele>134.72</ele>
        <time>2014-06-29T11:40:42Z</time>
      </trkpt>
      <trkpt lat="41.609755953" lon="2.541381529">
        <ele>134.72</ele>
        <time>2014-06-29T11:40:56Z</time>
      </trkpt>
      <trkpt lat="41.609730891" lon="2.541404663">
        <ele>134.72</ele>
        <time>2014-06-29T11:41:05Z</time>
      </trkpt>
      <trkpt lat="41.609623770" lon="2.541429725">
        <ele>134.72</ele>
        <time>2014-06-29T11:41:10Z</time>
      </trkpt>
      <trkpt lat="41.609395112" lon="2.541439867">
        <ele>134.24</ele>
        <time>2014-06-29T11:41:16Z</time>
      </trkpt>
      <trkpt lat="41.608965120" lon="2.541477921">
        <ele>132.80</ele>
        <time>2014-06-29T11:41:24Z</time>
      </trkpt>
      <trkpt lat="41.608853641" lon="2.541483956">
        <ele>132.32</ele>
        <time>2014-06-29T11:41:26Z</time>
      </trkpt>
      <trkpt lat="41.608631101" lon="2.541460905">
        <ele>131.84</ele>
        <time>2014-06-29T11:41:30Z</time>
      </trkpt>
      <trkpt lat="41.608376878" lon="2.541243563">
        <ele>130.88</ele>
        <time>2014-06-29T11:41:35Z</time>
      </trkpt>
      <trkpt lat="41.607959124" lon="2.541048516">
        <ele>129.43</ele>
        <time>2014-06-29T11:41:42Z</time>
      </trkpt>
      <trkpt lat="41.607904055" lon="2.541029321">
        <ele>129.43</ele>
        <time>2014-06-29T11:41:43Z</time>
      </trkpt>
      <trkpt lat="41.607324111" lon="2.541011971">
        <ele>128.47</ele>
        <time>2014-06-29T11:41:53Z</time>
      </trkpt>
      <trkpt lat="41.606850115" lon="2.540879537">
        <ele>126.07</ele>
        <time>2014-06-29T11:42:01Z</time>
      </trkpt>
      <trkpt lat="41.606346865" lon="2.540677197">
        <ele>124.15</ele>
        <time>2014-06-29T11:42:10Z</time>
      </trkpt>
      <trkpt lat="41.606003459" lon="2.540540069">
        <ele>123.19</ele>
        <time>2014-06-29T11:42:16Z</time>
      </trkpt>
      <trkpt lat="41.605861469" lon="2.540462704">
        <ele>122.71</ele>
        <time>2014-06-29T11:42:20Z</time>
      </trkpt>
      <trkpt lat="41.605825678" lon="2.540450970">
        <ele>122.22</ele>
        <time>2014-06-29T11:42:25Z</time>
      </trkpt>
      <trkpt lat="41.605834312" lon="2.540463962">
        <ele>122.22</ele>
        <time>2014-06-29T11:42:30Z</time>
      </trkpt>
      <trkpt lat="41.605893069" lon="2.540472511">
        <ele>122.22</ele>
        <time>2014-06-29T11:42:35Z</time>
      </trkpt>
      <trkpt lat="41.605944618" lon="2.540489191">
        <ele>122.22</ele>
        <time>2014-06-29T11:42:43Z</time>
      </trkpt>
      <trkpt lat="41.605938080" lon="2.540522132">
        <ele>122.22</ele>
        <time>2014-06-29T11:42:46Z</time>
      </trkpt>
      <trkpt lat="41.605980576" lon="2.540605113">
        <ele>122.22</ele>
        <time>2014-06-29T11:42:51Z</time>
      </trkpt>
      <trkpt lat="41.606171348" lon="2.540670492">
        <ele>122.22</ele>
        <time>2014-06-29T11:42:59Z</time>
      </trkpt>
      <trkpt lat="41.606274529" lon="2.540695386">
        <ele>123.67</ele>
        <time>2014-06-29T11:43:02Z</time>
      </trkpt>
      <trkpt lat="41.606400006" lon="2.540727070">
        <ele>124.63</ele>
        <time>2014-06-29T11:43:07Z</time>
      </trkpt>
      <trkpt lat="41.606446694" lon="2.540749282">
        <ele>124.63</ele>
        <time>2014-06-29T11:43:09Z</time>
      </trkpt>
      <trkpt lat="41.606568986" lon="2.540920524">
        <ele>125.11</ele>
        <time>2014-06-29T11:43:16Z</time>
      </trkpt>
      <trkpt lat="41.606613493" lon="2.541038038">
        <ele>125.59</ele>
        <time>2014-06-29T11:43:20Z</time>
      </trkpt>
      <trkpt lat="41.606690523" lon="2.541338027">
        <ele>127.03</ele>
        <time>2014-06-29T11:43:30Z</time>
      </trkpt>
      <trkpt lat="41.606740060" lon="2.541535504">
        <ele>128.47</ele>
        <time>2014-06-29T11:43:37Z</time>
      </trkpt>
      <trkpt lat="41.606840056" lon="2.541786961">
        <ele>129.43</ele>
        <time>2014-06-29T11:43:46Z</time>
      </trkpt>
      <trkpt lat="41.606852545" lon="2.541845467">
        <ele>129.92</ele>
        <time>2014-06-29T11:43:48Z</time>
      </trkpt>
      <trkpt lat="41.606929156" lon="2.542040849">
        <ele>130.40</ele>
        <time>2014-06-29T11:43:56Z</time>
      </trkpt>
      <trkpt lat="41.606998977" lon="2.542202285">
        <ele>131.36</ele>
        <time>2014-06-29T11:44:03Z</time>
      </trkpt>
      <trkpt lat="41.607048766" lon="2.542286271">
        <ele>132.80</ele>
        <time>2014-06-29T11:44:07Z</time>
      </trkpt>
      <trkpt lat="41.607086903" lon="2.542332539">
        <ele>132.80</ele>
        <time>2014-06-29T11:44:14Z</time>
      </trkpt>
      <trkpt lat="41.607091597" lon="2.542355087">
        <ele>133.28</ele>
        <time>2014-06-29T11:44:23Z</time>
      </trkpt>
      <trkpt lat="41.607096459" lon="2.542391967">
        <ele>133.76</ele>
        <time>2014-06-29T11:44:43Z</time>
      </trkpt>
    </trkseg>
  </trk>
</gpx>
